GFSMA_sfc_30mbdewp_000.txt.gz
Dewpoint
53 52 51 50 50 51 50 49 49 49 49 47 46 47 47 46 45 45 46 47 49 51 51 51 50 50 53 55 56 57 58 57 57 58 60 62 62 60 60 60 60 60 59
52 50 46 45 45 47 47 47 48 46 44 43 40 43 41 42 41 46 47 47 48 49 51 52 53 54 53 54 56 56 56 57 58 57 58 60 61 61 60 60 60 60 60
46 43 41 41 42 45 44 42 43 40 39 38 37 39 36 38 39 47 47 46 46 47 49 49 50 52 52 53 54 55 56 57 57 58 58 59 60 60 60 60 60 60 59
41 40 41 41 43 40 38 38 39 36 38 37 35 35 35 37 38 47 45 44 42 41 42 44 43 44 47 50 51 52 52 54 56 57 58 58 59 60 60 59 59 59 59
39 40 41 41 38 36 37 36 37 36 36 36 35 36 34 35 42 45 43 41 41 40 40 41 41 40 39 39 42 47 50 52 52 53 56 57 58 58 58 59 58 57 58
39 39 38 38 37 36 36 36 34 36 37 39 36 34 34 34 42 44 42 41 40 39 38 38 37 36 34 35 40 41 45 49 52 51 52 54 56 56 57 57 58 57 57
36 37 38 38 37 36 37 38 37 36 35 41 37 34 35 36 39 40 41 40 39 40 39 38 37 36 32 34 40 43 42 44 48 52 53 52 53 55 56 55 55 57 57
36 37 38 38 37 36 38 38 38 35 38 40 39 38 34 34 36 34 36 38 36 38 36 35 37 38 34 35 40 39 45 46 44 46 48 53 53 53 55 54 52 53 54
36 36 37 37 37 37 37 38 38 36 37 37 38 37 33 32 34 34 32 33 33 35 34 35 36 37 35 36 36 41 44 47 46 45 45 47 51 52 52 51 50 50 52
34 35 36 37 36 37 38 38 36 35 36 31 35 33 34 33 31 30 31 31 33 33 34 35 36 37 36 37 36 39 42 47 47 45 46 46 48 49 50 48 46 47 49
35 35 36 36 36 36 36 35 32 31 32 30 32 33 34 33 33 31 27 27 28 31 34 32 36 37 36 36 36 39 38 40 47 45 47 47 47 46 45 44 44 46 46
35 36 36 36 36 35 34 33 31 31 30 30 31 31 31 29 29 30 27 27 26 29 26 32 34 35 36 36 36 35 37 40 46 45 46 47 46 45 45 47 47 48 50
35 37 36 36 35 34 33 31 28 28 27 25 25 25 29 28 32 31 29 26 24 25 27 27 29 31 34 33 34 35 38 40 44 44 44 46 46 45 43 43 43 45 48
34 37 35 32 32 33 31 32 29 27 28 26 25 26 28 29 29 27 27 24 18 18 20 21 27 29 32 33 35 34 36 40 36 40 44 44 45 45 43 38 37 38 43
36 36 32 34 35 35 31 30 28 26 27 26 27 28 28 29 26 23 26 23 22 17 15 18 24 29 31 33 31 30 32 37 38 41 39 38 40 44 44 42 41 37 37
35 35 34 34 32 29 29 28 27 26 27 28 29 27 22 23 22 22 21 20 20 19 16 20 21 27 30 31 27 29 30 33 36 39 36 37 38 41 43 44 43 40 36
34 33 31 32 30 28 30 25 24 24 27 27 22 20 19 20 19 20 18 18 18 19 18 18 21 23 24 29 25 29 29 28 30 32 34 37 38 38 41 41 40 41 35
30 30 31 32 32 28 25 23 23 25 23 20 18 19 18 18 17 17 17 17 18 19 20 21 22 23 24 26 23 26 29 25 26 29 34 36 37 38 38 40 38 37 34
29 30 32 30 27 23 22 23 24 23 19 18 19 19 18 18 17 17 17 19 19 23 24 25 24 24 23 25 24 24 25 24 21 26 27 31 35 37 37 38 39 37 30
32 31 28 28 22 20 22 23 21 19 19 20 20 19 19 19 18 18 20 19 21 21 21 22 23 23 23 23 22 21 18 22 18 20 26 25 27 33 35 37 38 35 31
33 31 31 22 19 21 22 20 19 20 20 20 19 20 20 21 23 23 19 19 19 21 21 22 21 21 23 21 17 20 18 18 19 23 25 25 23 24 30 34 36 35 33
30 23 17 19 21 21 24 26 27 27 25 22 23 24 23 21 20 18 18 18 18 19 19 21 20 20 21 24 25 21 18 17 13 24 25 23 25 21 22 27 32 33 34
30 27 21 22 22 27 28 28 27 23 22 21 18 17 17 16 18 19 20 19 20 23 25 24 22 21 23 23 21 21 20 19 17 19 22 21 24 22 22 22 26 30 29
30 23 22 23 24 23 24 25 23 20 19 17 16 17 17 17 18 17 20 23 21 21 21 21 21 23 24 25 22 21 21 20 21 22 26 22 23 21 23 25 26 25 30
27 22 22 21 15 18 21 19 19 19 18 17 17 17 17 17 17 19 20 20 19 19 19 19 19 20 20 21 26 25 22 21 19 19 24 24 22 21 22 22 23 28 28
20 21 19 17 16 15 17 16 17 17 15 17 19 17 17 17 17 18 22 20 19 20 21 23 22 21 21 22 21 21 23 22 22 20 21 22 21 20 19 22 22 23 24

GFSMA_sfc_30mbdewp_006.txt.gz
Dewpoint
58 56 53 49 47 45 44 43 42 40 38 37 40 39 37 37 36 37 37 49 51 51 51 51 51 51 52 54 55 56 57 58 58 57 57 59 60 61 61 61 60 60 60
55 57 48 44 44 43 41 39 37 35 35 35 33 36 36 35 34 38 35 40 46 47 47 47 46 46 47 47 47 50 53 54 56 57 58 57 59 59 60 61 60 59 60
57 49 45 45 42 41 40 38 36 36 35 34 33 33 34 33 33 40 38 35 37 43 44 44 43 42 43 43 44 45 46 48 51 53 55 58 57 59 59 60 60 60 59
48 47 43 43 41 38 37 37 36 34 34 34 33 31 32 30 31 40 38 39 36 35 43 40 40 39 40 41 41 41 43 45 46 49 52 56 57 57 59 59 59 59 59
44 44 42 41 40 38 38 36 34 34 31 32 30 28 29 31 31 32 36 38 39 39 38 39 38 38 36 36 38 39 40 41 42 45 46 48 53 57 57 58 59 58 58
41 40 41 41 37 35 34 34 35 34 34 35 33 30 31 29 30 32 35 36 34 36 35 37 35 33 34 33 34 35 39 39 39 42 44 45 46 50 56 57 57 58 57
38 38 36 36 38 36 38 38 35 33 32 34 30 25 23 21 27 31 33 30 31 34 32 32 32 31 29 31 29 32 36 36 37 37 39 42 44 45 49 54 57 57 55
35 35 38 37 37 36 36 38 36 32 28 32 33 27 19 18 17 27 28 27 28 30 27 26 29 29 28 27 29 33 33 36 38 36 36 38 43 45 46 49 55 57 55
37 36 37 37 37 36 35 36 35 34 30 29 30 28 23 18 20 20 22 20 25 22 24 22 24 24 23 26 26 29 34 35 37 36 35 36 39 43 46 46 52 55 55
39 37 36 37 37 35 35 36 33 33 30 24 24 23 24 24 21 18 18 20 17 17 18 19 24 20 20 19 21 27 35 35 34 34 34 35 38 41 44 46 48 53 54
35 34 34 35 35 34 35 37 35 30 28 27 24 23 22 19 18 15 14 15 15 14 14 15 18 22 20 19 16 19 33 35 35 33 34 37 38 40 42 44 46 51 53
16 19 23 33 37 37 38 35 31 31 28 25 22 20 18 17 16 15 14 13 13 13 14 15 17 17 18 18 17 22 32 34 36 35 36 40 40 41 42 46 48 49 52
17 19 25 29 35 38 35 32 32 32 28 24 21 19 18 18 17 18 16 15 14 14 14 15 15 15 15 18 20 24 23 30 35 36 40 39 38 41 41 45 47 49 50
24 29 34 37 38 35 33 35 34 30 26 23 21 21 21 19 17 18 17 16 15 15 14 14 13 13 14 15 17 22 20 28 33 35 38 39 38 41 42 44 43 43 47
26 31 37 37 37 34 36 32 28 26 24 21 21 20 19 18 17 17 16 16 17 18 14 12 12 14 15 16 17 18 19 22 32 33 36 39 39 39 41 42 42 42 41
28 31 34 36 34 34 31 28 25 22 21 19 18 19 18 17 17 17 16 15 15 14 14 12 12 14 15 15 18 20 19 22 29 30 34 38 38 39 39 42 42 43 44
27 29 32 34 33 29 28 29 23 20 19 19 19 19 19 18 17 17 16 16 15 14 12 12 14 15 16 17 20 20 21 19 24 29 28 32 36 37 39 40 42 43 43
28 29 30 31 30 28 28 23 20 20 19 19 19 19 18 16 18 17 16 16 16 15 15 15 15 16 17 16 16 19 19 17 30 30 30 26 31 35 37 38 39 38 38
30 31 30 30 28 26 23 20 21 21 21 21 20 20 19 19 18 17 17 16 17 19 21 19 16 15 15 16 17 19 19 20 24 27 27 26 24 29 33 37 38 38 37
30 30 30 30 29 24 21 22 21 22 21 21 22 21 21 19 18 18 16 16 16 19 20 16 14 14 14 13 16 17 24 23 19 24 18 18 21 24 29 35 38 38 36
30 30 28 25 24 24 21 23 24 24 22 19 18 16 14 16 16 17 17 16 16 15 15 15 14 14 16 13 14 15 20 19 27 31 18 18 19 21 21 32 34 39 37
28 28 29 29 27 23 29 27 20 17 17 16 13 13 13 13 14 16 16 16 16 15 15 17 18 18 15 16 19 20 23 18 16 28 21 15 18 17 19 20 30 36 36
27 26 27 28 27 27 27 23 21 17 17 14 13 12 12 11 14 14 14 15 17 20 19 19 17 15 18 17 16 16 19 23 18 20 24 15 15 16 16 16 24 32 35
25 23 23 26 26 23 21 20 19 18 16 14 14 14 14 14 14 16 15 13 12 12 13 14 16 17 19 22 24 19 18 18 18 17 18 16 14 16 20 20 21 24 31
23 22 24 25 24 20 18 18 18 18 18 17 15 14 14 14 15 16 15 13 11 10 17 17 16 18 20 23 22 19 17 15 19 13 13 16 13 16 18 21 23 23 24
24 21 22 23 18 19 17 17 17 19 19 18 16 11 12 16 16 15 15 14 14 13 14 15 15 16 16 18 21 21 15 16 16 20 14 13 12 13 16 17 22 23 25

GFSMA_sfc_30mbdewp_009.txt.gz
Dewpoint
56 54 55 53 53 47 46 46 44 40 37 36 36 35 36 36 35 34 36 48 50 50 49 48 49 50 50 49 50 51 53 54 56 57 59 59 59 59 60 60 60 60 60
55 53 52 51 47 46 45 42 39 38 37 37 36 36 35 35 35 35 36 42 47 47 47 47 47 47 47 47 46 47 48 49 50 53 54 57 59 59 59 59 60 60 60
57 56 49 48 47 43 40 38 38 37 36 35 35 34 34 32 33 32 36 38 41 46 46 45 44 43 43 45 45 44 45 45 47 49 49 51 55 58 59 59 59 59 60
48 48 47 45 43 42 41 41 39 37 37 34 34 33 32 30 31 33 32 34 36 37 41 41 40 39 38 39 40 41 43 44 43 44 46 48 48 51 55 58 59 59 58
43 43 42 42 43 39 38 38 36 37 36 36 34 33 34 32 32 30 28 33 36 36 37 35 39 38 36 35 35 36 37 39 41 41 43 44 45 47 48 51 56 58 59
42 42 40 42 41 37 38 39 40 39 37 35 32 33 33 26 26 26 29 32 32 31 33 33 32 31 35 33 32 31 34 37 38 39 40 39 40 42 45 48 50 54 58
39 40 39 39 39 38 39 39 39 38 35 31 28 30 28 28 26 22 25 30 30 28 29 30 29 28 28 31 27 31 34 35 38 39 39 38 38 38 40 44 47 50 54
39 38 39 39 38 38 37 37 37 36 31 28 26 27 23 21 19 24 23 23 26 24 25 24 25 24 26 25 25 27 29 36 36 37 36 37 36 37 38 40 43 47 50
40 39 37 37 37 36 32 33 33 34 31 28 26 24 22 20 21 21 20 21 25 23 23 21 21 20 23 22 22 21 26 36 34 33 33 35 36 36 37 39 41 43 47
34 31 29 30 32 34 33 31 31 34 32 27 26 25 25 24 21 19 17 17 18 18 21 20 17 18 19 22 23 24 34 31 32 32 34 34 35 35 36 38 40 42 45
18 17 17 21 27 31 33 33 34 34 31 30 28 26 24 21 18 17 15 15 15 15 16 17 17 17 18 18 20 21 26 35 30 29 34 34 35 35 36 37 38 41 43
17 19 23 26 27 28 34 34 35 33 35 32 27 23 21 18 16 16 16 17 16 15 15 16 18 18 19 19 18 23 28 27 25 25 34 33 37 39 36 37 39 42 44
20 22 28 30 30 31 34 35 36 37 36 31 25 22 20 20 20 19 17 16 15 14 15 17 18 19 16 19 18 23 21 22 25 32 33 32 37 38 36 38 40 40 44
22 25 28 32 32 34 35 35 37 37 35 29 25 24 23 21 20 19 18 16 16 15 15 15 17 17 17 17 19 22 19 23 24 31 34 32 36 40 39 40 41 42 43
22 23 28 31 35 34 36 37 33 30 26 25 23 22 21 20 18 16 16 15 16 18 15 14 15 15 16 18 19 21 22 24 27 26 31 34 38 39 38 38 39 41 43
25 25 26 28 30 32 34 30 27 28 26 23 20 21 21 21 20 17 16 17 16 16 16 15 13 16 17 17 18 21 21 25 24 27 27 30 33 35 36 38 39 42 43
24 24 25 27 27 27 26 27 27 28 22 22 23 23 21 20 19 19 18 17 15 15 16 16 15 15 17 19 18 19 20 21 21 28 28 28 28 31 34 37 38 39 40
25 26 27 27 26 25 24 23 23 21 21 22 22 21 20 20 19 16 17 15 16 16 16 16 18 20 19 18 17 18 19 18 21 19 34 36 31 26 30 34 37 37 39
25 27 27 26 25 28 26 25 21 22 24 25 22 23 22 21 16 16 16 17 16 14 16 20 20 20 17 17 16 16 16 19 19 22 34 34 31 25 26 32 38 38 38
26 27 26 25 25 24 20 20 20 22 23 24 25 20 18 16 15 18 16 15 15 16 15 15 15 14 15 16 18 18 18 21 21 26 32 34 22 21 23 29 36 38 39
26 26 25 27 28 26 22 24 25 24 22 20 19 16 14 15 16 16 15 15 15 14 13 12 14 16 16 19 16 16 20 21 21 23 32 34 29 22 25 29 30 35 36
23 23 23 24 29 27 27 25 19 19 19 17 16 15 14 15 14 15 17 18 16 15 15 15 15 15 15 14 15 19 19 18 17 26 28 30 25 22 19 25 34 35 35
23 23 22 22 27 27 27 23 21 17 20 19 16 14 14 12 14 15 16 15 15 16 19 18 17 17 20 18 21 23 20 20 20 21 29 22 22 21 18 20 25 32 35
22 22 21 22 23 26 23 20 19 19 20 19 16 16 14 14 16 17 15 14 13 11 10 12 16 17 16 16 16 16 17 16 16 17 18 19 20 17 22 22 23 24 32
22 22 21 20 20 24 21 19 17 20 21 19 18 16 14 11 18 16 15 14 12 11 11 14 14 16 19 20 20 20 18 15 18 14 17 22 17 16 20 24 24 24 27
22 22 21 21 22 24 20 18 17 20 20 20 18 16 14 15 17 16 15 15 14 13 10 11 13 16 17 17 20 22 19 18 17 17 18 26 22 16 14 18 23 25 28

GFSMA_sfc_30mbdewp_012.txt.gz
Dewpoint
57 56 55 54 54 52 50 45 44 42 40 40 39 40 39 38 38 39 41 46 47 47 46 47 48 49 48 48 48 48 49 50 51 52 53 55 58 60 60 59 60 59 60
57 56 54 48 49 45 44 44 44 42 41 41 39 40 39 37 38 40 37 45 48 49 48 47 46 45 44 45 46 46 47 47 47 47 49 51 51 53 56 59 59 60 60
54 50 48 50 47 44 43 44 42 40 40 39 39 39 38 37 36 37 38 36 47 48 48 44 42 41 40 40 41 41 41 42 45 45 45 47 48 49 51 53 54 58 59
48 49 47 46 46 44 42 42 42 42 41 40 40 38 39 37 34 34 37 34 36 42 45 43 41 40 39 37 37 38 38 38 39 42 42 43 44 44 46 48 50 53 57
45 46 46 47 44 44 42 43 44 43 42 41 39 34 37 34 34 31 30 30 34 39 37 43 41 38 37 34 34 34 35 37 39 39 40 42 42 42 42 43 46 49 52
44 43 46 43 43 43 42 44 43 44 42 40 33 30 34 34 31 33 32 30 30 31 34 33 33 31 32 29 31 30 34 35 35 39 39 40 40 40 40 40 41 43 47
41 42 43 43 42 42 43 41 41 40 39 37 32 30 30 30 28 30 27 27 27 28 31 33 29 28 27 30 28 28 29 30 36 36 36 36 36 37 39 39 39 40 43
41 40 42 41 42 41 40 41 37 37 37 36 31 30 27 26 27 27 28 27 25 27 28 25 27 25 27 26 24 25 26 30 29 30 31 32 34 36 37 38 38 39 41
38 36 36 37 38 38 38 38 36 37 35 34 33 29 28 26 26 27 23 24 25 25 26 27 23 23 23 24 22 26 28 29 27 28 29 29 32 34 35 37 38 38 40
25 23 25 30 31 34 36 39 35 38 37 33 32 32 30 28 24 21 21 20 21 20 23 25 23 23 22 22 25 26 29 33 30 27 26 27 31 33 34 36 37 38 38
26 25 27 32 33 33 33 37 40 39 38 36 33 30 27 25 23 20 19 19 20 21 21 23 22 23 23 24 24 22 29 27 26 23 23 25 29 31 33 36 36 37 38
25 27 31 33 35 36 37 40 39 38 38 36 34 30 26 22 22 22 21 21 20 20 21 21 22 23 24 21 21 23 26 26 25 23 23 25 31 30 31 37 36 36 38
25 29 29 33 35 37 38 37 38 38 38 37 35 29 27 27 24 23 22 21 20 19 19 20 22 22 19 21 21 25 25 25 28 27 25 25 28 28 30 35 38 38 39
26 26 31 32 34 37 35 37 38 39 38 37 32 31 28 27 25 23 21 19 18 19 20 20 21 20 20 21 21 26 23 25 26 28 29 25 27 28 31 37 38 37 38
25 27 29 30 33 34 36 38 38 36 33 31 29 29 25 26 25 25 22 20 21 19 19 19 18 19 21 20 21 23 22 23 26 26 26 29 29 31 34 36 37 37 38
27 28 28 29 30 33 36 35 33 31 30 31 29 28 29 28 25 24 23 22 21 19 18 18 18 20 22 21 21 22 22 21 22 24 24 27 30 30 30 33 36 37 38
27 27 27 28 28 28 28 29 29 27 30 27 28 28 29 30 25 24 23 22 20 19 18 18 18 20 20 22 22 21 21 19 20 22 25 28 29 32 33 32 34 37 37
27 27 28 28 29 28 28 29 28 26 27 30 31 27 27 25 24 23 21 21 21 19 17 16 18 19 20 20 19 19 19 18 18 20 25 31 31 34 33 32 31 38 39
26 27 28 29 28 27 29 29 27 25 25 28 27 27 26 22 19 20 19 17 17 17 19 18 16 17 18 18 18 19 20 22 21 21 22 26 34 36 34 33 34 38 39
26 28 29 29 27 26 25 25 24 27 27 26 26 24 21 19 17 16 15 16 15 17 16 15 15 14 15 17 19 20 18 19 22 23 26 29 33 36 36 33 34 35 36
27 27 27 28 28 30 28 26 26 23 23 21 21 20 18 16 15 17 15 16 18 17 15 15 15 16 16 16 16 19 21 23 22 23 30 29 30 33 33 31 34 34 35
27 25 25 26 26 30 26 24 20 20 21 21 21 19 18 17 20 18 21 20 19 18 16 16 16 17 17 19 23 23 21 21 21 24 24 25 29 31 34 33 33 34 35
26 25 26 25 24 30 27 23 18 18 20 23 21 19 17 15 18 18 18 16 15 17 18 17 16 18 23 20 18 17 16 17 18 19 18 17 23 24 27 30 32 33 34
25 26 25 24 25 28 26 22 17 18 22 23 20 19 18 17 19 18 17 16 16 15 14 15 14 15 16 17 19 19 19 19 19 19 17 16 20 22 23 25 27 32 33
24 25 25 23 24 26 24 20 17 20 24 22 21 20 18 14 20 18 17 17 16 14 15 12 11 14 18 20 21 21 21 21 19 19 19 20 21 23 23 22 23 27 33
25 25 25 24 23 26 24 21 18 21 22 22 22 19 18 15 17 17 17 17 17 17 15 13 16 18 19 20 21 27 24 22 22 21 19 22 24 26 20 20 25 27 28

GFSMA_sfc_30mbdewp_018.txt.gz
Dewpoint
54 50 47 45 44 44 42 41 40 39 40 39 40 39 38 36 34 35 38 43 49 48 48 50 49 47 46 45 44 44 43 43 43 44 45 45 46 47 47 48 48 50 52
50 49 47 44 43 43 43 42 42 41 41 40 40 40 37 35 33 32 34 36 46 49 49 48 44 43 43 42 42 41 40 40 42 43 42 42 43 43 44 45 46 46 47
49 48 45 45 45 45 43 43 42 42 42 41 40 38 35 35 31 29 29 33 42 50 47 42 40 40 40 41 40 39 39 41 41 39 40 42 42 41 40 41 43 44 45
49 46 45 43 44 45 44 43 42 41 42 41 37 32 35 32 31 28 27 29 29 41 46 44 42 39 38 38 37 38 38 37 37 37 39 40 40 38 39 39 40 41 43
47 46 44 43 44 43 42 41 41 42 41 38 35 31 35 31 30 28 27 28 29 32 33 33 32 32 32 33 33 33 33 33 33 36 36 36 37 37 36 36 38 39 40
46 43 42 42 41 41 40 40 37 37 38 38 33 30 30 31 29 28 26 26 26 28 29 28 29 30 33 30 28 28 28 29 33 32 31 32 33 34 33 34 35 37 38
41 41 41 42 40 39 39 40 38 34 34 35 31 30 30 30 28 26 25 25 23 25 25 25 27 27 27 27 24 23 24 26 28 27 26 28 29 30 30 31 33 34 36
41 37 36 31 33 35 37 37 37 35 38 35 31 30 28 28 27 25 24 24 23 23 23 23 24 24 25 25 28 30 26 24 24 26 27 26 27 27 28 29 30 32 35
27 29 30 30 31 32 30 33 38 37 34 33 32 30 27 26 26 26 23 23 22 22 23 24 25 23 24 24 25 31 34 30 25 24 25 26 26 26 27 27 28 30 33
29 31 31 32 33 35 35 38 39 37 35 32 33 29 28 26 22 20 22 22 23 22 22 23 23 24 26 23 23 26 28 28 26 24 25 25 25 26 26 27 26 29 32
31 31 32 34 34 39 39 38 37 35 35 33 32 31 29 26 24 21 20 21 23 22 23 21 21 24 23 23 22 23 32 32 28 26 25 25 25 25 26 26 26 27 30
30 29 33 33 36 39 38 37 37 37 36 35 34 32 28 24 23 22 21 21 20 21 22 21 22 22 23 24 25 30 27 27 25 25 25 25 25 25 25 25 25 26 28
28 27 30 31 34 38 38 38 37 37 37 36 34 32 30 28 27 25 23 21 20 21 20 22 21 22 24 24 25 26 26 25 24 24 24 24 23 22 22 23 24 26 28
27 30 29 30 32 37 37 38 36 35 37 36 34 34 31 28 28 25 23 22 20 20 21 20 23 23 23 23 24 25 24 22 22 23 23 21 21 22 24 25 26 26 28
28 28 29 29 30 30 35 37 36 35 35 34 31 31 29 28 28 27 25 23 22 19 19 20 19 22 22 21 22 22 21 23 22 21 22 23 23 23 23 25 28 29 30
27 28 28 28 29 29 29 32 32 32 29 31 32 29 29 30 30 28 25 24 23 20 18 20 19 20 21 20 19 21 21 19 20 21 24 23 26 25 26 27 29 29 28
28 27 28 28 28 29 30 29 29 28 29 30 30 29 28 28 26 25 23 22 19 17 15 17 19 19 18 19 18 20 19 19 21 21 21 23 24 27 29 29 31 31 32
28 27 27 27 29 29 30 29 28 29 29 28 29 29 28 27 24 22 20 17 16 16 17 15 16 16 17 17 18 18 19 19 21 22 22 21 24 27 27 30 30 32 33
27 27 26 27 28 30 30 29 29 29 28 29 30 28 26 25 20 20 17 15 16 16 17 17 16 16 16 17 17 19 20 20 23 20 18 17 26 24 25 27 30 33 34
27 26 27 27 29 30 29 28 27 26 26 24 23 22 21 19 16 16 15 15 16 17 17 17 17 17 16 17 18 18 20 22 20 18 17 19 22 20 22 25 31 34 35
28 27 27 28 28 30 30 29 27 25 23 22 22 21 20 20 22 17 16 18 18 18 17 16 17 17 17 17 18 20 22 19 17 17 17 22 19 21 23 23 30 33 35
30 30 29 30 29 29 30 30 27 23 21 20 20 22 18 19 21 22 22 21 18 16 16 17 18 15 16 14 16 16 18 16 16 18 19 19 21 21 22 23 28 29 32
32 31 31 31 29 29 29 30 26 21 19 20 23 20 18 20 20 18 18 18 16 17 16 17 15 16 14 14 16 18 19 19 19 20 21 20 21 20 21 22 25 27 29
29 28 27 28 29 29 30 28 23 20 19 21 23 20 20 19 18 17 17 16 16 16 16 17 17 16 17 19 20 21 23 24 23 22 22 19 20 20 21 23 24 28 29
29 28 27 28 27 29 30 27 20 18 20 22 23 22 21 20 19 21 17 17 17 16 16 17 18 19 20 18 21 23 20 21 18 19 21 22 21 21 21 23 24 27 28
28 28 28 27 28 28 30 26 20 21 20 22 22 22 20 18 21 20 19 19 18 16 16 17 18 17 19 18 19 21 21 20 20 19 21 23 22 22 20 23 24 26 27

GFSMA_sfc_30mbdewp_021.txt.gz
Dewpoint
52 47 45 44 44 43 42 40 40 40 40 40 40 37 35 33 33 35 36 45 49 50 45 50 49 47 46 45 45 43 43 43 45 44 43 44 44 44 43 44 45 46 47
48 46 44 43 43 43 43 42 42 41 41 40 38 36 35 31 29 30 32 40 52 52 49 47 44 43 43 44 42 41 42 43 42 41 42 43 42 41 41 41 41 42 44
49 46 45 45 45 43 43 43 42 42 41 40 35 35 33 29 28 28 28 29 42 49 45 44 41 42 42 42 40 39 41 40 39 39 40 42 42 41 40 39 39 40 41
47 45 43 44 45 44 43 42 42 41 41 37 32 34 32 31 27 27 27 30 32 37 40 37 39 36 36 37 36 36 36 37 36 36 38 38 38 38 37 37 37 38 39
47 43 43 44 43 42 41 40 41 41 39 36 32 34 31 29 27 26 25 27 28 28 27 32 36 36 32 31 31 31 31 32 32 34 35 34 34 34 35 35 35 35 36
45 44 43 42 41 40 39 39 35 36 38 37 31 30 30 29 27 26 24 24 24 24 23 24 28 28 34 28 26 27 27 28 29 31 30 29 30 30 32 32 32 33 33
42 41 42 40 39 38 40 38 37 34 35 34 31 31 30 29 27 25 24 23 23 24 23 24 26 25 25 29 30 29 26 26 26 27 27 28 29 29 29 30 30 31 32
41 40 35 32 33 32 33 36 37 35 37 34 31 30 28 29 28 25 24 23 22 24 23 24 24 23 24 25 29 26 28 26 26 26 26 27 27 28 27 28 29 30 30
31 30 30 31 32 31 31 33 37 36 34 32 32 31 28 26 26 26 23 23 23 23 23 23 22 23 25 23 23 27 27 23 20 22 23 25 26 27 27 27 27 29 29
31 32 32 34 35 35 35 38 38 37 35 32 31 30 28 27 25 23 23 23 24 21 21 23 21 23 24 24 25 26 29 32 28 26 25 26 26 26 27 27 27 28 29
32 32 34 34 37 38 38 36 35 35 34 33 32 31 29 27 24 22 20 21 23 22 22 22 22 23 23 24 23 27 31 29 28 27 27 28 28 27 27 26 27 27 27
30 33 34 35 39 38 37 37 36 35 35 34 34 32 29 26 23 23 22 21 21 21 22 22 22 22 24 24 26 29 28 27 27 26 26 27 27 27 26 25 24 25 27
27 30 30 31 37 39 38 38 37 36 36 34 33 32 31 29 27 25 24 22 21 22 21 22 23 24 24 23 24 25 26 25 24 23 24 24 24 22 22 24 26 27 28
28 30 31 31 38 37 37 38 37 35 36 36 35 34 32 30 28 26 23 22 21 21 21 20 23 23 22 22 22 21 22 23 22 22 23 21 22 23 24 24 25 25 27
29 30 30 31 31 32 35 37 37 35 35 35 33 31 31 29 27 28 26 24 22 24 21 20 19 21 20 20 19 20 21 21 19 19 20 22 23 23 26 25 26 27 27
30 30 30 29 29 29 30 32 34 32 29 29 31 30 29 29 30 29 25 24 24 22 17 20 18 19 20 18 18 19 20 20 21 21 21 23 23 25 25 25 27 27 28
30 29 29 28 28 29 30 29 28 27 28 29 30 30 29 29 29 26 24 22 20 18 15 15 18 18 18 17 17 19 20 20 21 21 23 22 22 21 26 27 28 29 29
29 29 28 28 29 29 30 30 29 29 29 29 29 29 28 28 26 23 22 18 17 16 16 14 16 16 17 16 17 18 18 19 20 23 21 19 17 18 25 25 25 26 29
29 28 27 27 27 29 30 30 29 29 29 29 29 29 28 27 25 22 19 17 16 16 17 17 17 17 17 17 17 18 19 20 22 19 17 17 18 21 21 22 22 24 29
29 28 28 28 28 29 30 30 29 28 28 28 29 29 27 24 20 17 17 16 15 15 17 17 16 16 17 18 18 17 15 17 18 18 18 19 19 22 22 23 23 24 29
28 28 28 29 30 30 29 29 28 27 27 26 24 23 21 21 20 18 16 15 17 18 17 15 15 17 16 16 15 14 16 17 19 19 19 20 21 22 22 23 23 24 29
30 30 32 32 31 31 30 30 29 27 26 23 21 22 21 22 22 23 22 22 19 16 15 15 15 14 15 15 15 16 18 18 17 20 20 21 22 21 22 23 24 24 26
36 36 33 30 28 30 30 30 32 27 24 22 21 22 21 18 20 22 23 21 19 18 17 16 14 15 16 15 17 18 19 20 20 21 22 19 20 20 21 21 23 25 26
35 33 31 29 29 29 29 30 31 25 22 21 22 22 20 19 20 19 17 16 16 17 16 16 17 18 18 19 19 20 23 22 22 21 21 19 20 20 22 22 24 28 29
35 31 29 28 28 28 29 31 28 22 21 20 23 22 21 21 21 23 19 17 17 18 17 17 18 19 20 20 19 18 18 19 17 17 19 21 21 21 23 22 24 26 28
30 29 29 29 29 28 29 31 26 22 21 21 23 23 25 22 21 23 21 18 19 19 17 16 18 19 19 19 19 18 20 18 17 16 21 21 20 23 21 21 24 22 25

GFSMA_sfc_30mbdewp_024.txt.gz
Dewpoint
51 46 45 44 43 42 40 40 41 41 40 39 36 34 31 30 31 34 40 54 53 51 46 52 48 47 46 45 44 43 43 45 43 42 44 44 43 43 43 42 41 41 41
46 44 43 43 42 42 42 42 41 41 40 38 35 32 29 28 27 29 36 47 49 49 47 46 44 44 45 44 41 40 43 41 40 40 40 43 43 42 41 40 39 39 39
46 44 44 43 43 43 43 42 42 42 40 35 35 32 29 28 27 28 31 37 43 45 45 44 44 43 42 41 40 39 39 38 38 36 37 40 39 39 38 38 38 38 38
46 45 44 44 44 43 42 42 41 41 38 34 33 32 29 27 26 28 30 30 29 28 36 39 37 35 31 32 33 32 33 33 33 33 36 37 35 34 34 36 36 36 36
45 43 44 44 43 41 41 41 41 40 36 35 33 31 29 27 26 25 25 25 25 24 24 33 35 37 33 32 31 30 30 30 31 31 34 32 31 31 32 31 33 33 34
44 44 44 43 42 40 39 36 35 37 38 35 31 30 29 28 26 24 24 24 23 23 23 25 26 27 32 31 30 29 28 29 29 30 29 30 30 30 29 30 30 30 31
44 43 42 40 39 38 39 37 36 34 35 34 32 30 29 29 25 25 24 23 23 23 24 24 23 23 25 30 30 27 27 27 26 27 27 28 27 28 28 29 29 30 30
42 42 38 37 37 35 34 37 36 36 35 33 32 31 29 29 28 24 24 24 23 24 24 24 23 23 25 23 28 27 26 25 24 23 24 24 25 26 27 28 28 28 29
36 32 31 31 31 31 31 34 36 35 33 31 32 31 29 27 27 27 24 24 24 23 23 23 22 23 25 24 25 27 28 28 25 25 24 23 24 25 27 28 28 28 29
31 32 33 33 34 35 37 37 38 37 35 32 31 30 29 28 27 25 23 23 24 23 21 23 21 22 24 24 26 27 32 32 31 29 27 26 26 27 27 27 27 28 29
32 34 34 36 37 37 36 36 35 34 34 33 32 31 29 28 25 24 21 21 22 23 22 23 23 23 24 25 25 31 30 30 29 29 28 29 29 28 28 28 28 27 27
33 34 35 37 38 37 37 36 35 33 33 33 33 32 29 27 25 23 22 22 22 22 22 23 23 24 25 24 24 27 27 27 28 26 27 27 28 27 27 26 25 25 26
32 32 34 36 37 38 38 37 36 35 35 33 33 32 31 29 27 26 24 24 22 22 22 22 23 24 23 22 24 23 22 24 23 24 24 24 25 25 24 24 25 26 26
30 31 31 33 37 39 38 38 37 36 36 36 34 34 32 31 30 27 25 23 22 22 21 22 23 23 21 20 20 19 20 22 21 21 21 22 22 23 24 25 25 26 27
31 33 31 32 38 37 37 37 37 36 35 35 35 34 32 32 29 27 26 25 23 23 24 22 21 22 20 19 19 20 20 20 21 21 21 21 22 23 23 25 26 25 26
32 31 31 31 31 32 33 36 36 36 34 34 33 32 30 29 28 30 28 26 25 23 21 20 19 19 18 18 18 18 19 21 21 22 22 22 23 23 23 23 23 24 25
31 31 30 31 30 30 31 30 31 30 28 27 29 30 30 30 30 30 26 24 22 20 18 16 18 18 18 17 17 18 19 20 20 21 22 22 22 21 20 20 21 27 26
32 31 30 30 30 30 30 30 29 28 28 28 28 30 29 29 28 26 25 22 20 18 16 14 16 16 17 17 17 18 18 18 20 20 21 19 19 20 20 21 22 24 24
31 30 30 29 29 29 30 31 31 29 29 29 29 29 28 28 27 26 23 21 18 17 17 17 16 18 17 16 17 18 19 18 18 18 18 19 20 22 22 23 23 23 23
30 29 29 29 29 30 31 30 30 30 29 29 29 29 29 28 27 24 21 19 17 16 16 17 17 16 15 16 18 17 14 16 17 18 20 20 21 22 23 23 24 24 24
30 29 30 29 33 35 30 30 30 29 29 28 29 29 28 26 25 21 17 17 16 15 17 17 15 14 14 14 15 15 16 17 18 19 19 20 21 22 23 23 23 24 25
30 29 31 37 38 33 31 31 31 30 28 27 26 24 22 24 25 26 26 21 17 18 16 15 14 13 12 15 16 16 18 17 15 20 21 20 20 21 22 23 23 24 25
36 37 38 38 33 31 30 30 31 32 29 27 25 23 22 21 21 21 24 25 24 22 19 17 15 14 14 16 17 18 18 19 18 19 21 18 19 19 20 21 23 25 30
38 38 38 35 31 29 29 29 29 31 29 27 24 22 22 21 20 20 21 21 19 17 17 18 16 15 17 18 20 20 19 19 19 18 18 17 19 20 21 22 24 25 26
38 37 36 31 31 30 29 29 30 30 27 25 23 23 23 21 21 24 20 18 17 17 19 20 19 20 21 21 21 21 16 16 15 15 16 18 19 19 20 22 24 25 25
36 33 32 31 29 28 29 30 31 28 25 23 22 23 25 22 23 24 24 21 18 17 19 18 16 18 21 20 21 19 17 16 16 13 19 19 17 20 18 22 23 22 23

GFSMA_sfc_30mbdewp_027.txt.gz
Dewpoint
51 47 47 45 44 44 43 43 43 42 41 39 37 35 34 35 37 38 46 52 53 50 51 51 48 48 46 44 43 43 45 42 41 40 42 45 43 42 41 40 39 39 39
49 47 46 44 44 43 44 43 42 41 39 38 35 33 32 31 34 40 44 48 50 49 47 46 45 46 46 43 41 41 42 40 39 38 37 41 40 39 38 38 37 37 37
49 47 45 45 45 45 45 44 44 42 38 36 34 32 31 31 32 37 42 43 41 45 46 45 43 40 40 39 37 35 35 35 35 35 35 38 37 36 35 35 34 35 36
48 47 46 46 45 45 44 44 43 40 39 36 34 31 30 29 32 32 34 35 34 34 38 39 39 36 35 34 34 33 33 33 33 33 34 36 34 32 33 32 31 32 32
48 47 46 46 46 44 44 42 42 41 39 36 33 31 30 28 29 27 28 28 28 26 26 34 37 37 34 33 32 30 30 31 32 32 32 32 32 33 32 31 30 30 30
47 47 46 46 43 42 41 39 39 40 39 35 30 30 30 28 27 27 26 24 26 27 25 26 23 26 32 30 28 27 28 29 30 30 31 31 31 31 29 29 29 30 31
46 46 44 44 42 41 40 40 38 38 36 37 33 31 30 30 28 25 26 25 25 25 26 24 22 21 22 28 29 27 25 26 26 27 27 27 28 28 28 28 29 30 30
45 45 43 42 41 40 40 40 39 37 35 37 33 33 30 30 29 26 26 25 27 25 24 24 25 25 24 21 27 28 27 25 24 25 25 27 27 27 27 27 29 29 30
44 42 41 39 37 34 34 38 39 37 33 34 36 30 28 25 30 30 27 26 28 26 25 25 25 24 25 24 25 25 29 32 30 27 27 27 27 27 28 28 29 29 29
39 35 34 35 35 35 36 38 39 38 36 33 33 31 33 32 25 23 27 27 27 26 26 25 24 24 25 24 26 29 32 32 31 31 29 28 28 27 27 27 28 28 31
35 33 36 37 37 37 39 40 39 38 38 36 33 33 33 30 30 25 19 22 24 25 26 25 25 25 26 26 24 26 28 29 28 30 30 29 28 27 27 27 27 27 28
35 35 36 37 38 38 40 40 40 37 35 34 32 32 27 25 24 24 23 23 24 24 26 25 26 26 26 25 23 25 24 24 25 24 25 25 26 26 26 26 26 26 26
36 36 38 38 38 39 40 39 38 36 36 33 33 31 31 29 29 28 27 23 24 24 24 25 25 26 24 24 23 21 19 21 21 22 22 22 24 24 25 25 26 26 26
37 37 37 37 39 41 40 39 37 37 38 36 35 34 33 33 32 30 28 26 23 22 23 25 26 25 24 23 20 20 17 17 20 20 22 23 23 23 24 24 24 25 26
36 37 35 35 39 40 40 40 38 38 38 38 37 37 36 35 34 32 31 28 25 23 19 19 22 23 22 20 17 19 16 14 20 21 22 22 23 23 23 23 24 24 24
34 35 34 36 38 39 39 39 38 38 37 37 36 35 35 33 32 31 28 29 29 26 20 18 18 20 19 16 16 18 13 17 17 20 22 21 22 23 23 23 23 22 23
36 35 33 35 35 34 34 34 34 35 36 35 33 31 31 32 31 31 31 30 27 25 20 17 18 18 18 17 17 13 12 14 15 16 18 20 21 22 21 21 21 22 22
36 33 34 32 31 31 32 31 32 30 32 30 30 31 30 30 31 31 30 28 26 24 21 16 16 16 16 17 15 13 12 14 15 14 17 20 21 22 22 23 23 23 23
34 33 32 30 31 31 31 33 33 32 31 31 30 30 30 31 30 29 28 27 25 22 20 18 16 16 17 15 13 10 13 14 13 14 15 17 20 21 22 23 24 24 25
33 32 31 30 32 32 33 36 35 32 32 32 32 31 31 31 29 29 28 26 23 20 18 17 16 15 14 13 12 11 11 12 12 14 17 19 19 20 21 23 24 25 25
32 32 32 32 35 37 39 39 35 32 32 31 32 32 31 31 30 29 26 24 20 19 18 17 15 14 12 11 8 12 13 13 13 14 16 16 16 17 18 20 21 22 25
32 31 32 37 40 40 39 37 33 31 31 31 30 31 30 31 31 30 26 22 20 19 18 17 14 13 13 11 12 14 15 14 11 13 15 14 15 16 18 19 19 22 25
34 37 40 39 38 40 36 32 31 30 31 30 30 30 28 25 27 25 27 27 25 21 20 18 16 15 15 11 13 14 14 14 13 13 14 13 14 15 16 16 19 23 25
40 39 38 38 38 35 32 34 31 30 30 30 30 30 29 26 24 24 22 22 23 23 22 20 18 17 15 13 16 17 17 17 14 13 12 11 14 16 17 19 21 24 26
39 38 38 38 34 35 37 31 30 30 30 29 29 28 28 27 25 24 22 22 21 19 19 20 20 22 19 20 22 20 17 14 14 12 12 14 14 15 17 19 21 22 25
38 38 36 35 36 36 32 30 30 30 30 30 29 27 26 25 25 25 24 23 21 18 17 17 18 19 20 19 22 22 18 16 14 13 10 14 14 16 15 16 19 22 24

GFSMA_sfc_30mbdewp_030.txt.gz
Dewpoint
53 51 50 47 46 45 45 45 44 42 42 41 40 38 36 36 35 34 39 52 52 51 53 51 50 48 46 44 43 45 43 41 40 39 39 42 41 40 38 38 38 38 38
53 50 48 46 45 45 45 43 42 41 40 39 39 37 35 34 34 35 35 44 49 49 48 47 47 49 46 43 41 41 39 38 37 37 37 37 40 38 37 36 36 35 36
52 50 47 47 46 46 45 45 43 42 39 37 36 34 33 33 32 35 34 34 41 46 44 43 42 39 39 38 37 36 35 36 35 36 35 36 38 36 34 35 33 33 33
52 50 49 48 46 45 43 43 42 40 38 34 33 30 31 30 32 32 32 33 32 32 40 39 39 37 36 36 35 33 33 33 33 34 34 34 35 34 34 34 33 32 32
51 50 48 48 47 44 44 43 42 38 35 32 31 30 31 29 31 27 29 30 29 27 26 33 35 35 34 31 29 27 29 31 32 33 34 34 35 35 34 34 32 31 31
50 50 49 49 45 43 43 42 38 35 33 31 25 29 31 30 30 30 29 27 28 29 28 27 25 27 30 30 27 26 28 29 30 30 30 30 30 31 31 31 30 30 31
50 50 48 47 44 42 41 41 36 35 33 33 32 33 32 33 32 29 29 28 28 28 28 25 25 22 23 24 27 28 26 26 27 28 28 29 29 29 30 30 30 29 30
50 49 47 45 43 43 41 38 35 31 31 34 35 34 34 33 31 31 28 28 30 28 25 26 26 24 23 21 25 25 28 28 28 29 29 29 29 30 29 29 30 31 31
50 48 47 44 44 41 37 36 35 32 33 35 37 35 32 27 28 29 31 29 29 28 26 25 26 25 24 24 25 24 32 32 31 30 30 29 29 29 28 29 29 29 30
49 46 45 44 42 35 32 32 33 36 36 36 35 34 33 28 21 21 29 29 30 27 27 27 25 25 25 25 26 29 31 31 31 30 29 28 28 28 28 28 28 28 29
47 44 42 40 37 33 33 32 37 39 39 35 34 34 31 28 27 24 22 19 22 24 24 25 26 25 24 25 26 27 27 27 26 25 24 24 25 26 26 27 27 27 27
43 41 39 38 36 33 36 40 42 41 38 35 33 29 25 26 26 25 22 20 20 22 23 24 24 24 25 25 25 25 25 23 22 23 22 22 23 25 26 26 26 26 26
41 41 39 38 38 38 41 41 42 41 36 35 31 28 30 28 25 23 23 21 21 22 22 24 24 24 23 23 22 24 23 21 20 21 22 22 24 25 25 26 26 26 26
42 41 40 41 37 41 41 42 43 38 37 34 34 34 29 29 28 27 25 23 22 19 19 20 23 24 23 22 22 24 20 20 19 18 21 23 23 24 24 25 25 25 25
42 42 43 40 39 42 42 44 40 37 35 36 36 35 32 28 30 29 28 25 23 21 18 18 18 20 22 22 20 18 19 19 18 19 20 22 23 23 23 24 24 24 25
42 41 40 38 41 42 44 41 37 36 35 36 35 32 31 28 27 28 25 24 24 23 21 20 18 19 20 20 19 17 18 16 16 17 17 19 20 21 22 23 23 23 23
43 40 39 41 41 42 39 37 35 31 36 34 34 31 29 27 25 25 25 25 24 24 21 20 18 17 20 20 18 17 16 13 11 15 16 17 19 20 22 23 23 23 23
41 39 41 39 35 36 34 33 30 31 33 35 31 30 27 25 27 28 27 26 25 24 22 20 20 18 18 18 17 17 13 10 12 13 15 17 18 19 22 23 23 24 24
41 41 38 33 33 32 30 32 33 36 39 35 30 28 28 28 28 28 28 26 24 23 23 21 20 19 18 15 15 14 12 12 11 11 13 16 16 19 20 22 23 24 25
41 37 35 33 33 30 29 34 39 40 39 34 31 31 30 29 28 29 28 27 26 25 24 21 19 17 15 13 13 11 7 10 10 11 13 16 18 19 21 20 22 23 24
38 35 34 34 33 33 38 41 40 39 36 32 32 31 31 31 31 30 28 27 27 25 24 20 18 16 12 10 10 10 9 11 12 12 11 13 13 13 14 17 20 21 21
34 34 33 36 38 40 40 40 39 38 35 32 31 30 29 31 32 33 32 30 27 26 24 21 19 15 12 12 12 10 11 12 10 11 12 12 13 12 13 15 18 20 21
35 34 37 37 38 38 40 38 36 34 36 35 32 30 28 26 28 30 32 31 27 22 22 22 20 16 14 14 14 10 11 12 12 13 11 10 12 11 13 13 19 22 23
38 38 39 37 36 37 39 35 37 37 37 31 29 27 26 26 26 27 29 28 26 26 24 20 20 17 15 16 14 12 15 16 15 13 11 10 11 12 14 16 19 22 24
37 37 37 37 37 39 36 37 38 33 29 28 27 27 26 26 27 29 27 27 27 26 24 25 24 22 21 20 18 15 17 15 16 12 10 11 11 12 14 16 19 21 23
38 38 38 37 37 37 37 36 32 31 29 28 28 27 27 28 28 29 27 27 27 26 23 19 19 21 22 21 23 20 17 16 15 14 11 12 12 12 13 15 18 19 22

GFSMA_sfc_30mbdewp_033.txt.gz
Dewpoint
53 51 51 50 49 49 48 47 47 43 43 41 39 37 34 35 34 32 45 52 53 51 54 52 50 49 46 44 45 44 43 41 40 39 38 38 41 40 39 38 38 37 36
53 51 52 49 48 48 47 46 43 42 39 39 39 34 33 32 33 34 37 46 50 50 49 49 50 49 46 43 42 40 38 37 38 38 38 37 40 40 38 36 36 35 35
54 52 51 49 48 48 47 45 43 41 39 35 35 34 33 32 33 34 32 37 44 47 46 45 42 41 40 39 38 37 36 36 35 36 36 36 36 37 36 36 36 35 34
55 53 50 50 49 48 46 43 42 40 38 35 33 31 32 32 33 33 32 33 32 38 43 41 39 38 37 35 33 32 31 33 34 35 36 37 37 38 38 37 38 36 33
54 53 51 50 50 47 45 43 42 39 37 33 33 33 33 33 33 28 31 32 31 27 30 36 34 33 31 30 29 28 31 32 32 33 33 33 33 33 33 34 34 34 32
54 54 51 50 50 47 45 43 42 36 35 34 28 30 35 35 33 33 32 30 29 31 30 29 30 31 31 28 25 26 29 29 30 30 31 31 32 32 32 32 32 32 32
54 53 51 52 50 46 44 44 40 38 34 34 35 37 37 37 36 33 32 30 29 29 30 29 28 25 27 27 27 27 25 26 28 29 31 31 32 32 32 32 32 32 32
53 53 52 51 49 45 44 43 38 35 34 36 37 38 38 37 35 35 32 30 30 31 29 28 28 27 26 24 29 25 27 29 31 32 32 32 32 31 31 30 30 30 30
54 52 52 50 48 45 45 43 39 35 33 37 39 39 36 34 31 33 34 32 30 32 31 28 28 27 27 26 26 28 32 32 32 31 30 30 29 28 29 29 29 29 29
55 52 51 51 48 46 43 42 38 35 37 36 40 39 38 37 29 26 31 32 33 32 31 29 28 27 27 27 26 32 32 31 29 28 27 26 25 26 27 27 28 28 28
55 53 50 50 48 46 40 39 35 37 40 42 40 40 38 34 32 29 27 27 30 28 26 26 27 28 27 25 26 32 29 26 26 26 25 25 25 25 25 26 27 27 27
53 52 48 48 47 42 38 37 39 42 43 42 42 40 33 29 29 30 29 27 24 23 24 25 26 25 25 25 26 27 26 26 26 24 23 24 24 24 25 26 27 27 26
49 48 47 46 45 42 44 45 43 45 45 44 42 37 30 32 32 27 25 24 23 24 24 24 25 25 24 24 24 24 24 25 26 23 22 22 22 23 25 25 26 26 26
48 50 49 47 43 43 44 45 45 44 45 44 40 34 35 33 30 28 27 25 25 23 21 20 22 22 24 23 24 23 23 24 24 24 22 22 22 23 25 25 25 25 25
50 49 46 44 43 43 45 45 45 45 44 42 37 37 37 34 30 30 30 27 24 22 21 20 19 20 20 22 22 22 21 21 24 23 22 20 20 22 23 23 24 25 25
48 45 44 43 42 44 45 45 45 45 42 37 38 39 37 34 31 28 27 25 24 23 21 21 20 21 20 19 20 21 21 23 21 23 23 22 19 20 21 22 23 24 24
47 45 45 44 43 43 43 43 45 40 36 36 37 38 36 34 31 27 25 25 24 23 23 22 21 22 21 20 20 22 21 19 18 16 21 21 20 19 20 21 22 24 24
50 48 45 43 43 41 42 42 40 35 34 36 42 40 37 32 29 28 27 27 26 27 25 24 23 22 22 21 22 20 18 17 14 13 19 18 18 19 20 21 22 23 23
49 44 42 42 41 41 40 41 37 32 39 41 40 39 34 32 30 29 29 29 29 28 26 25 24 23 21 21 19 18 16 14 14 13 16 20 21 21 20 22 22 23 24
42 41 42 41 40 38 36 33 37 40 41 41 41 39 34 32 31 31 31 31 30 30 30 27 25 23 20 19 17 14 14 14 10 9 13 15 16 16 21 23 24 24 24
44 42 39 38 36 35 35 36 40 41 40 40 40 36 34 34 32 32 31 32 31 30 29 27 26 22 19 18 15 13 12 12 11 14 14 12 13 14 15 16 17 23 24
40 37 36 35 35 36 41 40 40 38 39 39 38 36 36 35 34 32 31 32 32 32 31 29 27 24 20 19 17 15 13 12 9 13 14 14 14 13 14 15 17 16 22
36 36 36 37 37 40 39 39 38 37 37 37 38 39 37 33 30 28 27 31 32 32 32 30 29 28 24 21 18 16 15 12 11 13 15 14 14 13 14 12 19 22 23
35 35 35 34 35 36 38 38 37 37 38 38 39 35 29 28 27 27 27 27 29 31 33 29 25 28 27 22 18 16 16 13 15 16 16 13 13 13 14 16 17 21 24
37 37 36 35 36 37 39 37 37 38 35 32 30 28 27 27 28 27 28 29 29 29 29 29 27 26 22 19 18 18 16 13 18 14 15 13 12 13 15 16 18 28 25
39 38 39 39 38 38 37 37 35 31 30 30 29 29 29 29 29 28 29 30 30 29 29 30 29 26 24 23 23 19 17 17 17 17 15 14 13 12 12 15 16 19 21

GFSMA_sfc_30mbdewp_036.txt.gz
Dewpoint
57 56 55 53 51 51 50 51 48 46 44 43 41 38 37 37 36 47 52 52 53 55 54 52 51 49 46 45 46 44 42 40 39 39 39 39 39 40 39 38 38 37 36
56 56 55 54 53 51 51 50 48 44 45 42 39 36 36 36 35 44 47 52 51 52 52 52 51 49 46 44 42 39 39 39 38 38 38 38 37 38 38 38 37 38 37
54 56 53 53 53 51 51 48 45 44 41 39 38 36 36 34 35 36 46 48 50 49 48 46 45 43 42 41 40 38 36 36 36 36 37 38 39 39 40 40 40 40 37
56 57 55 53 51 51 49 46 45 43 41 39 37 36 35 35 35 34 35 41 46 46 47 45 42 41 39 36 34 32 32 34 35 35 36 36 35 35 35 36 36 37 37
56 56 55 53 52 50 50 47 46 44 40 37 37 36 36 37 36 34 33 33 32 41 42 41 38 35 32 31 29 28 31 32 33 33 32 33 33 34 34 34 34 34 34
57 56 56 54 51 51 49 46 45 41 41 38 34 34 38 38 37 36 34 33 34 32 34 35 36 34 33 31 28 27 28 29 30 30 31 33 33 34 34 34 33 33 33
57 56 56 54 52 51 49 48 45 39 37 37 36 37 38 39 38 37 36 34 33 32 32 31 30 32 32 30 28 28 27 25 28 31 33 34 33 33 32 32 32 32 31
56 56 56 54 53 52 50 48 44 41 40 39 40 41 40 40 39 39 37 34 33 32 32 32 30 29 29 30 30 30 27 29 31 32 32 32 31 30 30 30 30 30 30
57 55 55 55 54 53 50 48 45 42 39 40 41 40 39 38 37 39 38 35 35 34 34 33 31 30 29 28 33 32 31 33 32 31 31 30 28 28 28 28 28 29 29
58 56 55 55 54 51 50 49 46 42 40 40 42 42 40 40 36 31 37 36 36 35 35 33 31 31 30 31 30 35 35 33 30 28 29 28 27 28 27 27 28 28 29
58 57 56 54 53 51 48 47 44 41 41 43 42 43 44 45 39 34 31 33 35 34 35 36 32 31 30 28 31 35 34 30 27 27 27 26 26 27 26 26 27 28 28
58 57 54 54 50 48 48 48 48 43 45 44 45 44 45 43 35 34 33 32 32 32 32 32 33 29 29 30 30 33 31 29 28 27 25 24 25 25 25 26 27 27 27
55 54 49 48 49 50 50 49 46 45 46 44 46 47 47 40 34 34 30 28 27 28 28 30 30 29 28 29 32 33 31 27 26 27 24 24 24 23 23 25 27 27 27
53 51 50 49 50 49 47 46 45 45 45 45 46 46 44 39 35 33 30 29 28 29 28 27 28 31 29 29 30 27 25 28 27 26 25 24 24 21 22 23 25 25 25
51 50 51 51 49 47 45 45 45 45 46 46 46 45 40 39 37 35 33 32 30 28 27 26 25 26 27 27 28 28 25 24 24 25 24 25 24 21 21 22 22 21 24
50 51 51 49 46 44 46 45 45 46 46 45 44 40 40 39 38 38 32 31 31 29 27 27 25 26 27 22 26 24 25 26 25 24 26 26 27 22 21 21 20 21 23
52 50 49 47 44 44 45 44 44 44 44 43 40 41 40 41 40 37 33 31 29 28 25 26 27 26 26 26 23 26 26 25 23 22 23 24 25 24 23 22 21 22 23
52 49 47 45 44 45 44 43 43 42 42 40 41 40 40 40 40 38 34 30 29 30 28 27 28 27 26 26 25 24 24 20 19 20 18 20 26 26 24 24 23 24 24
52 50 47 45 44 43 42 42 43 43 41 41 41 40 39 41 39 37 34 32 31 31 31 30 29 28 27 27 24 24 23 21 21 18 19 22 24 24 24 25 25 26 26
44 44 44 43 43 43 42 42 43 42 41 41 40 39 40 41 37 35 34 33 32 32 32 32 31 30 29 27 25 21 20 20 17 15 12 15 16 21 24 26 26 27 27
43 42 42 42 42 41 41 40 40 41 39 38 39 40 40 39 37 36 34 33 33 33 33 33 32 31 30 27 22 21 19 17 17 17 16 17 18 18 17 18 21 22 22
44 42 41 40 39 38 36 40 40 39 38 39 39 39 39 39 39 38 36 35 33 32 31 31 31 31 30 29 26 22 19 16 15 17 14 17 18 17 19 18 19 18 20
39 38 38 38 39 39 39 39 38 38 38 37 37 38 38 38 38 36 34 32 31 32 32 31 30 31 30 31 30 24 19 18 17 17 17 15 18 18 19 15 18 19 24
37 37 37 37 38 39 39 38 37 38 38 38 38 38 38 38 33 31 31 29 29 29 30 31 32 32 32 31 32 25 22 20 19 17 17 15 18 18 18 17 19 19 25
37 37 36 36 36 38 38 38 38 38 37 35 33 32 32 31 32 33 31 32 32 32 30 30 30 32 32 30 28 25 21 17 15 16 17 16 17 17 17 17 17 19 25
37 37 39 39 38 39 38 34 33 32 31 29 28 28 28 28 28 28 27 25 25 27 31 33 33 31 30 26 24 23 24 18 18 16 18 17 18 15 13 15 18 18 20

GFSMA_sfc_30mbdewp_039.txt.gz
Dewpoint
55 55 54 49 48 48 44 49 46 45 43 42 40 37 36 42 45 49 52 51 54 55 54 53 51 49 47 47 45 43 41 40 40 40 39 39 39 40 40 39 38 39 39
56 55 56 51 50 50 51 49 46 45 43 40 36 36 36 37 46 48 51 53 56 56 54 53 51 49 46 45 43 40 40 39 39 38 38 39 41 41 41 41 40 39 39
57 57 57 54 53 51 50 50 48 46 43 40 35 36 34 35 39 45 48 51 52 53 53 52 50 48 45 42 41 39 36 36 37 37 38 38 37 37 37 38 38 38 38
55 55 53 53 53 52 49 45 45 42 39 37 36 36 37 35 34 41 46 48 48 49 49 48 46 45 43 41 37 34 34 35 35 36 35 35 35 36 36 36 36 36 35
55 56 54 55 53 50 48 46 45 43 41 39 37 37 36 36 35 35 38 45 46 46 45 46 45 43 38 34 31 30 31 33 33 33 33 34 35 36 35 35 35 35 34
57 56 55 55 52 50 49 48 45 45 40 37 36 35 35 36 37 35 33 35 39 43 42 41 40 38 35 33 30 29 30 30 30 31 34 35 35 34 34 33 33 33 33
58 57 56 55 51 50 49 47 46 40 38 39 36 36 37 38 37 37 35 33 34 36 36 34 35 33 36 33 30 30 30 28 29 32 33 33 32 32 31 31 31 31 32
59 57 56 53 51 51 51 48 44 40 38 37 35 41 39 39 39 38 38 36 34 33 33 32 32 33 31 32 31 32 31 29 32 32 32 32 31 30 30 30 30 31 31
54 57 56 54 52 52 51 49 44 40 38 41 40 40 38 38 38 39 39 37 34 33 33 33 32 30 31 31 33 34 31 32 33 32 32 31 30 29 29 30 30 30 30
56 57 57 55 54 53 52 49 46 43 41 38 42 42 42 40 37 35 37 37 35 34 34 34 33 31 30 30 34 35 35 35 33 32 30 30 30 29 29 29 29 29 30
58 58 57 56 54 53 51 49 46 44 45 45 44 42 44 45 42 39 35 33 37 36 35 35 34 33 31 32 34 37 38 36 33 30 29 29 28 28 28 28 27 28 29
58 58 57 56 54 49 49 48 47 46 48 47 45 45 44 44 43 41 37 34 32 34 35 36 36 33 32 30 36 38 38 35 32 30 29 27 26 26 26 26 26 28 28
58 58 56 54 51 49 48 49 49 47 46 46 45 46 48 47 46 42 38 31 28 29 29 32 35 33 30 30 35 39 38 34 32 31 29 26 26 25 24 23 24 26 26
58 57 53 51 50 51 50 49 48 46 46 45 45 47 47 47 46 37 32 31 30 29 29 28 31 32 31 30 35 38 36 33 33 32 30 27 26 25 24 22 22 23 23
56 54 51 49 49 49 49 47 46 46 45 45 45 46 46 45 41 38 36 34 31 28 28 29 27 27 29 32 33 37 32 34 32 32 30 29 27 25 23 21 21 22 21
55 53 52 51 50 48 47 46 45 46 45 45 45 45 44 42 41 39 38 36 33 31 29 29 28 27 27 27 31 31 27 30 32 31 30 30 29 28 25 22 22 22 20
53 52 52 51 48 46 46 45 45 45 43 44 44 43 41 42 40 40 40 37 33 31 28 27 28 27 26 26 26 31 27 29 28 28 27 25 27 28 26 26 24 23 21
52 53 52 50 47 45 45 44 44 44 42 43 43 42 40 41 40 41 40 38 35 31 28 27 28 28 28 28 27 26 26 26 26 26 26 25 24 25 28 27 27 27 25
53 50 48 46 45 45 44 44 43 43 43 43 42 41 40 39 38 40 39 36 35 33 31 30 30 31 30 30 29 27 25 25 23 23 24 23 22 27 30 28 29 29 28
50 50 47 46 45 44 44 43 43 43 42 42 41 40 38 38 40 40 37 36 35 34 33 33 34 34 34 32 30 29 27 25 24 20 21 18 18 21 25 29 28 28 29
45 45 44 44 44 43 43 43 43 42 41 40 40 39 38 40 40 38 37 36 36 34 34 34 35 36 34 33 31 31 29 29 24 21 16 15 16 17 19 20 22 21 24
43 42 42 43 42 42 42 42 42 41 39 37 38 39 39 39 39 39 38 38 37 36 34 33 32 31 31 31 31 30 29 27 24 21 17 15 18 18 18 18 18 22 22
41 40 40 39 39 38 39 40 39 38 38 37 37 37 38 38 38 36 32 32 32 32 32 31 30 30 30 30 31 31 30 29 25 23 19 15 20 17 18 18 21 23 23
37 38 38 39 38 38 39 38 37 37 37 37 38 38 36 33 32 30 28 27 27 27 28 30 31 31 32 32 32 32 31 31 26 23 21 16 18 16 18 20 22 23 20
36 36 37 38 37 38 38 37 37 37 37 33 29 28 28 26 29 27 24 23 20 17 15 17 21 25 28 27 30 31 32 29 28 21 20 17 19 16 18 19 18 18 22
37 38 38 38 38 38 36 36 34 30 27 23 23 24 24 24 25 24 21 20 20 21 22 23 24 24 25 25 28 30 30 30 29 22 20 17 17 17 15 17 16 18 18

GFSMA_sfc_30mbdewp_042.txt.gz
Dewpoint
54 53 52 50 47 46 44 48 46 44 43 39 38 41 43 43 45 48 51 52 56 55 54 53 51 49 49 48 45 42 41 42 41 40 40 41 43 43 42 42 41 40 40
53 52 51 48 47 47 45 49 45 44 40 36 37 38 42 44 45 48 52 56 56 56 55 54 52 49 47 47 44 41 41 40 39 39 40 40 39 39 39 40 40 39 39
54 54 54 50 49 49 50 49 47 45 41 38 35 35 38 45 45 47 51 53 55 55 55 54 51 50 47 45 42 41 38 37 37 38 38 37 37 38 38 38 37 37 37
56 56 55 54 53 51 51 49 47 45 42 38 35 36 35 38 43 46 49 50 51 52 53 52 50 47 45 44 42 38 36 36 36 37 35 36 37 37 37 37 36 36 35
56 56 55 55 54 52 49 48 45 43 40 38 36 36 36 35 36 44 46 48 48 48 48 49 48 47 45 43 37 33 34 34 35 34 35 36 37 36 35 34 34 34 35
55 56 54 54 53 50 47 46 44 45 42 39 36 36 36 37 36 38 42 46 46 46 45 46 47 45 42 36 34 32 32 33 33 32 35 34 34 33 32 32 33 33 33
57 56 55 55 53 50 48 47 45 43 41 40 36 36 37 38 38 37 35 41 42 44 43 43 41 37 39 38 34 31 32 32 31 32 33 32 32 31 31 31 31 32 32
57 57 55 55 53 50 49 48 45 41 38 39 35 38 35 39 39 38 37 35 35 41 40 38 35 34 35 37 33 33 33 33 32 34 33 33 32 31 31 31 31 31 32
58 58 57 55 53 51 50 48 45 42 39 39 40 37 39 38 38 39 39 38 35 35 36 35 33 34 33 33 35 36 36 34 33 35 34 33 32 31 31 31 30 31 31
58 57 57 56 53 52 51 50 46 42 40 39 41 43 42 41 37 36 37 39 38 35 34 34 33 32 32 31 33 35 38 35 36 36 35 33 32 31 30 30 30 30 30
57 56 56 56 54 53 52 51 47 43 43 43 45 43 43 43 40 40 39 37 37 37 36 35 35 34 32 31 32 35 38 35 37 36 35 33 32 31 29 29 29 29 29
57 57 56 57 55 55 54 52 48 45 46 46 45 44 44 43 43 42 40 39 37 36 36 37 36 35 33 33 33 35 39 38 38 36 35 33 32 30 30 29 28 27 27
56 57 57 57 56 54 53 52 49 48 47 46 45 45 46 46 46 44 42 41 37 32 29 32 35 37 36 33 34 38 40 39 38 37 34 33 31 30 29 28 27 25 25
57 58 58 57 56 53 51 51 49 48 47 47 46 46 47 47 47 44 40 38 34 30 30 29 31 32 34 33 33 40 40 40 38 36 36 34 32 30 29 27 26 23 23
57 58 57 56 54 52 51 50 48 47 47 47 47 47 46 47 47 45 39 36 34 32 32 30 29 29 31 32 32 38 39 40 38 36 35 35 34 31 29 28 25 23 22
56 56 55 53 52 51 50 49 48 47 46 46 46 45 45 46 44 41 41 40 37 35 33 31 30 30 29 28 30 36 38 37 38 36 35 35 34 33 31 29 25 22 22
56 55 53 51 50 49 49 48 47 46 46 45 45 45 44 42 42 42 41 41 40 36 34 32 30 29 28 27 27 35 36 34 33 37 35 34 33 33 33 32 29 25 24
57 56 53 52 50 48 47 46 46 46 45 43 43 43 42 42 40 41 41 40 39 37 35 33 31 29 28 28 28 28 32 29 29 30 36 34 34 33 32 30 29 29 28
57 53 53 51 49 48 47 45 45 45 44 43 43 42 41 41 39 39 40 40 37 36 35 33 33 33 32 31 31 32 30 30 29 30 30 34 34 32 30 29 30 30 29
53 52 50 49 48 46 45 44 44 43 43 43 42 41 41 38 38 39 39 37 36 35 35 34 34 34 35 36 34 34 34 34 30 30 31 29 31 31 31 32 31 29 31
51 50 49 47 45 45 44 43 43 43 42 42 42 40 39 39 39 39 38 38 37 37 37 36 34 34 34 33 34 34 33 33 32 31 30 29 28 28 27 29 28 31 32
47 46 45 44 44 43 43 43 43 42 41 41 39 39 38 38 39 36 32 31 31 31 30 30 30 29 30 31 31 31 31 31 30 32 27 25 21 20 19 22 25 25 23
43 43 43 43 42 42 42 42 42 41 39 38 37 36 38 36 33 30 29 28 27 27 29 28 26 25 27 27 30 30 31 32 31 31 26 26 22 20 22 22 25 27 25
40 40 40 40 39 39 40 40 38 37 36 37 37 33 30 27 30 27 24 22 21 20 17 17 18 20 21 22 24 25 24 25 26 30 30 28 27 23 22 22 25 25 25
37 38 38 38 37 38 38 37 36 36 34 30 27 26 25 24 26 25 21 19 20 21 22 23 24 26 27 27 27 27 25 24 23 23 27 26 25 24 24 21 20 25 26
37 37 37 37 37 37 37 37 36 31 27 23 22 21 22 23 23 20 20 22 22 23 23 22 21 24 26 26 27 27 26 25 25 24 26 26 27 26 24 19 19 19 22

GFSMA_sfc_30mbdewp_045.txt.gz
Dewpoint
55 54 52 49 48 45 44 47 44 42 39 42 44 46 47 47 49 51 53 56 56 55 54 52 51 50 49 47 45 43 43 42 41 41 42 43 42 41 41 41 41 40 40
53 52 50 47 46 43 48 46 44 42 39 39 41 43 42 43 44 46 49 53 56 56 55 53 52 50 49 47 44 42 42 41 40 40 40 40 39 40 40 39 39 39 39
53 51 50 47 46 44 49 47 45 42 37 37 37 42 43 43 44 45 51 55 56 56 56 55 52 49 49 47 43 42 40 38 38 39 38 38 39 39 39 38 37 37 37
53 52 50 48 48 48 48 48 46 43 39 36 36 38 42 44 44 46 50 53 54 55 55 54 53 51 48 46 44 41 38 37 37 37 37 38 38 38 37 36 35 35 36
54 53 53 51 51 50 51 49 47 44 41 37 35 36 37 41 42 45 48 50 51 52 52 53 52 49 48 46 44 39 36 36 37 35 36 37 36 34 33 33 34 34 34
55 55 55 55 53 52 50 49 46 44 42 39 36 36 37 37 38 44 45 48 49 49 49 49 49 48 48 45 40 36 35 35 36 35 36 36 33 32 31 32 32 33 33
56 56 55 55 54 52 50 49 46 43 41 40 37 36 36 37 37 37 41 45 46 47 46 46 47 45 46 43 38 36 35 35 36 35 35 34 33 32 32 31 31 32 32
54 56 55 55 54 51 49 47 45 42 41 40 36 36 34 36 39 38 37 39 42 44 44 43 43 41 38 40 38 38 35 36 36 35 36 35 34 33 32 32 32 31 32
55 56 56 55 54 52 50 48 46 42 40 39 40 37 37 35 39 39 39 36 37 39 42 41 40 38 35 36 39 40 38 38 36 36 37 37 36 34 33 32 31 31 32
55 57 57 56 55 53 51 49 48 44 41 39 40 42 42 41 38 36 37 39 38 36 36 38 37 35 34 34 36 37 38 39 39 36 37 38 37 35 34 33 32 32 31
55 57 57 57 56 54 52 51 49 47 44 42 40 43 43 42 40 38 37 38 38 39 37 36 35 35 34 33 33 35 38 39 39 37 36 38 38 36 35 33 32 32 31
54 56 56 57 56 55 53 53 52 49 46 45 44 43 42 42 41 40 39 38 37 38 38 38 37 36 35 33 33 33 37 38 40 39 37 38 38 37 36 34 32 32 30
53 55 56 56 56 56 55 54 52 50 48 46 45 45 45 44 45 44 41 41 40 38 32 32 35 37 37 36 35 36 37 39 39 39 39 39 38 37 36 34 32 32 30
53 55 56 57 57 57 55 54 53 51 50 48 46 46 46 46 46 45 43 41 38 35 31 32 31 32 35 37 36 36 37 39 41 40 39 40 40 38 36 34 33 31 30
55 56 57 57 58 58 56 54 53 51 49 48 47 47 47 48 47 46 42 37 35 34 33 34 31 31 32 33 33 35 37 38 41 41 40 39 39 38 37 36 33 31 30
56 56 57 57 56 55 54 54 52 50 48 48 48 48 47 47 46 45 42 40 38 37 35 34 33 31 31 30 30 34 35 38 40 41 40 39 38 38 37 37 35 33 30
56 56 56 55 55 54 51 50 49 48 47 47 47 47 46 46 44 42 42 41 40 39 37 37 33 31 31 31 29 30 34 36 38 39 41 39 37 36 36 36 36 34 33
57 56 55 55 52 51 50 49 48 47 47 46 46 46 44 43 42 42 41 40 40 40 38 35 34 32 31 31 31 30 30 32 33 34 35 39 39 37 36 36 36 35 35
57 57 57 55 52 51 49 48 47 47 47 46 45 44 43 41 40 40 40 40 38 37 36 34 34 34 33 32 32 33 33 33 32 31 31 31 33 36 38 36 35 34 34
57 56 55 53 52 50 49 47 47 46 45 45 44 43 42 41 39 39 39 38 37 36 36 36 36 35 34 35 35 34 33 34 34 35 35 34 34 34 34 36 35 35 34
57 54 53 51 49 48 47 46 45 44 44 43 43 42 41 39 40 39 38 36 35 34 32 31 30 30 30 30 29 31 31 32 33 33 33 33 33 32 32 33 35 35 34
52 51 49 47 47 46 46 44 44 43 43 42 41 40 40 39 36 33 32 30 30 28 25 26 24 22 23 24 27 24 25 25 21 26 31 29 30 30 30 30 30 32 33
47 47 46 46 45 44 43 43 43 42 41 41 40 37 37 34 31 29 26 24 23 23 24 21 19 19 20 21 23 23 23 23 23 24 23 23 25 26 29 26 26 28 31
45 44 43 43 43 43 42 42 41 39 38 37 37 35 30 29 27 25 22 19 18 19 20 21 21 22 22 23 25 26 26 25 25 25 26 23 23 24 26 26 25 27 29
41 41 41 41 41 40 40 39 38 36 32 29 27 26 25 25 25 22 19 17 20 22 23 23 20 20 21 21 22 25 22 22 21 21 23 23 23 24 26 26 25 28 31
38 38 37 37 37 37 37 36 35 31 28 24 22 22 23 22 20 20 21 22 22 22 20 20 19 19 18 20 20 22 18 16 16 15 18 21 22 25 25 26 27 29 31

GFSMA_sfc_30mbdewp_048.txt.gz
Dewpoint
54 52 50 47 45 46 45 42 41 44 47 48 50 51 51 52 53 54 56 57 56 54 54 52 51 50 49 47 45 44 44 43 42 43 43 42 42 41 41 41 40 40 40
53 50 49 46 44 46 46 43 40 41 44 45 46 47 48 48 49 51 53 56 56 56 55 53 52 51 50 47 44 44 43 42 41 42 41 40 41 40 40 40 39 38 38
52 50 48 45 44 47 46 44 42 39 41 41 42 43 43 43 44 46 51 54 56 56 56 55 52 50 50 48 45 44 42 40 40 41 39 40 40 40 39 37 37 37 37
52 50 48 46 45 48 47 45 43 39 37 38 39 42 43 44 44 46 50 54 55 56 56 55 54 51 50 49 45 44 41 39 39 39 39 39 39 37 35 34 35 35 35
52 50 48 48 47 47 49 46 45 42 38 36 36 39 42 43 43 46 48 51 54 54 54 56 54 53 51 48 46 43 40 39 39 38 38 39 37 34 33 32 33 33 34
53 52 51 50 49 49 50 48 45 44 42 38 36 36 37 38 41 44 45 48 51 52 52 53 53 51 50 48 45 43 39 39 39 38 38 38 36 33 32 32 32 32 33
55 54 54 54 53 51 50 49 46 44 42 39 36 36 36 37 37 38 43 45 47 49 49 50 50 48 49 49 46 41 39 39 39 39 37 38 36 34 32 32 32 32 33
56 56 55 55 54 53 51 49 47 44 42 40 36 36 34 35 38 38 37 40 44 46 47 47 47 47 46 47 45 41 39 39 39 39 38 38 37 35 34 34 33 33 33
54 55 55 55 54 53 51 49 47 44 43 41 38 37 36 35 37 40 39 38 38 42 44 45 44 44 43 42 42 43 43 41 38 39 39 38 39 37 36 35 35 33 33
51 53 55 55 55 53 52 50 48 44 42 41 39 40 41 40 37 37 38 39 38 37 40 42 42 41 40 38 37 40 40 42 40 38 38 39 40 40 38 37 36 34 33
51 52 54 55 55 54 53 52 50 46 44 43 42 42 42 42 40 38 37 38 39 39 38 38 39 39 38 37 36 37 40 40 41 41 38 38 39 41 40 39 38 36 34
51 52 54 55 55 55 54 53 52 50 49 47 46 45 42 41 40 39 39 38 38 38 39 39 38 37 38 36 36 36 37 39 40 41 42 40 38 39 40 40 39 38 36
49 52 54 54 55 55 55 54 53 52 51 49 48 46 47 45 45 43 41 40 40 39 37 35 37 38 38 37 36 37 37 38 39 40 41 42 41 40 40 40 39 38 37
51 52 53 54 54 55 55 54 54 53 52 51 50 49 48 47 46 44 43 42 40 39 35 36 32 33 36 38 38 38 39 38 39 40 40 40 41 41 41 42 40 38 37
52 53 54 54 54 55 55 55 54 54 53 53 52 50 48 48 47 46 43 42 42 39 36 34 33 32 32 32 33 34 36 37 39 40 41 41 41 41 41 41 41 41 38
53 53 54 55 55 56 56 56 56 55 54 53 51 49 48 48 48 47 45 41 40 39 38 36 34 34 33 33 32 34 33 35 37 39 40 41 41 41 41 41 41 40 39
53 54 54 55 56 56 56 55 55 53 51 51 50 49 48 48 47 46 44 42 40 39 37 38 37 34 33 34 33 32 32 33 34 36 38 39 40 41 40 40 39 39 39
54 54 55 55 55 56 53 53 52 51 50 49 48 48 47 47 45 44 43 42 41 40 39 37 36 34 33 33 33 32 33 32 33 34 35 36 37 39 40 39 38 38 37
54 55 55 55 55 53 52 51 51 50 49 48 47 46 45 45 43 43 42 40 40 38 36 35 35 34 34 33 34 34 34 34 34 35 35 35 35 35 36 38 39 38 37
55 55 56 56 56 52 51 50 50 48 47 46 46 46 45 44 42 41 40 39 37 36 36 35 35 35 34 33 32 30 28 29 28 30 32 34 35 35 36 36 37 37 38
56 56 56 56 53 51 50 49 48 47 46 45 45 44 43 41 40 40 38 37 36 34 32 30 29 28 25 25 22 26 22 23 23 23 23 29 31 32 31 31 30 31 32
56 56 55 52 50 50 48 47 47 45 45 44 42 41 40 39 37 35 34 32 31 29 27 25 24 19 17 20 22 21 22 20 17 24 24 23 24 23 24 25 26 28 30
53 53 51 49 48 47 46 45 45 44 43 42 40 39 37 34 32 30 28 25 22 23 22 20 15 18 19 20 22 22 22 22 21 22 23 22 23 23 25 24 25 27 29
49 48 47 46 45 44 43 42 42 41 40 39 38 36 33 30 28 26 22 19 18 19 20 21 21 23 23 23 24 24 24 22 22 22 23 21 21 21 23 25 26 28 29
45 44 43 43 43 41 41 39 38 35 32 30 29 30 28 27 26 24 19 16 19 22 23 22 20 19 18 18 19 21 20 20 16 11 13 15 15 18 19 18 21 27 29
39 38 37 37 38 37 37 36 34 31 28 25 24 25 25 22 21 22 18 19 20 21 18 17 16 16 16 17 18 18 17 14 14 12 16 15 13 16 16 19 25 26 28

GFSMA_sfc_30mbdewp_054.txt.gz
Dewpoint
53 51 52 53 53 53 53 51 50 50 48 47 48 50 50 50 51 49 52 55 54 53 52 51 50 49 48 47 47 46 46 46 46 45 44 44 43 43 42 41 40 40 40
52 48 48 47 48 52 51 49 48 47 45 46 48 48 49 50 51 50 50 54 55 55 54 52 52 50 49 47 47 46 45 44 45 44 44 44 43 41 40 39 39 39 39
51 49 44 43 45 46 47 46 47 45 44 44 46 48 48 49 49 50 50 51 54 55 55 54 53 52 50 48 47 46 44 43 44 43 43 43 41 39 37 36 36 36 37
50 48 44 43 44 45 44 45 46 45 43 43 44 45 45 46 47 48 49 50 50 51 55 56 55 54 52 50 47 47 45 43 43 43 42 43 41 37 35 34 34 34 35
48 45 44 45 48 45 44 44 43 42 42 41 42 42 42 41 43 43 46 49 50 49 50 55 55 55 54 52 49 48 46 43 43 43 42 42 41 37 34 33 32 33 33
50 47 44 47 49 46 47 45 43 42 40 39 36 39 40 41 41 41 42 44 46 50 49 50 54 53 54 54 51 48 47 45 43 44 43 42 41 38 35 34 32 33 34
50 48 45 49 48 48 47 48 46 44 41 41 37 39 40 42 42 41 42 43 44 47 49 50 50 49 51 54 53 49 48 46 45 44 44 43 43 41 38 36 34 34 35
51 50 48 48 47 48 51 51 49 47 44 43 41 41 41 41 41 42 41 42 42 43 45 48 48 47 47 49 50 52 48 46 45 45 45 44 43 43 41 38 37 36 36
51 50 51 49 49 48 50 52 52 50 47 47 46 45 43 42 42 42 42 41 42 43 44 44 46 46 47 47 47 49 51 48 46 44 44 45 44 44 43 42 40 39 38
53 51 52 52 53 51 50 51 52 52 51 48 47 47 48 47 44 43 43 43 43 43 42 43 44 46 46 47 47 46 47 48 46 46 44 43 44 45 44 44 43 42 41
53 52 52 54 55 55 55 55 54 55 53 53 50 48 48 48 48 46 45 46 45 44 43 43 44 43 46 45 46 46 46 45 45 46 46 44 42 41 42 45 45 45 44
55 55 54 56 56 56 56 56 56 56 56 54 53 52 50 48 47 47 45 46 46 47 48 46 44 44 44 44 45 43 44 44 44 44 44 44 43 42 41 40 41 44 45
51 52 54 53 54 55 55 55 56 56 56 55 55 53 53 51 51 50 48 46 47 49 47 47 44 44 43 44 43 42 42 40 40 41 42 42 43 42 41 41 40 40 40
49 51 51 52 52 52 52 53 53 54 54 55 55 55 53 53 53 52 48 48 46 47 47 45 44 45 45 43 42 41 40 39 39 40 40 41 42 42 43 43 43 42 41
49 50 51 51 50 50 51 52 52 52 53 54 54 55 55 55 56 54 53 51 48 47 46 46 45 42 41 41 41 40 39 39 37 38 38 39 40 41 42 42 42 42 41
52 51 52 53 52 52 52 52 53 52 52 54 54 55 56 56 55 54 53 53 51 49 46 47 43 40 39 38 38 40 41 38 37 36 36 37 38 39 40 41 41 41 40
52 52 52 52 52 52 52 52 53 53 53 54 56 56 55 55 54 53 53 51 50 49 47 44 40 40 39 41 38 39 39 39 38 37 36 37 37 37 38 38 38 38 38
53 53 52 52 51 51 51 51 52 52 52 53 54 56 55 54 53 52 51 50 48 48 46 43 41 39 40 40 39 38 38 36 36 37 35 35 35 35 36 36 37 37 37
52 52 51 51 50 50 50 52 53 53 53 53 55 55 53 54 52 51 49 47 46 44 44 41 40 39 40 38 37 38 37 37 36 32 29 26 26 29 32 35 34 33 34
51 51 51 50 50 50 51 51 52 53 53 54 54 55 54 53 51 49 47 45 44 42 41 40 39 37 37 37 37 35 33 33 29 21 14 15 19 20 23 27 30 32 30
51 51 50 50 51 51 52 52 52 54 54 54 54 54 53 51 49 47 45 43 41 40 38 38 36 36 35 33 32 32 27 25 19 16 15 18 16 15 17 23 22 23 26
51 51 51 50 51 52 53 53 55 55 54 54 51 49 48 47 46 44 43 42 41 39 38 36 34 32 31 30 29 25 22 16 12 13 18 17 16 14 16 17 17 17 22
52 51 51 51 52 52 53 53 53 54 53 51 48 44 42 41 40 37 36 34 32 31 33 32 31 30 28 26 23 20 17 16 15 14 14 13 15 14 13 8 14 18 19
52 52 53 53 54 54 53 52 49 49 47 45 43 41 39 37 35 33 30 26 24 23 21 19 21 22 22 20 19 16 16 15 16 15 14 9 8 8 12 11 13 16 19
54 53 52 53 52 47 45 44 44 41 39 37 37 36 34 32 32 30 25 22 22 23 26 23 20 19 17 17 16 13 14 12 15 11 8 8 10 10 9 9 13 14 17
43 40 39 40 40 39 39 39 38 35 32 31 30 31 32 30 28 26 24 23 24 23 19 18 17 16 15 15 17 14 11 11 12 11 9 11 10 6 8 9 11 12 15

GFSMA_sfc_30mbdewp_057.txt.gz
Dewpoint
58 59 58 58 54 53 51 49 48 48 47 47 49 50 49 49 49 49 51 55 55 53 52 52 51 50 49 49 48 47 47 47 47 46 45 45 44 43 42 41 41 40 41
56 56 56 55 52 52 50 48 48 47 45 47 49 50 49 49 49 50 51 53 55 55 53 51 51 50 49 49 48 47 46 47 46 46 45 44 43 42 41 39 39 39 39
55 54 54 52 51 51 49 48 48 45 43 45 47 48 49 50 49 50 50 51 53 55 55 54 52 51 50 49 48 47 46 46 46 45 45 44 42 40 39 38 37 37 37
53 52 49 48 48 49 48 46 45 43 43 43 46 46 46 48 49 50 49 51 51 52 55 55 55 53 51 50 48 48 46 45 45 45 45 44 42 39 37 36 35 35 35
51 49 46 47 47 46 45 44 45 43 42 42 44 44 44 45 47 47 48 49 50 50 54 55 55 55 54 52 50 49 48 45 45 45 44 44 43 40 37 35 34 34 34
50 50 48 49 47 44 43 44 45 44 42 41 40 41 42 42 42 42 44 46 48 49 51 54 55 55 55 55 53 50 49 47 45 46 44 44 44 41 38 36 34 34 34
50 50 48 52 51 47 45 47 44 43 41 41 38 38 40 41 42 41 42 43 44 47 49 49 55 53 54 55 55 52 50 49 48 46 46 45 45 43 41 38 37 35 36
50 50 49 50 52 48 49 50 48 44 41 41 37 37 38 39 42 44 43 43 45 44 46 49 49 50 51 53 54 55 52 49 49 48 47 46 46 45 44 42 40 38 37
51 50 51 51 51 51 52 53 52 49 45 45 44 42 40 38 41 44 46 45 46 45 44 45 48 48 49 50 53 54 53 52 51 49 48 47 47 46 46 45 43 42 41
54 51 51 52 52 51 51 54 53 52 50 47 49 48 50 49 46 44 45 46 46 45 47 46 44 46 48 48 48 48 52 51 50 51 50 49 48 48 47 46 46 45 44
56 54 52 53 53 53 53 53 54 55 53 51 49 49 49 49 50 48 47 46 46 46 45 47 47 46 47 48 49 49 48 50 50 50 49 48 46 47 48 48 48 47 47
55 55 52 53 55 56 56 55 55 55 56 53 53 52 51 49 48 48 48 47 48 48 47 47 49 49 50 50 49 47 47 47 47 48 48 48 47 45 44 44 43 43 44
54 55 55 53 55 57 57 56 57 57 57 56 54 55 54 52 51 49 50 48 47 50 50 51 52 51 51 51 50 49 45 45 45 45 46 46 46 45 44 43 43 43 43
53 55 55 55 56 57 57 56 56 56 55 56 56 54 55 52 52 51 50 50 49 49 50 50 50 51 51 51 50 46 44 42 41 40 41 41 42 43 44 44 44 44 44
52 54 55 56 56 56 56 56 56 55 55 56 56 56 55 53 52 53 53 53 51 48 48 49 50 50 50 50 48 45 43 42 40 40 40 40 41 42 43 43 43 42 42
52 52 54 54 54 54 55 55 54 54 54 54 54 54 54 54 53 55 55 55 54 52 49 50 50 48 48 47 46 45 42 42 39 37 39 39 39 40 40 41 41 41 41
53 51 51 52 52 52 53 53 52 52 52 53 53 53 53 54 54 56 56 55 53 52 49 50 47 45 43 43 43 43 43 42 41 40 37 37 37 37 38 39 39 38 38
54 53 51 51 51 51 52 52 52 51 52 52 52 53 53 54 55 56 55 54 53 52 50 48 44 41 41 42 42 41 40 40 40 39 40 38 37 36 35 35 34 34 36
55 54 53 52 51 52 52 52 52 52 52 52 53 53 53 55 55 55 54 52 52 51 49 47 42 41 41 40 40 40 40 40 39 39 36 34 33 30 26 29 31 32 31
55 55 54 53 53 53 52 52 51 52 52 52 54 53 53 55 55 54 53 52 50 47 46 44 41 39 40 39 39 39 37 39 38 37 32 21 18 22 23 24 25 26 28
54 54 54 54 54 53 52 52 51 51 52 53 53 54 54 55 55 55 53 51 48 45 43 41 40 37 37 37 36 37 35 35 33 30 26 22 19 21 22 26 27 27 30
54 54 53 53 53 53 51 50 51 52 52 52 53 54 54 54 53 52 50 48 46 44 41 39 39 38 37 36 34 33 30 28 26 25 20 17 20 20 19 20 19 17 17
54 53 53 53 53 53 51 49 50 52 54 55 55 55 52 49 48 45 41 38 37 38 40 39 37 34 33 32 30 29 26 23 22 20 18 17 18 17 19 15 15 16 18
53 53 53 53 53 53 51 50 50 53 54 54 54 51 45 42 40 39 35 32 30 30 30 30 31 27 24 23 22 22 21 20 19 17 17 16 17 17 16 16 18 16 17
53 53 54 54 53 53 50 50 49 47 43 41 40 40 39 36 35 34 32 30 29 28 28 26 24 21 18 17 14 16 15 14 19 15 16 16 15 15 18 18 17 17 17
52 46 43 42 41 42 42 44 44 39 36 33 32 33 33 32 31 29 28 27 25 24 23 20 16 14 13 16 14 12 12 13 13 14 15 14 13 12 13 15 16 17 18

GFSMA_sfc_30mbdewp_060.txt.gz
Dewpoint
59 60 60 57 54 54 53 51 51 50 50 48 53 51 52 51 53 53 55 54 53 53 52 52 52 51 50 49 48 49 49 47 47 47 46 45 45 44 42 42 41 42 41
59 58 60 56 54 53 53 50 52 50 50 50 51 52 51 51 52 53 55 55 55 54 53 52 52 51 51 50 49 48 48 48 47 46 46 44 44 42 41 40 40 40 40
57 59 58 56 54 53 53 51 51 49 49 50 51 51 51 52 51 52 53 54 55 55 54 53 52 51 51 50 49 48 47 48 47 46 46 45 43 41 40 39 38 38 38
57 58 57 56 54 53 53 52 49 48 48 49 50 50 51 51 52 52 52 53 54 54 55 55 54 53 52 50 50 49 47 47 47 47 46 45 44 41 40 38 37 37 37
56 56 56 56 54 53 52 50 49 47 47 48 49 49 50 50 50 50 52 52 53 53 54 55 55 55 54 53 51 50 49 47 47 47 47 46 44 42 40 38 36 36 36
53 54 51 52 50 50 50 49 48 48 47 46 45 47 48 48 49 50 49 51 53 53 54 54 55 55 55 55 53 51 51 49 47 47 47 46 46 44 41 39 37 36 36
51 51 50 50 49 47 46 49 49 47 47 46 45 46 45 45 47 46 47 48 49 51 54 55 55 55 55 56 55 53 52 51 50 48 48 47 46 46 44 41 39 38 37
51 50 51 49 49 52 50 49 46 47 47 47 43 42 41 43 43 46 46 45 46 48 51 55 55 55 54 54 55 56 54 52 51 50 48 48 47 47 46 45 42 41 39
50 50 51 52 51 53 50 50 49 49 45 45 43 41 40 40 42 44 45 47 45 49 48 49 52 54 54 54 54 55 55 54 53 52 51 50 49 48 48 47 46 44 43
51 50 52 52 51 51 53 54 53 53 50 46 44 45 48 51 47 45 46 47 48 48 47 47 48 51 50 51 54 54 55 54 53 53 53 53 52 50 49 48 48 48 47
56 52 52 53 52 51 52 54 55 54 54 53 49 49 49 50 51 49 46 46 48 47 48 49 48 47 48 50 51 53 53 53 53 53 53 52 53 52 52 51 50 49 49
56 56 53 53 54 55 53 54 55 56 55 55 54 52 51 50 50 50 49 49 47 48 48 49 49 49 49 48 49 50 49 51 51 52 52 52 51 51 50 50 49 48 48
52 56 55 54 55 55 55 56 56 56 57 55 54 53 54 52 51 51 50 49 49 51 49 49 49 50 50 50 50 50 49 49 49 50 51 51 51 50 50 48 47 46 45
51 53 55 54 55 55 55 57 57 57 56 56 54 53 55 55 53 53 51 50 49 50 51 49 52 52 51 51 52 51 51 48 46 47 47 47 46 46 46 47 46 46 45
52 55 56 55 55 55 56 57 57 56 56 56 55 56 55 54 56 53 53 53 50 48 49 51 51 52 52 52 52 51 49 48 47 45 43 42 42 43 43 44 44 44 43
51 52 55 56 55 54 56 57 57 56 55 55 55 55 55 54 55 54 53 53 53 52 50 50 51 51 51 51 50 50 48 48 46 44 42 40 41 41 42 43 43 42 42
53 52 52 53 54 56 56 56 55 55 55 54 54 54 55 55 54 55 55 54 54 54 52 52 51 50 48 48 48 48 47 46 44 42 40 40 40 40 40 40 40 40 40
54 53 52 52 53 53 54 54 54 54 54 53 54 53 53 53 54 54 55 55 55 54 53 50 51 46 46 45 46 45 45 44 43 42 42 40 40 39 38 37 37 36 36
55 54 52 51 51 52 53 53 53 53 52 52 52 51 52 52 52 53 54 54 55 54 53 51 50 43 43 43 43 43 43 42 41 40 41 41 40 37 36 36 31 29 30
55 54 54 53 52 51 51 51 51 51 51 52 52 52 52 52 52 53 54 55 55 53 52 51 49 42 41 41 42 41 39 40 39 39 40 39 38 36 34 23 23 25 27
56 56 55 54 53 53 51 51 51 51 52 52 52 52 53 53 53 53 54 54 54 52 51 48 46 40 40 38 39 40 39 39 40 39 36 31 27 26 24 25 25 27 28
56 56 56 55 55 54 52 51 52 53 52 52 52 52 52 52 52 52 53 54 54 52 49 45 44 41 40 38 39 38 37 35 33 33 28 25 24 23 23 23 20 21 25
56 56 55 55 55 55 53 51 50 52 52 52 52 52 52 53 53 50 43 40 38 39 41 44 42 38 36 37 37 36 34 30 27 25 22 20 22 19 20 18 19 17 17
55 55 55 55 55 54 53 52 50 51 52 52 53 54 54 51 48 45 39 34 32 32 34 35 34 31 31 30 29 28 23 20 20 19 18 16 18 19 21 21 17 20 23
55 55 55 55 54 54 50 50 48 49 47 42 39 40 41 40 39 38 35 32 29 28 31 31 30 30 29 24 20 24 21 17 19 19 20 19 18 18 18 20 20 18 20
54 53 45 42 43 43 45 48 47 43 39 34 32 32 33 33 34 33 31 28 26 26 25 24 19 18 19 19 16 14 16 16 17 15 17 14 15 15 15 17 19 18 18

GFSMA_sfc_30mbdewp_063.txt.gz
Dewpoint
61 60 60 58 57 57 55 52 51 49 47 49 51 52 52 53 53 54 55 55 55 54 53 53 53 52 50 50 50 50 48 48 48 47 47 46 45 44 43 43 43 43 43
61 60 56 55 55 54 51 50 51 50 47 48 51 52 52 53 53 54 55 54 54 54 53 53 53 52 51 50 50 50 49 48 48 47 47 46 45 43 42 41 41 41 41
59 60 55 53 54 53 48 50 51 51 49 51 51 52 52 53 53 54 54 54 55 54 54 54 53 52 52 51 50 49 50 49 48 47 46 45 44 43 42 40 40 39 39
58 60 57 53 55 52 51 50 51 50 50 50 51 51 52 52 53 53 54 54 54 54 54 55 54 53 52 52 50 49 49 49 49 48 47 46 44 42 41 40 39 38 38
57 59 58 55 55 53 54 52 50 49 49 50 50 50 51 52 52 52 53 53 54 54 54 55 55 55 54 53 52 51 50 48 49 48 48 47 45 44 42 40 39 38 38
57 58 58 57 56 55 54 50 49 48 49 49 48 48 50 51 52 52 52 53 53 53 54 54 55 54 55 55 53 52 51 50 49 49 49 48 47 46 43 41 40 38 38
55 53 55 54 55 54 52 49 49 47 47 49 47 48 48 49 49 49 52 52 53 53 54 53 54 54 55 55 55 53 52 52 51 50 49 49 48 48 46 44 42 40 39
54 51 53 53 52 53 51 49 48 48 47 48 45 46 43 43 46 48 48 49 52 53 54 54 54 54 54 55 55 56 54 53 52 52 50 50 49 49 48 47 45 43 42
52 51 51 52 51 52 51 48 47 46 44 47 45 42 41 40 41 44 46 46 46 48 52 54 55 54 54 54 54 55 56 55 55 54 54 52 51 50 49 49 48 46 45
51 50 50 50 50 52 51 49 47 47 46 44 46 45 45 47 44 44 45 46 46 46 47 51 55 55 55 54 54 54 54 55 55 55 55 54 53 52 51 50 50 49 48
51 50 52 51 51 51 53 50 49 48 51 47 44 43 45 48 50 48 46 45 47 48 48 48 49 52 54 55 54 54 54 54 54 55 55 55 55 54 53 53 52 51 50
52 51 51 53 51 51 51 55 53 52 51 53 51 48 45 44 47 49 48 47 45 47 48 48 48 48 49 50 50 53 53 53 53 54 54 55 55 55 55 54 53 52 52
54 54 52 52 54 53 51 53 55 55 53 53 54 53 52 51 52 51 50 49 48 49 48 49 49 50 50 49 49 49 51 52 52 53 53 54 54 54 54 54 53 52 51
52 54 55 52 53 55 55 55 55 55 56 55 54 55 54 54 53 52 50 49 48 49 50 48 50 49 50 50 49 49 50 50 48 50 51 52 53 54 54 52 51 50 49
50 53 55 54 53 53 55 55 56 55 56 56 56 55 54 53 53 51 53 52 49 46 47 50 49 51 51 51 50 50 51 50 51 50 49 50 51 51 50 49 46 45 45
49 49 54 55 54 53 54 56 55 56 56 55 55 55 55 54 54 55 53 53 53 50 48 49 50 51 52 52 52 51 51 50 49 49 49 48 47 45 45 44 44 44 43
49 49 52 55 55 55 53 54 55 55 55 54 55 55 54 54 54 54 55 53 52 52 50 50 51 51 50 51 51 50 50 49 49 48 47 46 45 42 43 42 43 43 42
51 50 49 52 54 54 54 53 53 55 55 55 54 54 54 54 54 54 54 54 53 53 52 50 51 50 50 48 48 48 48 48 48 47 46 46 42 40 41 41 41 40 40
53 53 52 50 50 51 53 54 54 54 54 55 54 54 54 53 53 54 54 54 54 54 54 53 51 50 48 44 45 45 46 46 46 46 44 42 41 41 40 40 39 38 37
54 53 53 52 52 51 52 51 52 54 55 54 54 54 54 53 53 53 53 53 53 53 54 53 52 49 45 43 44 44 42 44 43 42 42 42 42 42 41 39 38 36 28
54 54 54 53 53 52 51 52 52 52 52 52 52 53 53 52 52 52 52 52 53 53 53 53 52 47 44 40 41 43 43 41 41 42 42 43 42 41 40 39 34 28 28
55 55 53 54 54 53 51 49 51 51 51 51 51 52 52 51 51 50 50 51 53 53 53 52 51 49 46 44 43 41 39 38 36 41 40 38 35 31 28 27 26 25 25
56 55 55 55 54 54 53 51 49 50 51 51 51 51 52 52 52 51 45 43 40 40 42 51 52 48 42 38 38 38 37 35 34 32 30 28 23 20 22 20 20 21 21
56 56 55 55 56 56 54 53 50 50 52 52 53 53 53 52 51 49 43 37 32 32 33 34 33 31 31 33 33 33 31 30 30 29 28 28 23 20 21 23 23 23 25
55 55 56 56 56 56 54 53 51 51 52 45 41 42 46 47 45 43 37 31 28 28 31 31 30 29 28 30 32 30 28 28 26 26 27 23 20 18 19 19 20 23 21
54 55 52 46 45 49 45 49 48 49 42 36 33 34 36 37 36 34 32 28 26 25 26 27 28 29 29 29 28 28 28 25 25 24 19 18 20 17 16 20 18 20 20

GFSMA_sfc_30mbdewp_066.txt.gz
Dewpoint
62 61 60 60 59 58 56 54 51 48 48 52 53 52 52 53 54 54 55 56 55 54 53 53 53 52 52 52 51 50 50 50 49 49 48 47 46 45 45 45 45 45 45
61 60 59 58 57 56 55 52 50 46 48 50 52 52 52 53 54 55 55 55 55 55 54 53 53 52 52 51 51 50 49 49 48 48 47 46 45 44 43 43 43 42 42
60 59 56 55 55 54 51 50 51 48 47 50 52 52 53 53 54 54 54 55 55 55 55 54 53 53 52 51 51 51 49 49 48 48 47 46 45 44 42 42 42 42 41
60 57 54 53 52 51 48 50 51 49 47 51 52 52 53 53 53 54 53 54 54 54 54 55 55 54 53 52 51 51 51 50 49 48 47 46 45 44 43 41 41 40 40
59 56 53 53 51 50 47 50 51 50 48 51 51 52 53 53 53 53 53 53 54 54 54 55 55 55 55 53 52 51 51 51 51 49 49 48 46 45 43 42 40 40 39
59 58 54 56 51 49 49 51 51 50 50 50 50 51 52 52 53 53 53 53 53 53 54 54 55 54 54 55 54 53 52 51 51 51 50 49 48 47 45 43 42 40 40
58 59 56 55 55 53 52 51 50 49 50 50 49 48 50 52 52 52 53 53 53 53 53 53 54 54 54 55 55 54 53 53 52 51 51 51 50 49 47 45 44 42 41
56 57 58 55 56 55 53 51 49 48 49 49 47 47 45 46 49 50 52 52 52 53 53 53 53 54 54 54 55 56 55 54 54 53 52 52 52 50 50 48 46 44 43
55 54 56 54 55 55 52 50 49 47 47 48 47 46 42 43 43 45 48 51 52 52 52 53 53 53 54 54 54 55 56 55 56 56 55 54 53 52 51 50 49 47 46
54 53 54 53 54 54 53 51 49 47 47 47 46 45 45 43 41 40 45 46 48 51 52 53 53 54 54 54 54 54 54 55 55 56 57 56 55 54 53 52 51 50 49
53 52 52 53 52 53 54 53 50 47 47 47 45 45 46 49 50 47 44 44 47 47 48 51 54 54 55 54 54 54 53 53 54 54 56 57 57 56 54 54 53 52 51
52 52 51 52 52 52 54 54 51 46 46 46 48 45 44 44 47 48 47 46 45 45 47 48 49 53 54 55 55 54 54 53 53 54 54 55 56 57 56 55 54 54 53
51 51 52 52 53 52 53 54 51 48 48 50 50 47 48 46 47 48 47 46 47 47 48 48 49 49 50 52 54 53 53 53 52 52 53 54 55 56 57 57 56 55 55
51 52 52 52 52 52 51 52 55 53 52 52 52 53 52 52 52 51 49 49 48 48 49 48 49 50 50 50 50 49 50 50 51 51 51 52 53 54 55 56 56 56 56
53 53 53 52 53 54 54 53 51 53 55 54 53 54 53 54 55 54 53 51 48 45 46 48 49 50 50 51 50 50 49 49 49 48 49 51 52 53 53 54 55 55 54
52 52 55 54 53 53 54 55 55 54 53 54 55 55 54 54 54 54 53 52 51 48 46 47 48 50 51 51 51 50 50 50 49 49 49 49 50 51 51 52 53 52 52
50 50 53 54 54 53 53 53 54 55 55 54 54 55 55 54 54 54 54 53 52 52 50 49 50 50 51 51 51 51 51 51 51 49 49 49 49 49 50 49 49 48 47
50 49 49 53 54 54 53 52 51 51 54 54 54 54 54 54 54 54 54 53 53 52 51 49 50 50 50 51 51 50 51 51 50 50 48 48 48 47 47 46 45 44 44
51 51 49 48 50 54 54 54 53 52 52 54 54 54 53 53 53 53 53 53 53 53 53 52 50 51 51 48 48 48 49 49 49 49 47 47 46 46 45 43 43 43 42
53 52 51 50 49 48 51 53 53 53 52 52 53 54 54 54 53 53 53 53 53 52 52 52 52 52 51 48 47 48 47 47 48 47 47 46 45 44 43 42 41 41 40
54 53 53 53 52 51 49 49 50 50 51 52 53 53 54 54 53 53 53 53 53 53 52 52 52 52 50 43 47 48 47 48 45 46 44 43 43 43 42 42 42 41 41
54 54 53 53 53 53 52 50 50 50 50 50 52 53 54 53 52 51 51 51 52 52 52 51 51 51 51 49 49 48 46 40 40 41 41 40 41 39 39 41 41 39 38
54 54 54 54 53 53 52 51 50 51 51 52 51 51 51 52 51 52 49 47 43 40 41 49 51 51 51 51 49 42 39 38 35 32 34 32 32 31 32 30 27 29 28
54 54 54 54 54 54 53 51 50 50 51 51 52 52 52 52 52 51 48 41 36 34 34 37 40 35 34 35 38 36 34 31 31 30 32 29 31 31 31 30 30 29 25
53 55 55 55 55 54 54 51 50 52 52 52 51 50 50 51 52 50 43 36 31 29 32 32 32 32 32 33 33 33 31 31 27 26 27 28 26 26 28 29 31 25 23
44 50 56 56 55 55 53 51 51 54 53 52 41 39 41 46 47 45 42 34 29 27 28 28 28 28 28 28 29 30 30 29 26 23 24 25 24 23 22 20 20 22 21

GFSMA_sfc_30mbdewp_069.txt.gz
Dewpoint
62 63 61 61 59 58 56 53 50 50 52 52 53 53 53 53 54 55 55 55 56 55 54 54 54 53 53 53 52 52 51 51 50 49 49 49 48 48 48 48 47 47 47
62 61 60 60 58 57 55 52 49 50 52 52 52 52 53 53 54 55 55 55 55 55 54 54 53 53 53 52 52 51 51 50 50 49 48 48 46 46 46 46 46 45 45
62 61 59 58 57 56 54 51 48 49 51 52 52 52 53 53 54 54 55 55 55 55 55 55 53 53 53 53 52 51 50 50 49 49 48 47 46 45 44 44 44 43 43
61 59 58 57 56 54 52 51 49 48 49 52 52 52 52 53 54 54 54 54 55 55 55 55 55 53 53 53 53 51 50 50 49 49 48 47 46 45 44 43 43 43 42
59 57 55 54 54 52 51 50 50 49 49 52 52 52 52 53 53 54 53 54 54 54 54 56 55 55 54 53 52 53 53 52 50 50 49 48 47 46 44 43 43 42 41
58 55 54 53 52 49 49 49 49 50 50 52 51 52 52 53 53 53 53 53 54 54 54 54 55 55 55 55 53 53 53 52 52 52 51 50 48 47 46 45 43 42 42
58 55 54 53 51 46 47 51 50 49 50 51 50 50 51 52 52 53 53 53 53 53 53 53 54 54 54 56 56 54 54 53 53 52 52 52 51 49 48 46 45 44 43
60 56 54 54 51 48 50 51 49 49 49 50 49 48 48 49 51 52 52 52 52 53 53 53 53 54 54 54 55 56 55 55 55 54 53 53 53 52 51 49 48 46 45
58 59 55 54 54 51 52 51 50 49 48 50 49 47 44 46 46 48 50 52 52 52 52 53 53 53 54 54 54 55 55 56 56 56 56 55 54 54 53 52 51 49 47
57 57 58 55 56 55 53 51 50 49 49 48 47 47 46 46 45 44 46 50 52 52 52 52 52 53 53 54 54 54 54 54 55 56 57 57 57 55 55 54 53 52 50
56 55 57 56 54 56 54 53 50 48 49 49 47 46 46 46 47 44 42 44 47 50 52 52 53 53 53 53 53 54 53 53 53 54 56 57 57 58 57 56 55 54 53
56 55 56 55 55 55 55 54 51 49 49 49 48 47 46 46 47 48 46 46 43 45 48 50 52 53 54 54 54 53 53 53 53 53 54 55 56 57 58 57 56 56 55
55 54 54 55 54 54 55 55 54 54 51 49 49 47 47 46 45 48 47 46 46 47 47 48 48 49 52 54 54 54 54 53 52 52 53 54 55 56 56 57 57 57 57
54 53 54 55 55 55 55 55 55 54 54 51 49 49 48 48 48 47 45 45 44 46 48 47 49 49 49 50 52 53 54 53 52 52 52 52 53 54 55 55 56 57 57
53 52 53 54 55 55 54 54 55 54 54 51 49 51 51 50 51 50 49 47 45 43 45 48 48 50 50 50 50 50 51 51 51 51 51 51 52 52 53 53 54 56 56
53 53 52 52 53 54 54 53 52 51 53 52 52 51 52 52 53 54 53 52 51 49 47 47 47 49 50 51 51 51 51 50 49 48 48 48 49 50 51 52 53 54 54
52 52 54 53 52 53 53 52 51 51 51 52 53 53 53 53 53 53 54 53 52 52 50 50 49 49 49 50 50 51 51 50 50 49 48 47 47 48 49 51 51 52 52
52 51 52 54 54 52 52 52 53 53 54 53 52 52 52 53 54 54 54 53 53 53 52 50 50 50 49 50 50 50 50 51 51 50 49 48 47 48 48 49 49 49 50
51 51 51 50 52 53 53 52 51 51 51 53 54 54 53 53 53 53 54 53 53 53 53 52 50 51 50 49 49 49 50 50 50 51 50 48 48 48 48 47 48 47 47
52 51 50 50 50 50 52 53 53 52 51 51 50 51 52 53 53 52 52 53 53 52 52 52 51 51 51 50 48 49 49 48 49 50 49 49 47 46 46 46 45 45 44
53 53 52 51 50 49 49 49 51 52 52 51 51 51 52 52 52 52 52 52 52 52 51 51 51 51 51 49 49 50 49 50 50 49 49 47 46 45 44 44 43 43 43
54 54 53 53 52 52 50 49 48 48 49 51 51 51 51 50 51 50 50 51 50 51 51 51 50 50 50 51 51 50 50 48 46 43 45 41 41 41 41 42 42 42 41
54 54 54 54 53 53 52 50 49 50 49 49 50 50 50 51 51 52 50 49 49 49 50 51 51 51 51 51 52 50 49 49 47 35 37 33 34 32 34 34 35 35 35
46 49 54 54 54 54 53 51 50 51 52 51 51 51 51 51 51 52 52 51 49 49 43 44 47 49 45 41 43 44 45 34 31 30 33 31 31 30 31 32 33 33 33
42 43 45 46 51 54 54 51 49 51 52 52 53 52 52 52 51 50 50 50 43 36 33 33 33 33 32 33 35 36 34 34 28 25 26 28 26 27 28 28 30 29 28
39 40 38 34 33 33 35 35 39 50 52 52 52 52 39 38 43 47 50 49 40 31 29 27 26 27 28 28 28 28 31 28 25 23 24 25 24 25 23 25 26 25 25

GFSMA_sfc_30mbdewp_072.txt.gz
Dewpoint
61 60 61 61 61 58 55 54 54 55 53 53 53 53 53 54 54 55 56 56 55 54 54 53 53 54 54 53 53 53 52 52 51 51 51 51 50 50 50 49 49 49 48
61 60 61 60 59 58 54 52 53 53 52 53 53 53 53 54 54 55 55 55 55 55 55 54 54 53 54 53 53 52 52 51 51 50 50 49 49 49 49 48 48 47 47
61 61 61 59 58 56 53 50 50 52 52 52 52 53 53 54 54 54 55 55 55 55 55 55 54 54 53 53 53 52 52 51 50 49 49 48 47 48 47 47 46 46 45
62 61 60 58 57 55 52 49 50 51 52 52 52 52 53 54 54 54 55 55 55 55 55 55 55 55 54 54 53 52 52 51 50 50 49 48 47 46 45 45 45 44 44
62 60 59 58 56 54 52 49 49 50 52 51 52 52 53 53 54 54 54 54 54 54 55 55 55 55 55 54 54 53 52 51 51 50 50 49 48 46 45 45 45 44 44
61 59 57 56 55 54 52 50 48 49 52 52 52 52 52 53 53 53 53 54 54 54 54 55 56 55 55 55 54 54 54 53 52 51 51 50 49 48 47 46 45 44 43
58 56 55 54 53 52 51 50 48 48 51 52 51 51 51 52 53 53 53 53 53 54 54 54 54 55 55 55 55 54 54 54 54 53 53 52 51 50 49 47 46 45 44
57 56 54 53 51 49 50 50 49 49 51 52 50 49 48 49 51 52 52 52 53 53 53 53 53 54 54 54 56 56 55 55 54 54 54 54 54 52 51 50 49 47 46
58 57 56 51 51 48 49 50 50 48 49 51 51 48 47 47 49 50 51 52 52 52 53 53 53 53 54 54 54 55 56 56 57 57 56 56 55 55 54 53 52 51 49
59 57 56 54 51 49 50 50 50 49 50 49 49 48 48 47 47 46 48 51 52 52 52 52 53 53 53 54 54 54 54 54 55 56 57 58 58 56 56 55 55 54 52
59 59 56 56 53 53 53 51 51 49 49 50 48 47 46 47 47 45 42 45 48 51 52 52 52 52 53 53 53 53 53 53 53 54 55 56 58 58 58 57 56 56 55
57 58 59 56 56 56 54 53 52 50 49 50 49 48 46 46 46 45 43 44 44 46 50 52 52 52 53 53 53 53 53 52 52 53 54 55 56 57 58 58 58 57 57
55 55 57 57 57 55 55 54 52 51 50 50 50 48 48 47 48 47 45 45 44 46 46 49 51 52 53 54 54 53 53 52 52 52 53 54 55 56 57 57 57 58 58
56 56 56 56 56 56 56 55 54 53 53 51 50 51 49 49 48 47 44 43 44 45 47 46 49 49 50 52 53 53 54 53 52 52 52 52 53 54 55 56 56 57 57
56 55 55 56 56 56 56 56 55 55 55 54 53 53 51 50 50 49 48 47 45 42 42 45 47 49 49 50 50 51 52 52 52 51 51 51 51 52 53 53 54 55 56
55 53 54 55 55 56 56 56 55 55 55 55 55 54 53 52 51 51 49 49 47 44 42 44 47 49 50 50 50 50 50 50 50 50 50 50 50 51 51 52 52 53 54
53 52 52 53 54 55 55 55 54 54 54 54 54 53 52 51 50 51 52 51 50 50 47 48 50 50 49 49 50 51 51 51 51 49 49 48 48 48 48 49 50 51 52
52 53 53 52 52 53 54 54 53 52 52 52 53 52 51 51 50 50 51 52 52 52 51 49 50 51 50 50 50 50 50 50 51 50 49 48 47 47 46 47 48 48 49
52 52 52 53 53 52 52 53 53 52 51 51 51 50 51 52 52 52 53 53 53 53 53 52 51 52 52 51 50 50 50 51 50 50 50 49 48 48 47 46 46 47 48
51 51 51 51 51 53 53 53 52 52 52 52 53 52 51 51 50 50 51 51 52 52 52 52 52 52 51 52 49 50 49 49 49 50 50 50 50 48 47 46 46 47 47
53 52 51 51 51 51 51 51 52 52 52 51 51 51 51 52 52 52 51 51 52 52 51 50 49 50 50 50 49 50 49 50 51 51 51 50 49 48 47 45 46 45 45
55 54 53 52 51 51 50 49 49 50 51 51 51 51 51 50 49 48 49 50 49 49 50 49 49 48 48 49 49 50 50 49 49 50 50 49 43 41 39 40 43 43 43
45 47 51 54 54 53 53 50 48 49 50 49 49 49 50 50 50 51 49 47 47 47 48 49 49 49 49 50 50 50 50 50 50 45 43 39 34 32 34 35 35 35 36
42 43 44 44 43 40 34 34 37 48 51 51 51 51 51 50 51 51 51 50 49 48 48 48 49 50 39 38 43 47 48 46 32 30 32 33 31 29 31 31 32 31 31
39 39 36 35 32 32 32 34 35 39 48 51 52 53 52 52 51 50 49 49 50 44 33 35 34 30 29 30 34 38 39 38 32 26 26 28 27 26 27 26 28 29 28
35 34 30 29 28 29 30 32 34 38 41 45 49 34 33 33 35 39 44 49 49 37 28 26 26 26 26 26 26 26 30 32 28 23 24 25 24 26 21 25 25 25 25

GFSMA_sfc_30mbdewp_075.txt.gz
Dewpoint
62 62 61 62 62 60 60 59 58 58 57 56 55 55 55 54 54 53 53 55 54 53 54 55 55 56 55 56 54 53 53 52 52 52 52 52 52 51 51 50 50 50 50
62 61 61 62 60 59 58 57 57 56 55 55 55 54 54 54 53 54 53 53 54 56 57 55 56 54 54 54 53 53 52 52 52 52 52 51 51 51 50 50 50 49 49
62 60 60 61 60 57 56 56 56 55 55 54 53 54 54 54 53 54 54 53 54 56 55 55 54 54 54 53 53 53 53 52 52 51 51 50 50 50 50 49 49 48 48
62 60 60 60 59 56 54 54 54 54 54 53 53 53 52 53 53 54 54 53 52 52 54 55 55 54 53 53 53 53 53 52 51 50 50 49 49 49 49 48 48 47 47
62 61 60 59 58 55 53 53 53 54 53 52 52 52 52 52 54 54 54 54 54 53 52 55 55 55 55 54 53 53 53 52 51 51 50 50 48 48 47 47 47 46 46
61 61 60 58 58 55 52 52 53 53 53 52 51 52 52 53 53 53 53 54 54 55 55 54 54 54 55 55 54 53 53 53 52 52 52 50 50 48 48 47 46 46 46
62 60 58 58 57 55 53 52 52 53 52 53 52 52 52 53 53 53 54 53 53 54 54 54 55 54 54 55 55 55 54 54 53 53 52 52 51 50 49 48 47 47 46
60 59 58 57 56 56 54 52 51 52 52 53 50 50 49 50 52 53 53 53 53 53 53 54 54 54 54 54 54 56 55 55 54 54 54 54 54 53 52 51 49 49 47
58 57 57 56 55 54 53 52 51 51 51 53 52 50 48 47 49 52 53 53 53 53 53 53 53 54 54 54 54 55 56 56 57 57 56 56 56 56 55 54 53 51 50
58 57 55 54 53 52 53 52 51 50 51 51 52 50 51 51 48 48 50 52 53 53 53 53 53 53 53 53 53 53 54 55 55 57 58 59 58 57 57 56 55 55 54
58 58 56 54 52 51 52 52 51 50 51 52 51 50 49 49 51 49 48 49 51 52 52 53 53 53 53 53 54 54 53 53 53 54 56 57 58 59 59 57 57 57 56
59 57 57 55 53 52 52 52 52 51 51 52 52 51 49 48 47 46 45 48 48 48 51 52 53 53 53 54 54 53 53 53 52 53 54 55 56 56 57 58 59 58 58
57 58 57 57 56 54 53 52 52 51 52 51 52 51 51 50 49 47 46 45 42 46 48 50 53 53 53 54 54 53 53 52 52 52 52 53 54 55 56 57 57 58 59
56 57 58 57 57 56 55 54 53 52 52 52 52 52 51 51 51 49 46 45 45 46 48 47 50 52 53 53 54 54 54 52 51 51 51 52 53 53 54 55 56 57 57
57 56 57 57 57 57 56 55 54 53 52 52 52 53 52 51 52 51 50 47 42 40 40 45 48 51 51 51 53 53 53 53 52 51 51 51 51 52 52 53 54 54 55
57 56 56 56 56 57 57 56 55 55 54 54 54 53 53 53 52 52 50 50 49 45 42 44 46 49 52 51 52 51 52 52 51 51 50 50 50 50 51 51 52 52 53
55 55 55 56 56 56 56 56 56 56 55 54 54 53 53 54 54 53 53 52 50 50 48 47 47 48 52 52 52 52 52 52 51 50 49 48 48 48 49 49 50 50 51
55 54 54 55 55 55 56 56 55 55 55 55 54 54 54 54 54 54 53 51 52 51 50 48 48 48 51 52 53 53 52 51 51 51 50 49 48 47 47 47 47 48 48
54 54 53 53 53 54 54 55 55 55 55 54 54 54 54 54 53 52 52 51 51 51 51 50 49 50 50 52 53 53 53 53 52 51 50 49 49 48 47 47 46 46 46
53 53 53 53 53 53 53 53 54 54 54 53 53 53 53 53 53 52 52 52 51 51 51 52 52 52 51 51 52 52 52 53 51 51 51 50 50 49 48 47 46 45 45
53 53 53 53 53 53 54 53 53 53 53 53 53 53 53 53 52 52 51 51 52 51 51 51 50 50 50 50 51 51 51 51 51 52 52 53 53 52 52 49 47 47 46
48 52 53 52 52 48 37 40 47 53 53 53 52 53 53 52 52 50 49 49 50 50 50 50 49 49 49 50 50 50 50 50 49 52 51 51 49 43 37 37 39 43 44
43 44 43 43 40 34 33 35 36 43 49 51 52 52 52 52 52 52 50 48 48 48 48 49 49 49 49 49 50 49 49 49 49 50 48 49 35 31 33 33 34 35 35
41 38 36 34 35 32 32 33 34 40 44 47 50 51 51 50 51 50 51 51 50 49 47 47 48 49 40 34 37 43 46 47 36 29 32 34 30 27 29 30 30 30 30
36 32 31 30 30 30 30 31 33 37 41 43 35 32 32 34 35 36 41 48 50 39 31 30 30 29 28 28 29 36 37 38 34 25 26 28 26 24 24 24 27 28 28
30 29 28 28 28 28 28 29 32 36 36 33 29 28 29 31 31 32 36 38 37 30 27 25 24 24 24 24 24 25 29 34 32 28 24 25 24 26 21 25 25 25 25

GFSMA_sfc_30mbdewp_078.txt.gz
Dewpoint
61 62 63 63 62 63 62 63 60 60 58 56 56 55 54 53 52 49 53 57 58 58 54 54 53 55 55 56 55 54 53 53 53 53 53 53 53 53 53 52 51 51 51
62 62 62 62 62 62 62 61 59 59 56 55 55 55 54 51 51 49 50 54 56 56 56 56 56 56 55 55 54 53 53 53 53 53 53 53 53 52 52 51 51 51 50
63 62 61 62 62 62 62 60 58 57 55 54 54 54 53 51 50 50 49 51 53 55 56 57 57 56 56 55 54 53 53 53 53 53 53 52 52 51 51 51 51 50 50
62 61 60 61 60 60 61 59 57 55 54 53 53 52 51 51 50 50 49 50 52 53 55 56 56 55 55 54 54 53 53 53 53 52 52 51 51 51 51 50 50 49 49
61 61 61 61 59 59 59 58 56 54 53 52 52 51 51 51 51 49 50 50 50 50 52 55 55 54 54 55 53 54 53 53 52 52 51 51 50 50 50 50 49 49 48
62 61 61 60 59 58 57 57 55 55 53 51 50 50 52 52 51 50 49 50 50 50 49 52 52 53 55 55 54 53 53 53 53 52 52 51 51 49 49 49 48 48 47
62 62 61 59 59 57 56 56 55 54 52 52 50 51 52 52 52 51 51 50 49 50 50 50 50 49 52 55 56 54 54 54 54 53 53 53 52 51 50 49 48 48 48
61 61 60 59 58 57 56 56 55 53 52 52 50 50 50 51 52 53 52 51 50 49 49 50 50 50 49 50 52 55 55 55 55 54 54 54 54 54 52 51 50 50 49
60 61 59 59 58 57 56 55 55 53 52 52 50 47 47 45 49 51 52 52 51 51 49 50 51 51 51 50 51 53 55 56 57 57 57 57 56 56 55 54 54 52 51
59 59 59 59 58 58 56 56 54 54 52 51 52 49 47 44 46 48 51 52 52 52 52 51 51 51 51 51 52 51 53 54 55 56 58 59 58 58 57 57 56 55 55
58 58 58 58 58 58 57 56 54 54 53 51 51 51 51 50 48 44 45 50 52 52 52 53 52 52 53 53 53 54 52 52 54 54 56 57 58 59 59 58 58 57 57
58 58 57 57 56 56 56 56 54 54 53 52 52 52 50 49 48 45 44 46 48 51 52 52 54 54 53 53 53 53 53 53 52 53 54 55 56 56 57 58 59 59 58
57 57 57 56 55 54 55 55 55 54 53 52 52 51 52 50 48 47 45 42 44 46 49 52 53 53 53 55 55 54 53 52 52 52 53 53 54 55 55 56 57 58 59
58 59 57 56 55 54 54 54 54 54 54 53 53 53 52 53 51 49 47 46 41 42 43 44 47 51 53 54 54 53 54 52 51 51 51 52 53 53 54 55 56 56 57
57 58 58 58 57 55 54 53 53 52 53 54 53 54 53 51 52 51 50 47 45 44 41 42 44 48 51 50 52 53 54 55 52 51 51 51 51 52 52 53 53 54 55
56 57 57 57 57 57 56 55 53 53 53 52 53 53 53 52 52 52 51 51 50 49 45 45 43 45 49 49 50 53 53 53 52 51 51 50 50 50 51 51 52 52 53
57 56 56 57 57 57 56 56 55 53 53 53 53 53 52 53 53 53 53 52 52 51 49 49 49 48 49 49 49 50 51 51 51 50 50 50 49 49 49 49 50 50 51
56 56 56 56 56 56 57 56 56 55 54 52 52 53 53 54 54 54 54 53 53 52 51 49 50 50 50 50 51 52 52 50 51 50 50 49 48 48 47 47 47 48 48
55 55 55 55 56 56 56 56 56 56 56 56 55 53 53 52 51 52 53 52 52 52 52 51 50 51 50 51 50 51 52 53 53 51 51 49 48 48 47 46 46 46 46
54 54 54 54 54 54 55 56 55 55 56 55 55 55 55 54 54 53 54 54 53 53 53 52 51 50 50 50 50 49 50 52 52 51 50 50 51 50 48 48 47 46 46
54 54 54 54 54 48 38 43 53 54 55 54 54 55 54 54 54 54 54 54 54 53 52 51 51 51 51 50 50 51 51 51 52 53 53 53 52 52 45 41 41 43 45
47 45 45 43 40 36 34 35 38 48 52 53 53 53 54 53 52 51 51 51 51 52 52 52 51 50 50 50 50 50 50 50 49 53 52 52 42 33 33 34 36 38 39
40 38 38 38 34 32 32 33 33 38 44 48 50 48 50 52 51 51 52 49 49 48 47 49 50 51 51 51 48 50 50 49 49 47 42 47 31 29 31 32 32 32 32
35 34 33 33 32 30 30 31 33 39 43 37 32 33 35 36 35 35 39 45 50 36 34 38 36 31 29 29 31 37 39 39 38 33 34 35 27 25 28 30 31 31 31
32 31 30 30 31 29 29 30 37 42 35 31 29 29 30 30 30 31 38 40 38 29 30 29 27 26 26 26 26 33 34 36 37 34 27 31 27 25 25 26 28 28 28
30 29 29 29 28 28 27 28 32 33 30 28 26 26 26 27 27 28 32 35 27 25 25 23 23 22 22 22 22 22 23 28 30 30 23 26 26 25 21 26 26 27 27

GFSMA_sfc_30mbdewp_084.txt.gz
Dewpoint
64 64 63 63 63 64 64 64 64 63 62 61 60 58 54 54 57 58 60 60 60 59 57 56 57 55 56 56 55 54 54 52 53 55 55 55 54 53 54 54 54 53 52
64 63 63 63 62 63 64 63 63 62 61 60 59 56 53 52 56 56 59 60 59 59 57 56 56 54 54 56 55 54 54 54 53 53 54 54 54 54 54 53 53 53 52
63 62 62 62 62 63 63 62 62 61 61 61 57 55 53 52 51 56 57 58 58 58 57 56 57 55 54 57 54 54 53 53 53 53 54 54 54 54 54 53 53 53 52
63 62 62 62 63 63 62 61 61 61 61 60 54 53 51 50 50 54 56 56 56 55 56 57 57 57 58 56 53 54 53 54 54 52 54 54 54 53 53 53 52 52 52
62 62 62 63 63 62 61 61 61 61 60 59 53 52 51 49 50 50 54 54 54 54 55 57 57 57 57 55 54 53 53 53 53 53 54 54 53 53 53 53 52 52 51
62 63 62 62 62 61 61 61 60 61 59 57 51 51 51 50 49 50 52 52 53 53 55 57 57 57 56 56 54 53 53 53 54 54 54 53 53 52 52 52 52 52 51
63 63 62 62 61 60 60 60 60 59 59 56 53 53 53 54 50 50 52 53 53 54 54 55 55 54 55 56 56 54 53 53 54 53 53 53 53 53 52 52 52 51 51
62 62 62 61 60 60 60 59 59 58 58 55 51 51 49 50 52 52 51 49 52 52 53 54 53 53 53 55 56 56 55 54 54 54 54 55 55 55 54 53 52 52 52
61 62 62 60 60 60 59 59 59 58 56 55 51 49 49 48 50 53 51 52 52 51 49 53 53 52 53 53 54 56 55 55 56 56 56 56 56 56 56 55 54 54 53
61 61 61 60 60 60 59 59 59 58 57 53 53 51 49 49 48 50 52 52 54 50 51 51 50 51 52 54 54 54 55 54 55 57 58 58 58 57 57 57 57 56 56
61 62 60 60 59 59 59 59 59 58 58 54 52 51 49 51 49 50 49 52 53 52 52 52 53 51 51 52 53 54 53 53 53 54 56 58 59 59 58 58 58 58 58
58 59 60 59 59 59 58 58 59 58 58 56 54 52 51 50 49 49 49 51 50 51 51 51 52 53 52 52 52 52 52 52 52 52 54 55 57 58 59 60 60 59 59
57 57 59 59 58 58 58 57 58 58 57 56 54 52 53 52 51 51 50 50 51 51 52 52 54 53 54 55 54 51 52 51 51 51 52 53 54 55 56 57 58 60 60
57 58 58 58 58 59 58 58 57 58 57 56 54 54 53 53 53 52 51 50 48 48 51 51 54 54 55 55 55 55 54 52 51 51 51 52 53 54 55 55 56 56 57
58 58 57 57 57 58 59 58 57 57 57 56 55 54 54 54 54 53 53 53 50 47 48 48 51 54 55 56 56 56 55 55 53 52 51 51 51 52 53 53 54 54 55
58 58 57 56 56 57 57 58 57 57 57 56 56 55 54 54 55 54 53 53 52 50 47 49 49 49 52 52 53 53 54 54 54 53 52 51 51 51 51 52 52 52 53
58 58 58 56 56 56 56 56 56 56 56 55 54 54 54 55 54 54 53 51 52 49 49 49 49 49 49 51 51 51 53 54 54 53 52 51 50 50 50 50 50 50 51
57 57 58 57 56 55 55 55 54 54 54 54 54 54 54 54 54 54 54 53 51 50 48 46 50 50 50 51 52 52 52 51 50 50 50 51 50 50 49 49 49 49 49
56 56 57 57 57 56 55 55 54 54 53 52 52 52 52 53 51 51 52 51 52 52 51 51 49 48 48 50 50 50 50 51 51 50 49 48 48 49 47 43 43 44 45
56 56 54 48 47 44 45 49 55 55 54 54 53 53 53 52 51 51 50 51 52 51 51 50 50 50 50 50 50 50 50 52 52 52 51 50 43 39 38 38 38 39 39
45 45 42 40 38 36 35 38 45 53 56 55 55 55 49 43 42 43 51 50 52 52 52 51 51 51 51 52 53 54 54 54 54 46 48 42 39 35 35 35 36 37 37
39 37 35 35 35 34 34 35 39 48 43 43 41 41 41 36 37 38 36 35 36 44 48 49 51 51 50 41 40 41 43 46 47 40 41 42 36 33 33 33 34 34 34
35 34 33 32 32 33 35 38 38 36 34 33 34 34 34 33 32 34 36 32 31 31 31 36 38 30 31 29 31 35 38 39 40 34 37 40 34 31 31 32 32 31 31
34 33 32 31 30 32 37 35 34 32 30 29 29 30 30 30 31 34 36 30 28 28 28 28 27 27 27 27 27 31 33 33 35 27 28 34 31 28 28 29 30 30 29
32 31 31 30 29 30 33 35 33 30 29 28 28 28 28 28 30 36 32 28 26 26 28 27 26 26 26 26 26 27 26 30 32 25 26 27 27 26 26 26 28 28 28
30 29 27 28 28 28 30 31 31 29 27 26 26 27 27 27 27 28 27 25 24 24 24 25 26 27 27 26 25 26 26 25 24 25 24 25 27 27 25 26 26 26 27

GFSMA_sfc_30mbdewp_087.txt.gz
Dewpoint
63 62 61 63 63 64 64 63 63 64 63 62 61 60 58 58 59 60 61 61 61 60 59 59 58 57 57 55 55 54 54 56 55 56 56 56 54 54 55 55 55 54 53
63 62 62 62 63 64 64 63 63 63 63 62 61 60 57 58 58 60 60 60 60 59 58 57 55 56 56 56 57 54 53 54 54 56 56 55 54 55 55 55 54 53 53
64 64 63 62 63 64 64 63 62 62 61 61 61 58 56 57 57 59 59 59 59 58 58 58 57 57 55 56 55 54 54 54 54 55 55 55 55 55 55 54 53 53 53
64 63 63 62 63 63 63 62 61 60 60 60 60 59 54 56 56 58 58 58 58 58 57 58 57 57 56 55 53 54 54 53 53 54 55 55 55 55 54 54 53 53 52
63 62 62 62 63 62 62 61 60 60 60 60 60 58 51 54 55 56 57 57 57 56 56 57 57 56 57 57 54 54 53 54 54 54 54 54 54 54 54 53 53 53 53
63 62 61 62 62 61 60 60 60 60 60 60 59 55 49 51 53 55 55 55 55 55 56 57 57 57 57 56 54 54 53 54 54 53 54 55 54 54 54 53 53 53 52
62 62 62 62 61 61 60 60 60 59 59 59 56 53 51 49 49 53 54 53 53 54 56 57 57 56 57 56 55 54 53 54 54 54 54 54 54 54 53 53 53 53 52
62 62 62 61 61 60 60 60 59 59 59 59 54 50 49 50 51 52 52 52 52 53 55 56 56 55 55 56 56 56 55 54 54 54 54 55 55 54 53 53 53 53 53
62 62 61 61 61 60 60 60 59 58 57 58 56 49 48 46 49 52 52 52 52 53 54 55 55 54 54 55 55 56 55 55 56 56 56 56 56 56 55 54 54 53 53
62 62 62 61 60 60 60 59 59 58 58 55 55 51 50 50 46 47 51 50 53 52 53 54 54 53 53 53 54 55 55 55 55 57 57 57 57 57 57 57 57 56 55
61 61 61 61 60 60 60 60 59 58 58 56 53 50 49 50 50 49 47 49 51 52 52 53 54 53 53 53 53 53 53 54 53 54 56 58 59 58 58 58 58 58 58
60 61 60 60 60 60 60 60 59 58 58 57 55 52 50 50 49 49 49 50 48 51 52 52 53 52 52 53 54 54 53 53 53 53 54 56 58 59 60 59 59 59 59
57 57 60 59 59 59 59 59 59 58 58 57 56 55 53 51 51 51 51 51 50 51 51 51 51 52 53 52 52 53 53 52 52 52 53 54 55 56 57 59 60 60 60
56 57 58 59 59 59 59 59 59 58 58 57 56 55 54 54 53 52 50 50 49 51 52 51 53 53 53 53 54 52 51 50 51 51 51 52 53 53 54 54 55 56 58
57 57 58 58 58 58 58 58 58 57 57 57 57 56 55 55 54 54 52 51 48 46 47 49 51 54 55 54 54 55 55 54 51 50 50 50 51 52 52 53 54 54 55
57 57 57 57 57 58 58 57 56 57 57 57 57 56 55 55 54 54 53 52 52 50 47 49 49 50 55 56 56 56 55 54 53 53 52 51 50 51 51 52 52 53 53
57 57 57 56 56 57 57 58 57 56 57 56 56 56 55 54 54 54 54 51 50 50 48 49 49 50 50 50 51 53 55 55 55 53 52 51 51 50 50 50 51 51 51
59 58 57 56 56 56 56 56 56 56 56 55 55 55 54 55 53 53 52 52 53 52 49 48 48 47 49 51 51 51 51 52 53 53 52 52 51 49 47 47 47 47 47
57 58 58 57 56 56 55 56 56 56 56 55 55 55 54 54 54 52 52 52 52 53 52 50 48 48 50 50 48 49 49 49 50 50 50 44 43 42 40 40 40 40 41
52 49 47 46 46 46 49 54 55 54 55 54 54 54 54 54 53 53 52 51 51 50 51 51 50 49 49 48 49 49 49 51 52 49 41 39 38 38 38 38 38 38 39
43 42 40 40 39 39 38 45 51 54 54 52 51 44 41 40 41 43 50 50 50 51 51 50 50 50 50 51 50 47 49 48 46 43 47 42 38 36 35 35 36 36 35
37 36 35 36 37 37 37 41 44 42 42 41 41 40 37 37 36 35 34 33 34 42 47 48 49 46 42 37 36 38 40 43 44 34 37 39 35 31 32 33 33 33 33
34 34 34 34 36 36 36 36 35 34 33 33 34 34 33 34 36 33 31 31 30 30 30 36 33 30 30 28 29 34 37 38 38 29 32 34 31 28 31 32 32 31 31
32 31 31 32 34 35 34 33 32 31 30 29 30 30 31 33 36 33 30 28 28 28 28 28 28 27 28 28 27 29 31 32 29 26 27 30 29 27 28 29 29 29 29
30 30 30 30 31 33 33 32 30 29 28 28 29 29 29 31 33 32 28 26 25 26 28 28 28 27 26 25 27 27 26 29 28 24 25 27 27 25 25 26 27 27 28
29 28 28 29 30 31 32 32 29 27 26 26 27 28 29 28 28 27 26 25 24 25 27 27 26 27 27 24 23 23 24 23 23 21 21 25 26 27 25 25 26 25 25

GFSMA_sfc_30mbdewp_090.txt.gz
Dewpoint
62 63 62 62 63 63 63 63 62 63 63 63 62 61 59 60 62 63 63 63 63 63 63 62 61 60 59 59 60 59 57 57 56 56 56 55 56 56 55 55 55 55 54
63 62 61 62 62 62 62 62 61 62 63 63 62 60 59 59 60 61 62 62 61 61 61 61 60 60 58 56 57 57 56 55 56 56 56 55 54 56 56 56 55 54 54
63 62 61 61 62 62 62 63 62 62 62 63 62 59 59 59 60 60 60 60 60 60 59 59 58 57 57 57 57 55 56 56 56 56 56 54 54 56 56 55 55 54 54
63 62 61 61 62 63 62 61 61 61 61 61 60 59 58 58 59 59 59 59 59 58 58 57 57 58 58 57 55 55 52 53 55 55 55 55 55 55 55 55 54 54 54
64 63 62 62 62 62 62 61 61 60 59 60 60 59 58 57 58 59 58 58 58 57 58 58 57 57 58 57 53 55 55 55 54 53 54 55 55 55 55 54 54 54 53
63 63 62 62 63 62 61 61 60 60 59 59 60 59 55 56 57 58 58 57 57 56 56 57 57 56 57 57 56 55 55 54 53 54 54 55 55 55 55 54 54 54 53
63 62 61 61 62 61 60 60 59 59 59 60 59 57 53 55 55 56 56 56 56 56 56 57 56 56 56 57 54 55 55 54 54 54 54 54 54 55 55 54 54 54 53
62 61 61 61 61 60 59 59 59 58 58 60 56 54 50 51 52 54 55 55 54 54 55 56 56 56 56 56 55 55 55 54 54 54 54 56 56 55 55 54 54 54 53
61 61 62 61 61 60 59 60 59 58 57 58 58 53 49 47 50 52 53 53 53 53 54 55 56 56 55 56 56 56 55 55 55 55 55 56 56 56 55 54 54 54 54
61 61 61 61 60 60 59 59 59 58 58 56 57 55 53 51 47 49 51 52 52 52 53 55 55 55 55 55 55 55 55 54 55 56 57 57 57 57 56 56 56 55 55
61 61 61 60 60 60 60 59 59 58 58 56 54 54 52 51 50 48 48 50 52 52 53 54 54 54 54 54 54 54 54 54 54 54 56 58 58 58 58 58 58 58 57
60 60 61 61 60 60 60 59 59 59 58 57 56 53 52 50 49 48 48 48 49 51 52 54 54 54 54 53 53 53 53 53 53 54 54 55 57 59 59 59 59 59 59
59 60 60 60 60 60 60 60 59 59 58 57 56 54 53 51 49 50 50 49 47 50 51 52 53 54 53 54 54 53 53 52 52 52 53 53 55 56 58 59 60 60 60
58 59 59 60 60 60 60 60 60 59 59 57 56 56 55 54 52 51 50 50 49 50 51 50 52 52 53 53 53 53 54 52 51 51 52 52 53 54 54 55 56 58 59
57 57 57 58 59 59 59 59 59 58 58 58 57 57 56 56 54 53 52 52 50 49 49 51 51 54 53 53 53 54 53 52 51 50 51 51 52 52 53 53 54 54 55
57 57 57 57 57 58 58 58 58 58 57 57 57 57 56 56 54 54 52 52 50 48 47 49 50 51 55 56 56 56 56 55 53 51 50 49 49 50 51 52 52 53 53
57 57 56 57 57 57 58 57 57 57 57 57 57 56 56 56 55 54 53 52 51 50 47 49 50 50 50 49 52 56 55 56 55 54 52 51 50 50 49 49 50 50 50
57 57 57 56 56 57 57 57 56 57 56 56 56 56 56 56 55 54 53 51 51 50 49 47 49 50 50 51 51 51 53 54 54 54 51 46 46 46 43 42 42 42 43
57 57 57 56 56 56 56 56 57 56 56 56 56 55 55 55 54 53 52 52 52 52 52 51 50 50 50 50 50 50 50 49 49 43 40 40 40 40 39 39 39 40 40
51 50 49 49 50 51 54 56 56 56 56 56 56 56 55 55 54 54 53 52 51 51 52 51 50 49 50 50 49 48 48 51 49 43 40 39 38 38 38 37 38 38 38
42 42 42 42 41 42 43 50 55 55 54 48 45 43 41 41 44 47 53 51 52 51 51 50 50 50 49 50 47 44 47 46 39 38 42 39 36 35 35 35 35 35 35
38 38 38 39 39 38 39 43 47 45 44 42 39 38 38 36 35 35 34 33 36 45 50 50 48 47 39 35 36 37 40 43 43 32 36 32 33 32 33 34 33 33 33
35 35 36 35 34 34 35 35 36 36 36 36 36 36 36 35 34 32 31 31 31 31 32 37 34 32 31 29 30 34 37 37 33 28 32 30 30 29 32 32 31 31 30
32 32 34 34 33 32 33 32 32 31 30 30 31 33 34 35 33 31 30 29 28 29 29 29 28 28 28 28 29 31 32 30 27 26 28 28 28 27 27 28 30 29 29
30 30 31 32 32 32 31 31 30 29 29 29 30 31 33 32 32 31 28 27 27 28 29 27 26 25 23 25 27 27 26 30 27 23 22 27 27 25 24 25 26 27 28
28 28 29 30 31 31 31 30 29 28 27 28 29 30 30 30 30 28 27 26 25 26 26 25 25 25 20 18 20 21 22 25 25 19 16 25 23 27 24 23 25 24 24

GFSMA_sfc_30mbdewp_093.txt.gz
Dewpoint
63 64 63 63 62 62 63 62 63 63 63 63 63 62 61 62 63 63 64 63 63 64 64 63 63 62 62 62 62 61 59 58 58 57 57 56 56 56 55 55 56 55 55
62 62 62 62 61 61 62 61 62 62 62 62 62 62 61 61 62 63 63 63 62 63 63 63 62 61 60 60 61 60 59 57 57 55 56 56 55 54 55 56 55 55 55
62 61 60 61 61 61 61 61 61 62 62 62 62 61 60 60 61 62 62 62 62 62 62 62 62 61 59 58 59 59 58 57 56 57 54 55 54 56 56 56 55 55 54
62 61 61 61 61 62 62 62 61 61 61 61 60 60 60 60 60 61 61 61 60 60 60 61 61 60 59 58 57 56 56 57 57 56 55 55 54 54 56 56 55 54 54
62 62 61 61 61 61 61 61 61 60 60 60 60 60 59 59 60 60 60 59 59 58 58 58 57 57 58 58 57 55 55 55 54 57 56 55 54 55 56 55 55 54 54
63 62 61 61 61 60 61 60 60 61 59 60 59 58 58 58 59 59 59 58 58 57 57 57 57 56 57 58 56 55 54 54 55 55 56 55 54 55 55 55 54 54 54
63 63 61 61 60 60 59 61 60 59 59 60 59 56 55 57 58 59 58 58 57 57 57 57 56 56 56 57 55 55 56 56 56 53 55 54 53 54 55 55 55 54 54
62 62 61 60 61 61 61 60 59 58 59 59 57 54 51 53 55 57 57 57 56 56 56 56 56 55 55 56 55 54 56 57 56 54 52 53 54 53 55 55 55 54 54
62 62 61 61 61 61 60 59 59 58 57 59 57 54 50 50 52 54 55 56 55 55 55 56 56 55 55 55 56 55 55 56 56 54 54 55 56 56 56 55 55 55 54
61 61 61 61 61 61 59 59 59 58 57 57 58 56 54 53 50 49 53 53 53 54 54 55 56 55 55 56 56 55 55 54 54 56 56 56 57 57 57 56 55 55 55
60 61 61 61 60 60 60 59 59 59 58 57 56 55 54 53 53 51 49 51 52 53 53 54 55 55 55 55 55 55 54 54 54 55 57 58 57 58 58 58 57 57 56
60 60 60 61 60 60 60 59 59 59 58 58 57 56 53 52 51 51 50 50 50 51 52 54 54 55 55 54 54 54 54 54 53 53 54 56 58 59 59 59 59 58 58
58 58 60 60 60 60 60 60 59 59 58 58 56 55 54 53 53 52 51 49 49 50 52 53 54 54 54 54 54 53 53 53 53 53 53 54 55 56 58 60 60 60 59
57 58 58 59 60 60 60 60 59 59 59 58 57 56 55 54 54 53 51 51 49 49 51 51 53 54 54 54 54 53 53 52 51 52 52 53 53 54 54 55 57 59 60
58 58 59 59 59 60 60 60 59 59 59 58 57 56 54 55 54 54 52 51 49 48 48 50 51 53 53 53 53 53 53 53 52 51 51 51 51 52 52 53 54 54 55
57 57 58 58 58 58 58 59 58 59 58 58 57 56 56 56 55 54 53 52 51 49 48 50 52 53 54 54 54 54 53 53 52 51 50 50 50 50 51 51 52 52 53
57 56 56 56 55 57 57 57 57 57 57 57 57 56 56 56 55 54 53 52 51 50 49 51 51 51 51 52 55 55 56 55 55 53 51 50 50 49 49 49 49 48 49
57 57 56 56 56 57 57 57 56 57 56 56 56 56 56 56 55 54 53 53 52 51 49 49 50 50 49 50 50 50 51 53 53 44 44 44 43 42 41 41 41 41 41
57 57 57 56 56 56 56 56 56 56 57 56 56 56 55 55 55 54 53 52 52 52 51 49 48 49 49 50 50 51 51 48 42 41 40 40 40 39 39 39 40 40 40
53 52 51 51 51 52 55 56 56 56 56 56 56 56 56 55 55 54 53 53 52 51 51 51 51 51 51 51 51 49 48 48 42 40 39 38 38 38 38 38 37 37 37
45 45 44 43 42 43 43 48 55 55 51 49 47 46 46 48 52 54 54 53 52 51 51 51 50 50 50 50 49 45 48 43 37 39 38 36 35 35 35 35 35 35 35
39 40 39 38 38 37 38 45 50 47 45 44 41 38 38 37 37 38 38 38 41 51 51 50 50 50 42 39 38 40 42 44 40 32 37 31 33 32 33 34 34 33 31
36 36 35 34 33 34 35 36 38 39 38 37 38 37 35 34 34 33 32 32 31 32 35 43 42 35 34 31 33 36 38 38 32 29 33 29 30 29 31 32 31 30 29
33 33 33 32 32 32 33 33 33 33 33 33 34 36 34 33 33 32 31 30 29 29 29 29 29 28 29 29 31 33 33 29 28 25 28 27 29 27 28 27 29 28 29
30 30 32 31 31 31 32 31 31 31 30 30 32 33 32 31 32 32 30 28 28 28 27 25 24 24 26 28 30 29 30 31 27 22 20 27 27 25 23 24 24 27 27
28 28 29 30 31 30 31 31 30 29 29 29 29 30 31 30 30 29 28 27 25 25 25 23 21 18 16 17 19 20 26 28 23 19 13 23 21 26 24 23 24 23 23

GFSMA_sfc_30mbdewp_099.txt.gz
Dewpoint
66 66 67 66 66 66 65 65 65 64 64 63 64 63 62 62 63 63 64 64 62 65 66 65 65 65 65 64 64 63 62 61 60 59 59 58 57 57 56 56 56 56 54
66 65 65 65 64 64 65 64 64 63 63 63 63 63 62 62 62 62 63 64 63 63 65 66 65 65 64 64 64 63 62 61 60 59 58 56 56 56 55 55 56 54 53
66 65 64 64 64 63 63 63 62 62 62 63 62 62 62 62 62 62 63 63 63 62 64 64 64 63 63 63 63 62 62 61 60 59 57 56 56 56 55 55 55 55 53
65 64 64 63 63 63 62 62 61 61 61 61 61 61 62 61 61 62 62 63 63 61 62 63 63 63 63 63 62 62 61 60 58 58 57 56 55 55 55 55 54 54 54
64 63 62 62 63 63 62 61 61 60 60 61 60 61 61 61 61 61 61 62 62 61 61 62 62 62 62 62 61 60 59 58 56 57 56 55 55 55 56 54 54 55 55
63 63 62 62 63 62 61 61 59 60 60 61 60 60 61 61 61 61 61 61 62 62 61 61 62 61 62 61 61 59 58 56 56 57 56 56 55 55 55 54 54 55 55
63 62 61 61 62 61 61 61 60 59 60 61 59 57 58 60 60 60 61 61 60 60 61 60 60 60 60 60 59 58 56 56 57 56 57 56 56 53 54 54 55 55 55
62 62 61 61 61 61 61 61 60 59 59 60 57 56 52 54 57 60 60 60 59 59 59 59 58 59 58 58 56 58 56 57 55 55 57 57 56 54 54 54 55 55 55
62 62 62 62 61 61 60 60 60 59 57 59 58 55 51 52 53 56 58 59 59 58 58 57 57 57 56 54 56 56 55 57 57 56 57 56 55 54 54 54 55 56 55
62 62 62 62 61 61 60 60 60 60 59 57 59 58 55 54 52 50 55 57 58 58 57 57 56 56 55 54 54 54 54 55 57 57 57 55 54 55 54 54 55 56 56
62 57 54 62 61 61 61 60 60 60 60 59 58 56 54 55 54 53 50 52 55 57 57 57 57 56 55 54 54 55 52 52 54 56 57 55 55 54 55 56 56 57 57
57 57 59 61 61 60 60 61 61 60 59 59 58 57 55 53 53 53 52 53 53 54 56 56 56 56 56 55 54 54 54 52 52 53 55 55 56 56 56 57 57 57 58
56 57 61 61 61 61 60 60 60 60 59 59 58 57 58 56 55 54 53 53 53 52 54 56 56 56 56 56 55 54 54 53 52 52 53 54 55 57 57 57 57 58 59
59 60 60 61 61 60 60 60 60 59 60 59 58 58 57 57 57 55 54 53 51 51 52 53 55 56 55 55 56 54 55 53 53 53 53 53 53 54 55 57 58 59 59
60 60 60 60 60 59 59 59 59 59 59 59 59 58 58 57 56 56 55 54 52 49 50 52 52 55 55 55 55 55 55 54 53 52 52 52 53 53 53 54 54 55 56
59 59 60 59 59 59 60 60 58 59 59 59 59 58 58 57 56 56 55 55 53 51 49 53 53 54 55 55 55 55 55 54 52 51 51 51 51 51 52 52 53 53 53
58 58 58 58 58 59 59 59 59 59 58 58 58 58 57 57 56 55 55 54 53 52 49 52 53 54 54 54 54 55 55 54 51 49 49 49 49 49 49 49 49 49 48
57 56 56 57 57 58 58 58 58 58 58 57 57 57 57 57 56 55 55 54 53 53 51 50 52 52 54 54 54 54 55 50 45 42 43 43 43 43 43 42 42 42 42
56 56 57 56 57 56 56 56 56 57 57 56 57 57 57 56 55 55 55 54 53 53 52 51 51 52 53 54 55 51 46 44 41 40 40 40 40 41 40 40 40 39 39
56 57 56 55 55 54 55 56 56 56 56 57 56 56 57 56 55 55 54 53 53 52 52 53 52 51 52 52 52 49 45 43 40 39 39 39 39 39 39 39 38 38 37
51 49 47 45 44 44 43 48 52 55 56 52 48 47 45 54 55 55 54 54 53 52 52 52 51 51 51 50 51 51 45 40 38 39 37 37 36 37 37 36 35 33 32
41 41 40 39 39 38 38 43 50 49 47 45 43 41 40 40 43 46 47 50 53 52 52 51 51 50 50 50 48 49 40 38 37 36 33 31 34 33 34 33 31 30 29
35 34 34 34 34 35 36 38 41 40 39 38 37 37 37 36 36 36 35 34 34 36 43 51 50 49 46 44 44 44 43 40 34 31 33 29 31 29 32 33 32 29 26
32 32 32 33 33 33 34 34 35 35 34 33 33 34 34 34 35 34 35 33 31 31 32 33 35 32 33 35 38 39 35 29 29 28 31 27 30 27 28 30 31 30 28
29 30 31 31 31 32 33 33 33 32 31 31 32 32 32 32 33 33 30 29 26 26 29 30 30 30 31 32 34 34 32 32 28 25 25 28 27 25 26 27 29 25 23
28 29 29 30 31 31 32 32 31 31 29 29 30 30 31 31 31 30 29 27 24 23 24 23 23 23 24 26 27 30 33 31 26 25 23 26 27 27 25 28 28 26 22

GFSMA_sfc_30mbdewp_102.txt.gz
Dewpoint
66 64 63 65 65 64 65 64 64 64 64 64 63 63 62 62 61 61 60 63 63 63 65 66 66 66 65 65 65 65 64 63 62 61 61 60 59 58 58 58 57 57 55
66 66 66 66 63 64 65 65 65 64 64 63 63 63 63 61 61 61 62 61 63 64 65 66 66 65 65 65 64 64 63 62 61 60 60 59 58 57 57 56 56 56 55
66 65 65 64 65 64 66 66 66 65 64 63 63 63 62 62 62 62 61 63 62 63 64 66 65 65 65 64 64 63 63 62 61 60 59 57 56 56 56 56 56 54 55
66 66 65 64 65 65 65 64 64 63 63 63 62 63 62 62 62 62 61 62 62 64 63 65 63 64 64 64 63 63 62 62 61 60 59 57 56 57 56 55 55 54 53
65 66 64 64 65 65 64 63 63 63 62 62 61 61 61 62 62 61 61 61 62 63 64 64 63 63 62 63 63 62 62 61 60 59 58 57 57 56 55 54 55 53 53
66 65 64 64 64 63 63 63 62 62 61 61 61 61 61 61 61 61 61 62 62 63 63 61 61 61 63 62 62 62 61 59 58 58 57 56 56 55 55 54 53 54 55
65 65 64 64 63 62 62 62 61 60 60 61 60 60 60 61 60 60 60 61 61 62 63 61 61 59 61 62 62 61 60 58 57 57 57 57 56 55 56 54 53 55 55
65 64 63 63 63 62 62 62 61 59 60 61 58 57 54 55 59 60 60 60 60 61 61 61 59 58 59 60 59 61 59 58 57 57 58 57 56 54 53 54 54 55 55
64 63 63 62 62 62 62 62 61 60 59 60 59 56 53 53 55 58 59 59 60 60 60 60 60 58 57 58 58 58 58 57 58 58 58 58 56 55 53 55 54 55 55
64 63 63 62 62 62 62 62 61 61 60 58 60 59 57 55 54 51 55 59 60 59 59 59 60 59 57 55 56 57 56 56 57 57 57 58 56 55 54 54 54 55 56
63 63 62 62 62 62 62 62 61 61 61 59 59 58 57 56 56 54 52 54 58 59 60 59 59 58 57 54 52 53 54 55 56 56 58 58 56 54 54 54 55 55 56
62 63 63 63 62 62 61 61 61 60 60 60 60 59 57 55 54 54 53 54 54 56 59 59 58 58 57 55 52 52 53 52 54 56 56 57 56 55 54 55 55 56 56
62 62 62 59 60 61 61 61 61 61 60 60 60 59 58 57 55 55 55 54 54 54 55 57 58 58 57 56 54 53 53 51 51 53 54 56 55 55 55 55 56 57 57
61 62 60 57 56 59 60 61 61 61 60 60 59 59 59 58 58 57 55 54 53 53 54 54 57 57 58 58 56 53 54 52 51 51 52 53 54 55 55 56 56 57 57
60 59 58 59 60 61 61 61 61 60 60 60 59 59 58 58 58 58 57 57 53 51 51 54 55 57 57 57 57 55 54 53 52 52 52 52 52 53 53 54 55 56 57
59 59 59 60 61 61 61 61 60 60 59 59 59 59 59 59 58 58 57 57 56 53 51 53 54 55 56 57 56 56 55 54 52 52 51 52 52 52 52 53 53 53 54
60 60 60 60 59 60 60 60 59 59 58 58 59 59 59 58 58 58 58 58 57 56 52 53 54 56 56 56 56 56 55 55 51 49 50 50 50 50 51 51 51 51 51
60 60 60 59 59 59 59 59 58 58 58 58 58 58 58 58 58 58 58 57 56 55 53 51 54 55 55 55 55 55 54 50 45 44 46 46 46 46 46 46 45 45 45
58 57 57 57 58 59 58 58 59 58 59 58 58 58 58 58 57 57 57 56 55 54 53 52 52 54 54 56 53 52 48 45 42 41 41 41 41 41 41 41 41 40 40
57 57 57 57 57 57 58 57 57 57 57 57 57 57 57 57 57 56 56 55 55 54 53 51 51 52 53 55 51 46 43 44 41 40 40 40 40 40 40 39 39 38 38
56 55 52 51 50 50 46 51 55 57 57 56 53 49 46 45 51 57 55 55 54 53 52 52 51 51 52 53 50 49 44 40 40 39 38 38 37 37 37 37 37 36 35
39 43 44 44 41 38 38 43 49 52 50 49 46 43 41 40 42 50 51 54 54 53 52 51 51 50 51 52 52 49 40 38 35 38 33 32 35 33 34 34 33 32 31
33 34 37 36 35 35 37 40 43 43 41 39 39 39 39 37 38 37 39 38 39 43 50 52 51 51 50 49 49 44 43 42 36 35 32 29 31 30 33 33 31 30 28
31 31 32 34 33 33 34 35 35 36 35 34 34 35 35 35 35 36 36 34 32 33 35 40 43 37 39 41 46 45 40 31 31 30 33 27 30 27 30 33 32 30 29
30 29 30 32 32 32 33 33 33 32 31 31 32 33 32 32 33 34 32 31 29 27 30 31 31 31 32 33 36 37 34 33 29 28 28 28 27 26 27 28 31 29 26
27 27 26 28 30 31 32 32 31 31 29 29 29 30 31 30 31 31 29 27 25 25 26 26 26 25 26 27 29 31 36 34 27 27 26 26 26 25 23 27 28 27 23

GFSMA_sfc_30mbdewp_105.txt.gz
Dewpoint
63 62 61 61 64 63 64 63 64 64 64 63 63 63 63 63 62 61 62 62 62 64 63 64 66 65 64 67 66 66 65 65 64 63 64 63 63 62 62 61 59 56 55
66 63 61 60 60 63 66 63 63 64 64 64 63 63 63 63 63 62 60 61 62 62 63 64 66 65 66 66 66 65 65 65 64 62 62 61 60 60 60 59 57 55 54
67 64 64 64 61 61 65 66 65 64 64 64 63 63 63 63 62 62 62 60 61 61 63 62 65 64 66 66 66 65 64 64 63 62 61 59 59 58 58 57 55 55 55
66 66 63 65 65 62 65 65 64 64 63 63 62 62 63 63 62 62 62 62 61 61 63 64 63 63 65 66 65 63 63 63 62 62 60 59 58 57 57 55 55 54 55
64 66 64 65 64 63 65 65 64 64 63 62 62 62 62 62 62 62 61 62 62 62 63 63 63 62 62 65 64 63 63 62 61 61 60 59 58 57 55 54 53 54 54
65 66 65 65 65 64 65 64 64 63 63 62 60 61 61 61 62 62 61 61 61 61 62 63 63 63 63 62 63 64 62 61 61 60 59 58 58 57 55 53 52 52 53
66 66 65 65 64 63 64 64 63 62 62 62 61 60 61 61 62 61 61 61 61 61 62 63 61 63 63 63 63 63 61 61 60 60 59 58 57 56 55 54 52 53 53
66 65 65 64 64 63 63 63 62 61 61 62 59 57 55 57 60 60 60 60 60 60 61 62 62 62 60 63 62 62 61 61 60 59 59 58 56 55 54 53 52 53 54
65 65 65 64 64 63 63 63 62 60 59 61 60 57 54 54 56 59 59 59 59 59 60 61 62 62 61 61 60 61 60 60 60 59 59 59 57 55 54 55 53 53 55
63 65 65 64 63 63 62 62 62 61 60 59 60 59 57 55 53 53 57 58 59 59 60 60 60 61 61 61 60 60 59 59 59 59 60 59 57 55 53 53 54 53 55
63 64 65 64 63 63 63 62 61 61 61 60 59 59 58 57 55 53 52 55 58 59 60 60 60 60 60 59 59 60 57 57 57 58 59 59 58 56 54 54 54 53 55
63 64 64 63 63 63 62 63 62 62 61 60 60 59 58 57 55 55 53 54 54 58 59 60 60 60 60 59 58 56 56 55 55 57 57 59 58 56 55 54 54 54 55
62 62 63 63 62 62 58 55 57 61 61 61 60 60 59 58 57 55 55 55 55 56 57 59 60 60 59 58 57 55 54 54 54 56 56 57 57 56 55 53 54 55 56
62 62 63 62 62 61 59 61 62 62 62 61 60 60 60 59 58 57 55 55 54 53 54 55 59 59 59 57 56 54 53 52 52 53 55 55 56 55 54 54 55 56 57
61 62 63 62 63 62 62 62 61 61 61 61 61 60 60 59 59 59 58 56 54 52 51 55 55 58 59 58 57 55 55 51 50 51 52 53 54 55 54 55 55 55 56
61 61 62 61 60 58 59 60 60 60 61 61 61 60 59 59 59 59 58 58 57 55 52 55 56 57 58 57 57 57 57 54 52 50 50 51 51 52 53 53 54 55 55
60 59 60 60 59 59 58 58 58 59 60 60 59 59 59 59 59 59 59 58 57 56 54 54 56 57 57 57 56 57 57 56 53 50 50 50 50 51 52 52 52 53 53
60 59 59 59 59 59 59 57 56 57 58 58 58 59 58 58 58 58 58 57 57 57 55 54 55 56 56 57 56 56 57 56 49 47 50 50 50 50 50 50 50 50 50
60 60 59 58 59 59 60 59 57 55 59 58 58 58 58 58 58 58 58 57 57 57 57 54 53 55 55 56 56 55 48 44 43 42 42 44 45 45 45 45 45 45 44
59 60 59 59 58 58 59 59 59 59 58 59 59 59 58 58 57 57 57 57 57 56 55 54 53 53 54 55 54 45 44 44 41 41 41 41 41 40 40 40 40 40 40
39 49 56 54 56 54 55 58 58 58 58 58 56 53 50 46 46 48 54 57 56 55 54 53 52 52 53 52 48 47 43 40 39 39 38 38 38 38 39 39 39 38 38
34 35 39 42 42 40 42 50 56 55 54 53 49 46 44 43 43 42 47 50 54 55 53 52 51 51 52 51 49 45 40 37 35 39 34 33 35 34 34 35 35 35 34
33 32 33 34 35 36 40 45 46 44 42 41 41 40 40 39 40 39 38 38 39 42 49 53 51 51 52 52 49 43 42 41 37 35 33 29 32 30 33 34 33 33 32
31 31 30 31 33 33 35 37 37 36 35 34 34 35 36 37 36 38 36 34 33 33 35 41 45 41 45 49 48 46 43 33 33 33 33 27 30 29 31 32 32 31 31
27 27 28 29 30 31 33 33 33 32 31 30 31 32 33 33 33 35 34 31 30 30 31 32 32 32 34 36 41 40 36 36 32 31 31 28 27 27 29 30 31 30 29
27 26 25 27 28 29 31 31 31 30 29 28 29 29 30 30 31 31 30 29 27 26 28 28 27 27 28 30 32 38 38 38 29 28 29 26 26 25 23 28 28 28 28

GFSMA_sfc_30mbdewp_108.txt.gz
Dewpoint
67 66 65 66 67 67 67 66 66 66 66 65 65 64 64 64 64 63 64 63 63 63 65 64 65 66 66 65 67 67 66 66 66 65 64 64 64 63 62 61 60 58 56
66 65 65 63 66 66 66 66 65 65 65 64 64 64 64 64 64 63 63 62 61 61 62 65 65 66 66 66 66 66 66 66 65 65 64 64 64 63 62 61 59 56 55
68 66 65 63 62 65 63 65 65 66 65 64 64 64 64 64 64 63 63 62 61 60 60 63 64 64 64 65 65 65 66 65 65 64 64 63 62 62 61 60 58 56 55
67 67 66 64 65 63 65 66 65 65 64 64 64 64 64 64 64 63 63 62 62 62 62 62 62 64 65 65 65 66 65 65 64 63 62 61 60 60 60 59 57 54 54
67 67 66 65 65 64 65 65 65 64 64 64 63 62 63 63 63 63 63 62 62 62 63 63 63 63 64 64 64 65 64 64 63 63 61 60 60 59 58 57 55 53 55
66 66 66 65 65 64 64 66 64 65 64 64 62 62 62 63 62 62 62 62 62 62 62 64 62 62 61 60 59 65 64 63 62 62 61 60 59 59 57 54 54 54 55
66 65 65 65 65 64 63 65 64 63 63 63 61 61 61 62 62 62 62 62 61 61 62 63 63 63 62 61 60 61 63 63 62 61 61 60 59 58 56 53 54 53 52
64 65 65 65 65 64 63 64 63 62 62 63 59 58 55 57 59 61 62 61 61 61 61 61 62 63 62 61 62 63 63 63 62 62 61 60 59 57 55 54 54 53 54
62 64 65 66 64 64 62 64 63 62 60 62 60 57 54 52 56 59 60 60 60 60 60 60 61 62 62 62 63 62 61 62 62 62 61 60 59 56 55 55 53 54 55
61 63 65 65 64 63 63 63 63 61 60 60 61 59 57 57 54 53 58 60 60 60 60 60 61 61 61 62 62 62 61 60 61 61 61 60 58 55 54 53 53 54 54
60 62 64 65 64 63 61 62 63 61 60 59 59 59 58 58 57 54 52 55 59 59 60 60 60 60 61 61 62 61 60 59 59 60 60 60 58 56 54 53 54 54 53
56 60 63 64 64 63 63 62 58 61 61 60 60 59 58 57 57 56 54 54 54 57 59 60 59 59 60 61 61 61 58 58 58 59 60 60 58 57 54 52 52 53 53
56 57 60 64 64 63 62 62 61 61 61 61 60 59 59 58 58 57 55 55 54 57 58 60 60 59 60 61 61 60 58 57 57 57 58 59 58 57 56 53 53 54 53
55 58 60 62 63 63 62 62 60 61 60 59 59 60 60 59 59 58 56 55 54 54 55 56 60 60 60 60 60 59 57 56 56 56 56 57 57 56 55 54 53 53 54
55 59 63 63 63 62 62 60 58 58 55 59 56 55 60 60 59 59 58 57 54 52 52 55 56 60 60 60 59 57 58 54 56 55 55 56 56 56 55 54 53 54 55
58 60 62 62 62 62 62 59 58 59 61 61 61 60 59 60 59 59 59 58 56 54 52 54 55 57 60 59 58 56 55 52 52 52 53 54 54 54 54 54 53 54 55
57 59 61 62 61 62 62 61 60 60 60 60 60 59 59 60 59 59 59 58 57 57 54 55 56 57 58 58 57 57 55 53 52 51 51 52 53 54 54 53 53 54 54
51 58 60 60 61 60 60 60 60 59 59 57 56 58 58 59 59 59 59 58 57 57 55 54 56 57 57 58 57 57 57 56 53 50 49 49 50 50 51 51 52 52 52
44 52 57 58 60 59 58 58 58 58 56 55 56 56 58 59 58 58 58 58 58 57 57 55 55 56 56 57 56 56 50 46 45 45 47 48 48 48 49 50 50 50 51
39 41 51 58 59 59 59 57 56 55 54 55 57 57 58 58 57 58 58 57 57 57 57 56 54 55 55 56 56 48 44 44 42 42 42 42 43 44 44 45 45 45 44
36 36 38 41 43 47 47 55 58 56 53 53 57 55 51 49 48 49 55 57 57 56 56 55 54 53 53 54 49 48 43 39 39 39 39 39 39 39 40 40 41 40 39
33 34 33 35 36 37 36 44 58 58 57 55 51 47 44 43 42 41 42 45 47 54 55 54 53 52 53 53 49 45 39 38 36 39 35 33 35 34 36 37 38 37 37
29 30 32 32 31 32 34 37 46 45 43 41 42 42 41 39 40 41 38 38 37 37 40 53 53 53 52 53 48 44 42 41 36 35 33 29 32 31 34 35 35 35 34
26 26 28 30 30 31 32 33 35 36 34 33 33 35 36 35 36 38 36 34 32 32 33 38 45 44 46 52 47 46 43 35 34 33 33 27 30 29 32 33 33 33 32
26 25 26 26 27 29 31 32 32 31 30 29 30 31 31 32 34 36 34 32 30 30 32 32 32 33 35 46 44 40 36 36 32 32 32 28 28 28 29 30 31 31 31
29 28 26 26 27 26 29 30 30 29 27 27 28 28 29 30 31 31 31 30 28 26 27 28 28 29 31 32 34 41 39 39 31 30 30 27 27 26 24 28 29 29 29

GFSMA_sfc_30mbdewp_111.txt.gz
Dewpoint
67 67 67 68 68 68 68 67 67 67 67 67 66 66 66 65 65 65 64 63 64 64 64 64 65 66 66 66 66 66 67 66 66 66 65 64 64 63 63 62 61 60 59
67 67 67 67 68 68 68 67 66 66 66 66 65 65 65 65 64 64 63 63 63 62 62 64 65 66 66 65 66 65 66 66 66 65 65 64 64 63 62 61 60 59 57
67 66 66 65 67 67 67 67 66 66 66 65 65 64 64 64 64 64 63 62 62 61 60 63 65 66 66 66 65 64 66 66 66 65 65 64 63 63 62 61 59 58 56
67 67 66 65 64 66 65 66 65 65 64 64 64 64 64 64 64 64 63 62 61 60 60 60 65 65 65 65 65 66 65 64 65 65 64 64 63 62 61 60 59 57 56
67 67 66 66 65 65 65 64 64 64 64 64 63 63 64 63 64 64 63 63 62 62 62 62 61 64 64 64 65 65 63 64 65 65 64 63 63 62 61 60 59 57 56
67 66 65 65 66 65 64 65 64 64 64 64 63 63 62 63 63 63 62 63 62 62 62 62 62 62 63 64 65 63 62 65 64 64 63 63 62 61 60 59 58 56 54
65 66 65 65 65 65 63 64 64 64 63 63 61 61 61 62 62 62 62 62 62 61 61 62 62 62 62 63 63 63 61 65 64 63 63 62 61 60 59 58 56 54 55
54 65 66 65 66 65 64 63 64 63 62 63 60 59 57 58 60 62 62 62 61 61 61 61 62 62 62 61 61 61 62 61 64 63 63 61 60 60 59 57 55 56 55
53 55 63 65 65 65 63 64 63 62 61 62 60 57 54 52 55 58 61 61 61 60 60 60 61 62 62 62 61 60 60 59 64 63 62 61 60 60 58 56 56 56 55
50 53 56 62 64 65 63 62 59 56 53 57 61 59 56 55 52 53 58 60 60 59 59 59 60 61 62 62 61 61 60 59 63 63 62 61 60 60 58 57 56 55 55
49 51 55 59 60 64 63 59 56 57 59 59 54 58 58 57 55 53 52 56 59 59 59 59 59 60 61 62 62 62 61 61 61 62 62 61 61 60 58 57 56 54 55
47 50 53 58 60 60 62 61 59 59 60 59 58 58 56 56 56 56 52 53 55 58 59 59 58 59 60 61 61 62 60 60 60 61 61 61 61 59 57 56 55 55 55
47 49 52 56 59 59 59 61 61 61 60 60 60 59 59 58 56 56 54 54 54 56 58 59 58 59 59 61 61 60 60 59 59 59 60 60 60 58 57 55 54 55 54
47 49 51 54 56 60 61 61 60 59 59 60 59 59 59 58 58 57 56 54 53 54 55 56 59 58 59 60 60 60 59 57 57 58 59 59 59 58 57 55 54 54 55
48 51 51 53 52 55 56 60 58 59 57 55 55 60 59 59 59 58 57 55 54 52 52 54 56 59 59 59 59 59 60 57 56 56 56 58 58 57 56 55 53 53 54
46 49 54 54 56 51 54 59 59 60 59 57 55 57 58 59 59 59 58 57 55 53 51 54 55 58 59 59 59 59 60 58 56 56 56 56 56 56 55 54 53 53 53
43 46 49 58 58 58 58 58 60 59 58 57 58 57 55 57 59 59 58 58 56 55 53 53 55 56 59 59 59 59 59 58 56 54 55 55 55 55 55 54 53 52 53
40 42 47 54 58 57 55 59 59 58 58 58 58 57 55 58 59 59 58 58 57 57 55 53 55 55 56 57 59 57 57 56 55 52 53 54 54 54 53 53 52 52 52
37 38 42 44 50 57 58 60 60 60 59 59 59 58 58 58 58 58 58 57 57 57 57 55 54 56 56 57 57 57 54 51 49 49 49 51 51 51 51 51 51 51 52
33 35 37 39 41 43 46 49 59 59 57 56 57 56 54 53 56 58 58 58 57 57 57 56 55 55 56 57 57 51 48 46 44 43 45 48 48 48 49 50 50 50 51
30 32 33 34 35 36 35 38 46 57 55 55 55 54 53 53 56 56 57 57 57 56 56 55 54 54 55 54 53 51 47 41 39 40 40 41 42 43 43 45 47 47 47
27 28 29 31 32 33 34 34 41 56 54 53 50 45 44 43 44 46 48 47 50 56 55 55 55 53 53 54 51 48 41 39 39 39 36 34 37 36 37 39 40 41 42
26 26 27 28 29 31 33 33 33 39 42 42 43 42 40 40 41 39 38 38 37 38 40 47 53 54 53 53 51 47 44 44 40 37 35 31 33 32 36 37 37 38 38
28 27 27 26 27 29 32 32 31 31 30 31 32 34 35 35 38 39 37 35 33 32 33 34 36 38 42 52 51 49 46 38 35 34 33 29 31 30 32 34 35 35 35
27 27 27 27 26 27 29 30 31 28 28 27 29 31 31 32 35 36 35 33 31 30 31 31 32 32 33 44 48 42 37 36 32 33 32 29 29 28 30 30 33 33 33
27 26 26 26 27 28 30 28 27 27 25 26 27 28 30 30 31 31 31 30 28 26 28 29 28 28 28 30 35 41 39 39 32 31 31 28 28 27 24 29 30 30 31

GFSMA_sfc_30mbdewp_114.txt.gz
Dewpoint
68 69 69 69 68 68 68 68 68 67 67 67 67 66 66 66 65 65 64 64 64 64 64 65 65 65 66 65 64 63 64 65 64 66 66 65 65 64 63 62 62 61 61
67 67 68 68 68 68 68 68 67 67 67 66 66 66 66 66 65 65 64 64 63 64 64 64 65 65 66 65 63 64 63 66 66 66 66 65 64 63 63 62 61 61 60
67 66 66 67 68 68 68 67 67 66 66 66 65 65 65 65 65 64 63 63 63 63 63 63 64 66 66 66 64 64 62 65 65 66 65 64 64 63 62 62 61 60 60
68 67 67 66 66 67 67 67 66 66 65 65 65 65 64 64 64 64 63 62 62 61 61 60 62 65 66 66 66 64 64 65 65 66 65 64 64 63 62 61 60 59 58
66 67 67 66 66 66 66 66 66 65 64 64 65 64 64 63 64 64 63 62 61 60 60 59 60 64 65 65 66 65 64 62 65 65 65 64 63 63 62 61 59 58 57
56 64 65 65 66 65 65 65 65 65 64 64 64 63 63 63 63 63 63 63 62 61 61 61 61 62 64 64 63 65 64 63 63 65 63 64 63 62 62 60 59 58 57
54 54 61 66 65 65 64 64 64 63 63 64 62 61 61 63 63 63 63 62 62 62 62 61 61 61 61 63 63 63 64 64 65 64 64 63 62 62 61 60 59 58 57
50 51 53 58 64 65 64 63 63 61 63 63 61 60 58 59 61 62 62 62 62 62 61 61 62 61 61 62 63 63 63 64 64 65 64 62 62 62 61 60 59 58 56
47 48 50 53 54 62 64 64 63 61 58 62 60 58 55 54 57 58 61 61 61 61 61 60 61 61 61 62 62 62 62 62 61 63 64 62 62 61 61 60 59 57 56
45 47 50 51 53 56 60 63 63 62 59 56 55 55 56 56 53 52 57 60 61 60 60 59 59 60 60 61 61 61 60 61 61 63 63 62 61 61 60 59 58 57 56
45 46 48 49 51 52 55 62 62 59 57 54 52 54 54 57 56 53 51 56 59 59 60 59 59 59 59 60 61 61 59 59 59 59 61 62 61 60 60 59 58 57 56
44 46 47 49 51 53 56 60 62 60 56 55 54 54 55 56 54 54 51 53 54 57 59 59 58 58 59 58 61 61 59 58 58 58 59 62 61 60 60 59 58 57 56
43 45 46 48 50 51 54 58 60 58 58 57 55 55 55 53 54 56 53 53 53 55 57 58 59 59 58 58 59 60 60 58 57 59 59 61 61 60 60 59 58 57 56
42 44 45 48 49 51 52 56 60 60 58 58 58 57 55 56 57 57 55 53 52 54 55 55 58 59 58 58 59 59 60 58 59 59 59 60 60 59 59 58 57 57 55
40 41 43 45 47 52 52 54 59 59 59 58 58 58 58 58 58 58 57 56 53 51 52 54 56 58 58 58 59 59 59 57 58 58 58 59 59 59 58 57 56 55 55
38 39 41 43 47 51 53 54 55 58 58 57 57 58 58 57 59 58 58 57 55 52 50 54 55 57 58 58 58 59 59 58 55 56 56 57 58 58 57 56 55 54 54
36 37 38 41 45 48 56 54 53 56 58 57 57 57 58 58 58 58 58 58 56 54 52 53 54 56 58 57 57 58 59 59 57 54 55 54 56 57 56 55 54 53 53
34 35 36 38 41 42 47 58 55 55 57 57 57 56 55 57 57 58 58 58 57 56 54 52 54 54 56 57 58 57 58 59 59 55 53 54 54 55 55 54 53 52 51
30 31 34 35 36 38 39 44 56 57 57 57 57 56 55 54 54 56 57 57 57 57 56 54 53 55 56 56 58 57 57 56 55 54 52 52 52 53 54 54 53 53 51
28 29 30 32 33 35 35 37 42 52 56 58 58 58 57 54 54 56 55 53 54 55 56 55 54 55 55 56 57 53 50 49 49 46 47 49 50 51 53 53 53 51 51
28 28 28 29 31 33 33 34 41 47 51 54 58 56 57 58 57 56 55 55 56 56 56 55 54 54 55 54 54 53 52 44 42 42 43 42 45 47 48 50 50 50 50
27 28 27 28 29 30 33 33 36 36 36 40 49 47 45 48 49 52 53 54 57 56 55 54 54 53 54 55 55 51 45 43 44 40 40 37 38 39 40 45 48 48 49
26 26 27 28 28 29 31 33 32 31 31 31 32 35 39 40 40 40 41 42 41 43 49 54 54 53 53 54 53 50 47 46 45 39 38 34 33 34 36 39 43 44 45
26 26 26 27 28 30 30 29 31 32 30 29 30 30 31 33 35 38 37 37 35 34 35 38 41 38 39 43 50 52 49 40 35 34 34 32 31 30 33 36 38 39 39
24 25 25 25 26 28 31 29 27 28 28 28 28 30 29 30 32 34 34 33 32 30 32 32 32 31 32 36 42 46 42 40 34 33 33 30 30 28 30 30 33 35 36
21 21 22 23 25 26 31 30 29 27 25 26 27 28 29 29 29 30 29 30 28 27 29 29 29 28 29 31 33 40 42 42 34 32 32 29 29 28 25 28 30 31 32

GFSMA_sfc_30mbdewp_117.txt.gz
Dewpoint
67 67 67 67 68 68 68 67 68 68 67 67 67 66 65 65 65 65 65 64 64 65 66 66 66 64 65 66 65 64 64 63 65 65 64 65 66 65 65 64 64 63 62
68 68 67 67 67 68 68 67 67 67 67 67 66 66 66 65 65 65 65 64 63 64 65 66 66 65 66 66 65 65 64 63 64 65 64 65 65 65 64 63 63 62 62
67 67 67 68 68 68 67 67 67 67 66 66 66 66 66 65 65 65 64 64 64 63 63 64 64 65 65 66 65 64 64 63 63 65 66 66 65 64 63 62 62 61 61
62 66 66 66 67 68 67 67 66 66 66 65 65 65 65 65 65 65 64 64 63 63 63 63 64 64 64 65 66 65 64 63 63 65 65 65 65 64 63 62 62 61 61
56 57 60 66 67 66 66 66 66 66 65 65 64 64 65 64 64 64 64 63 62 62 62 62 62 61 63 64 66 66 64 63 62 63 65 65 64 63 63 62 61 61 60
53 53 55 60 65 65 64 64 64 65 64 64 64 64 64 64 64 64 63 63 62 61 61 60 60 59 61 64 66 66 65 63 63 63 64 65 64 63 62 62 61 60 59
49 49 51 52 55 62 64 63 63 62 62 64 62 61 61 62 63 63 63 63 62 61 61 60 60 59 60 63 64 65 63 63 63 63 62 63 64 63 62 61 60 59 58
45 47 48 49 52 52 55 64 63 62 62 63 59 59 57 58 60 62 63 62 62 62 61 61 61 60 60 60 62 64 64 63 64 62 63 64 64 63 62 61 60 59 58
44 45 46 49 50 51 51 54 62 63 61 61 62 58 54 55 56 59 61 61 62 62 61 61 61 60 60 61 61 62 63 62 63 64 63 64 63 63 62 61 60 59 58
44 45 46 47 48 50 52 53 57 62 62 59 57 58 55 55 52 52 57 59 60 61 61 61 60 61 61 61 61 61 62 61 61 63 64 64 63 62 62 61 60 59 58
43 44 46 46 47 48 50 52 53 56 62 61 57 55 55 54 54 50 49 53 59 61 60 60 60 60 60 60 61 60 59 60 60 61 62 62 63 62 62 61 60 60 58
41 43 45 46 47 48 50 51 52 56 59 60 58 56 54 53 54 52 50 49 51 55 60 60 59 59 59 60 60 60 59 59 58 60 61 61 61 62 62 61 60 60 58
40 41 42 43 45 47 49 50 51 53 57 59 57 56 56 54 54 54 52 51 52 55 57 59 59 58 58 59 59 59 58 57 57 57 58 59 60 62 62 61 60 59 58
38 39 40 41 43 45 47 49 51 52 54 59 57 56 55 55 56 55 54 52 51 53 55 55 58 59 58 58 58 58 58 57 56 56 56 57 58 60 61 60 60 58 58
36 37 38 40 41 43 45 48 52 52 53 57 58 57 56 56 56 56 56 54 52 50 52 55 55 58 58 58 58 58 58 58 55 55 56 55 57 59 60 59 58 58 58
34 35 36 37 39 41 44 45 48 53 53 57 58 57 57 57 56 56 57 56 55 51 49 54 55 57 57 58 58 58 58 57 55 55 56 57 57 58 58 58 58 57 57
32 32 33 35 36 37 39 40 42 53 53 54 57 57 57 57 56 57 57 57 56 55 52 53 54 56 57 57 57 58 57 57 56 54 54 56 58 58 57 57 56 56 55
30 30 31 32 33 34 36 37 38 42 53 54 56 56 55 55 55 56 57 56 56 56 55 53 53 54 56 57 57 57 57 58 58 54 54 53 55 55 56 55 55 55 54
29 29 30 30 31 33 33 34 35 38 44 54 55 56 55 56 56 57 57 57 56 56 55 54 53 54 55 56 57 57 57 57 58 57 53 52 53 54 54 54 54 54 54
27 27 29 29 30 31 31 33 34 39 45 50 55 57 57 56 55 55 56 57 56 56 56 55 54 54 54 55 55 54 52 51 52 50 50 51 50 50 51 52 52 53 52
26 26 27 28 29 30 30 31 33 34 36 38 39 43 50 50 55 55 56 56 55 55 55 55 54 54 54 54 53 54 53 48 46 46 47 44 46 48 49 49 50 50 50
25 25 25 26 28 30 31 30 31 31 31 32 33 34 36 37 44 51 54 54 54 52 52 52 52 53 54 54 55 53 48 47 48 42 45 42 39 42 40 44 49 50 50
24 24 24 25 26 29 31 30 29 29 29 30 30 32 32 33 34 39 39 41 44 46 50 53 53 52 54 54 54 51 49 48 49 43 42 40 35 37 35 38 41 46 49
22 22 23 24 25 27 31 30 29 28 28 28 29 29 31 31 32 35 36 35 33 32 34 42 52 45 45 46 53 52 51 44 36 35 37 40 32 32 32 34 38 41 45
20 21 22 23 23 25 29 30 28 27 27 27 28 28 29 29 31 32 31 33 32 30 31 32 33 33 34 37 42 47 45 44 39 36 33 34 30 29 29 30 32 37 39
20 21 22 23 22 23 25 27 28 27 25 25 26 27 28 29 29 29 27 27 27 27 27 28 30 29 30 32 34 39 43 45 38 35 34 34 29 30 29 29 30 31 33

GFSMA_sfc_30mbdewp_120.txt.gz
Dewpoint
67 67 67 67 67 67 67 67 67 67 67 67 67 66 65 65 65 65 65 65 64 64 66 67 68 66 68 68 66 65 65 65 65 64 64 65 63 64 65 64 64 63 63
67 67 67 67 67 67 67 67 66 66 66 66 66 66 66 65 65 65 65 64 64 64 65 67 67 67 67 67 67 66 65 65 63 63 64 65 64 64 65 63 64 63 63
61 64 66 66 66 67 66 67 67 67 66 65 65 66 66 65 65 65 64 64 64 63 63 65 66 67 66 66 67 66 65 64 63 63 63 65 64 64 64 64 63 63 63
57 58 58 61 66 68 67 66 66 65 66 65 65 65 65 65 65 65 65 64 64 64 63 63 64 64 65 65 66 66 65 65 64 64 63 65 65 64 64 64 63 63 62
53 53 56 58 61 63 66 66 66 65 65 65 65 65 65 64 65 65 65 64 64 63 63 63 63 63 64 65 66 66 65 65 64 64 63 64 65 65 64 63 62 62 62
48 48 50 52 53 58 63 64 64 65 64 64 64 63 64 64 64 64 64 64 63 63 62 62 62 62 62 63 64 65 66 65 65 64 63 64 65 65 63 63 62 61 61
45 46 48 49 51 52 52 56 63 61 60 62 61 61 62 63 63 63 63 63 62 62 62 61 61 60 60 60 62 64 65 65 65 64 63 63 63 64 63 63 62 61 61
44 45 46 47 49 50 50 50 55 62 62 61 59 57 52 52 58 62 63 63 62 62 62 62 61 60 60 60 61 63 65 65 64 64 63 63 63 64 63 63 62 61 60
44 45 46 47 47 48 49 51 53 54 60 62 62 58 55 54 57 58 58 61 62 62 62 62 62 61 60 60 60 61 63 64 64 64 64 63 63 62 63 62 62 61 60
41 43 46 47 47 48 48 49 51 52 56 58 60 62 58 56 54 53 57 60 61 60 60 61 61 61 61 60 60 60 60 61 62 63 63 63 63 63 64 62 61 61 60
40 42 44 45 45 47 48 49 49 50 53 54 58 57 57 55 54 52 52 54 59 59 59 60 61 61 61 61 60 61 60 60 60 61 63 63 63 63 64 63 62 61 60
39 40 41 42 43 44 46 48 50 51 51 52 55 58 56 55 53 52 49 51 53 57 58 58 60 61 61 61 61 60 59 59 58 59 60 62 63 63 63 63 62 61 60
36 37 38 40 40 42 43 45 47 48 50 51 52 56 57 56 55 53 52 50 49 52 56 58 60 60 60 60 60 59 59 58 58 58 58 59 61 62 62 62 62 61 60
34 36 36 38 39 40 42 44 46 48 50 52 52 52 57 57 57 55 53 52 50 50 54 54 59 59 60 59 60 58 59 57 57 57 57 57 58 60 60 61 61 61 60
33 33 34 35 37 38 39 42 43 45 48 51 52 53 57 57 57 57 55 54 52 49 50 52 54 59 59 59 59 58 59 57 56 56 55 56 57 58 58 59 60 61 60
31 32 32 33 35 36 37 38 39 41 43 46 53 53 55 57 56 57 57 56 55 53 49 51 55 56 58 58 58 58 58 57 56 56 55 55 55 55 57 58 59 59 59
30 31 31 32 32 33 34 35 36 37 38 42 51 53 55 56 57 56 57 57 56 55 52 52 55 56 57 57 57 57 58 58 57 55 54 54 54 54 54 56 57 57 58
29 29 30 31 31 31 32 33 34 35 37 40 44 52 54 56 56 56 56 55 56 56 54 52 53 54 56 57 57 56 57 58 57 54 53 52 53 55 53 53 55 55 56
27 28 29 30 31 31 31 31 33 34 36 38 41 45 54 55 55 55 55 55 56 55 55 52 53 55 55 57 56 57 57 57 57 56 53 52 54 54 53 53 54 54 55
26 26 27 29 31 31 30 30 31 32 32 33 35 37 39 38 40 51 55 56 55 55 55 55 54 53 53 55 56 54 54 54 54 53 52 52 51 52 52 53 53 54 54
25 25 26 27 29 30 30 29 29 29 29 30 30 32 34 35 35 36 43 55 56 56 55 54 53 53 52 53 53 55 53 51 49 49 49 47 49 49 49 49 51 51 52
23 24 24 25 27 28 31 29 28 27 27 27 27 28 30 31 33 35 37 45 46 55 55 54 53 53 53 53 54 54 50 48 49 44 48 45 42 46 43 45 47 49 49
21 22 23 24 25 27 28 28 28 27 26 26 26 27 27 28 30 33 35 34 34 34 35 45 53 53 53 54 54 54 50 52 52 45 47 45 37 41 36 38 40 43 46
20 22 21 21 22 25 26 26 26 26 26 26 26 27 27 28 29 30 33 33 32 32 32 32 32 35 40 54 55 54 53 48 39 38 42 46 33 36 33 34 36 39 42
19 20 21 21 21 21 23 24 23 23 23 23 24 26 27 26 29 28 27 29 29 29 31 33 32 32 32 33 41 51 47 46 41 39 36 41 32 33 32 32 32 34 38
19 19 19 20 21 21 21 21 22 22 21 21 22 23 25 27 28 28 25 25 24 24 27 30 31 31 31 31 32 35 47 48 42 40 36 41 31 33 37 29 30 32 34

GFSMA_sfc_30mbdewp_123.txt.gz
Dewpoint
68 68 68 68 67 66 67 67 67 67 68 68 69 68 67 66 65 66 66 66 65 65 66 67 67 68 68 67 67 67 65 65 66 65 65 64 65 65 64 64 64 63 63
67 67 67 67 68 68 68 67 66 66 66 67 67 68 67 66 66 66 66 66 65 64 65 66 66 67 67 67 66 66 66 65 65 65 64 64 64 64 64 64 63 63 63
61 64 66 66 67 68 67 67 67 67 66 66 66 66 67 67 66 66 66 66 65 64 64 64 65 66 66 65 66 65 66 65 65 64 64 64 63 64 64 64 63 63 63
57 59 59 61 61 63 67 66 66 65 65 65 65 65 66 66 66 66 66 66 65 64 64 63 64 65 65 65 66 66 65 65 65 65 64 64 63 63 64 64 63 63 63
51 52 53 56 56 59 61 65 66 65 64 64 65 65 66 66 66 66 66 66 66 65 64 64 63 63 63 64 64 65 66 65 65 65 64 64 64 63 64 64 63 63 63
48 49 51 51 52 53 56 62 63 65 65 65 65 64 65 65 66 65 65 65 65 65 65 65 65 64 62 63 64 64 65 65 65 65 65 64 64 63 64 64 64 63 63
47 48 47 49 50 51 52 53 55 60 63 64 63 62 60 62 63 63 65 65 65 65 65 65 64 65 63 62 63 64 65 65 65 65 65 65 64 64 64 64 64 63 63
46 46 47 48 49 49 50 51 52 54 62 62 60 59 56 58 59 61 63 64 63 64 64 64 64 64 63 63 63 62 63 64 65 65 66 65 64 64 64 64 63 63 62
43 45 46 46 47 48 48 48 51 52 54 61 61 58 54 53 54 56 58 60 62 64 62 62 63 63 63 63 62 61 60 62 64 64 65 65 64 63 64 64 63 63 62
42 42 44 45 46 47 48 48 49 50 52 53 58 61 60 58 55 55 58 60 61 61 61 62 62 63 63 63 62 61 60 59 61 64 64 64 64 63 63 63 63 63 62
39 40 41 42 43 44 46 47 49 50 50 50 52 57 60 60 59 56 54 57 59 60 60 61 62 62 62 63 63 62 59 59 59 62 64 64 64 64 63 63 63 63 62
37 37 38 39 40 41 42 44 45 47 49 51 51 51 54 56 56 56 54 54 56 58 60 60 60 61 62 62 62 62 60 58 58 59 61 63 64 64 63 62 63 63 62
34 35 35 37 38 39 40 42 43 45 47 48 50 51 51 53 56 54 53 53 53 54 58 60 60 60 60 61 61 61 59 58 58 58 59 60 62 63 63 63 62 63 62
33 33 34 35 36 37 38 39 41 43 45 47 49 51 52 52 54 56 55 54 53 53 53 54 57 58 59 60 61 60 61 58 57 57 58 58 59 61 62 62 62 62 62
32 32 33 33 34 35 36 37 38 40 41 42 45 47 51 52 54 55 56 55 54 51 51 52 53 57 58 59 60 60 61 60 57 56 56 57 57 58 59 60 61 61 61
30 31 32 32 33 33 34 35 36 37 38 40 41 44 48 53 54 55 57 56 56 54 52 52 53 53 58 58 60 60 60 59 56 55 55 56 56 56 56 57 58 59 60
29 29 30 32 32 32 33 33 34 36 37 39 41 43 46 50 53 55 56 56 56 55 53 54 55 54 56 57 58 59 59 59 59 54 54 54 54 55 55 55 56 57 58
27 28 29 31 31 31 32 32 33 34 35 35 37 39 41 40 47 54 55 56 56 56 55 53 54 55 56 57 58 58 58 58 58 56 53 53 53 53 53 54 54 54 54
26 26 28 29 31 31 30 30 30 30 31 32 33 34 35 35 35 37 40 53 55 55 55 54 53 55 56 57 57 57 57 57 58 57 53 52 53 54 53 53 53 53 53
25 25 26 27 30 30 30 29 29 29 29 29 30 31 31 31 32 33 37 40 45 54 55 54 54 54 54 56 56 55 54 56 56 56 54 54 53 51 52 52 53 52 51
24 24 24 25 28 28 29 29 28 28 27 27 28 28 29 30 31 32 35 36 37 41 54 54 53 54 54 54 54 55 54 54 54 52 53 52 52 51 51 49 52 50 50
22 21 22 22 24 25 26 26 27 27 26 26 26 27 27 28 29 30 33 34 33 31 33 51 53 53 53 53 54 53 53 51 49 49 53 50 48 51 50 51 50 50 49
21 21 21 21 22 23 23 24 25 26 25 25 25 26 26 27 28 28 27 30 32 30 31 31 35 47 47 53 54 53 53 52 51 50 52 50 42 46 41 41 42 45 48
20 20 20 21 21 22 20 21 23 25 25 25 24 26 26 27 28 27 26 26 27 27 29 31 31 31 32 33 34 52 54 51 44 42 48 48 36 41 36 36 38 40 42
18 19 19 19 20 21 19 19 20 22 22 23 23 24 24 26 26 26 25 24 25 25 28 30 31 32 32 33 33 41 52 48 44 43 40 45 35 36 34 33 34 36 39
17 16 16 17 18 19 17 17 19 19 18 20 20 21 21 22 23 24 24 23 22 24 25 25 26 27 29 29 31 32 31 41 46 42 38 44 34 36 38 32 32 33 36

GFSMA_sfc_30mbdewp_126.txt.gz
Dewpoint
68 68 68 68 68 67 66 66 66 65 66 66 66 65 65 64 62 60 60 65 65 66 67 67 67 68 67 66 66 66 65 66 66 66 66 65 64 65 64 64 64 63 64
68 68 67 67 68 68 67 66 66 66 66 67 66 66 65 64 63 63 61 63 65 65 66 67 67 67 68 68 66 67 67 65 66 66 66 65 64 64 65 64 64 63 63
63 67 66 66 66 67 68 68 67 67 66 67 66 67 67 66 65 64 64 62 63 64 64 65 66 66 66 68 66 66 66 66 65 66 65 65 64 63 63 64 64 63 62
57 60 62 63 63 64 65 67 66 65 66 66 66 66 67 67 66 65 65 65 63 61 63 63 64 65 65 66 66 66 65 65 64 65 65 64 64 64 63 64 64 63 63
52 53 56 59 60 60 61 62 65 66 64 65 65 65 66 66 67 67 66 66 65 65 63 63 63 63 64 64 66 66 65 64 64 65 65 65 64 64 63 64 64 63 63
50 51 50 53 54 54 57 59 61 63 64 65 64 64 65 66 66 66 66 66 65 65 65 64 64 64 63 64 64 65 66 66 65 65 65 65 64 64 63 64 64 64 63
48 49 49 49 50 50 52 54 55 57 61 63 63 63 64 65 63 64 62 59 62 63 65 66 65 64 62 62 63 64 65 66 66 66 65 65 64 64 63 64 64 64 63
46 46 47 48 48 49 50 51 52 53 54 60 61 61 57 59 61 60 59 59 60 62 63 64 64 64 63 61 63 63 65 66 66 66 65 65 65 64 64 64 64 64 63
43 43 45 46 47 47 48 48 49 51 51 52 59 59 56 55 54 56 57 59 60 61 62 63 64 64 64 62 61 63 62 64 65 66 65 65 65 65 64 64 64 64 63
41 41 42 42 44 45 46 47 48 50 50 50 51 59 60 55 51 50 56 58 60 60 61 60 60 61 60 63 62 60 61 61 63 64 65 65 65 65 64 64 64 64 63
38 39 39 40 41 42 43 44 45 46 48 50 50 50 53 57 58 56 51 54 57 58 59 61 61 60 60 61 61 61 60 60 60 62 64 65 65 65 64 64 64 64 64
36 37 37 38 39 40 41 42 43 44 46 47 49 51 50 51 51 53 53 51 50 54 57 58 59 61 60 60 61 59 60 59 58 59 61 63 64 64 64 64 64 64 64
34 34 35 36 37 38 39 40 41 42 44 46 47 48 50 51 51 52 53 52 49 49 52 56 57 58 59 60 60 59 60 58 58 58 59 61 63 64 64 64 63 63 63
33 33 34 35 36 36 37 38 39 41 43 43 44 45 48 50 51 52 50 52 51 49 49 51 54 56 58 58 59 58 60 58 57 57 57 59 60 61 63 63 63 62 63
31 32 33 34 34 34 35 36 37 38 39 41 42 43 44 46 49 52 52 53 53 51 49 50 52 54 54 55 57 59 60 59 57 57 56 57 58 59 60 61 62 61 62
30 31 32 32 32 33 33 34 35 37 37 38 40 42 43 44 46 48 53 53 54 53 52 49 50 54 54 53 55 59 60 59 56 56 55 55 56 57 58 59 60 60 60
30 30 30 31 31 31 32 32 32 33 33 34 35 37 39 38 39 41 48 54 54 54 53 53 52 52 54 55 55 58 59 59 58 55 54 53 54 55 56 57 58 59 59
29 28 29 30 30 30 30 31 30 31 31 31 31 33 33 33 34 36 37 41 46 55 54 52 53 53 54 55 56 57 59 59 58 57 54 53 53 53 54 55 55 55 56
27 27 27 28 28 29 29 30 30 29 29 30 30 30 30 31 31 33 35 38 41 43 47 54 53 55 55 56 56 57 58 59 58 58 54 53 52 51 52 53 53 54 54
25 25 26 26 27 27 27 28 29 29 28 29 30 29 29 30 31 31 34 35 36 37 40 44 53 53 54 55 56 56 56 57 57 57 57 54 52 50 50 51 52 52 52
22 22 23 23 24 23 25 26 28 28 27 27 28 28 29 29 30 29 30 32 31 32 34 36 41 47 54 54 54 55 54 55 56 57 56 55 54 52 51 49 52 51 51
22 21 22 22 21 19 21 24 26 26 26 25 25 26 27 27 28 29 28 28 29 28 28 30 33 33 35 36 46 53 54 54 52 55 55 54 54 54 54 54 52 52 50
21 21 21 21 21 20 20 21 23 25 25 25 24 24 24 25 26 28 29 29 27 28 28 29 28 29 29 31 31 34 49 54 53 54 54 52 48 53 51 49 51 50 50
21 20 19 20 20 20 18 19 21 23 24 23 24 23 24 24 24 25 25 26 28 28 28 29 28 28 29 30 30 32 34 39 52 49 53 50 41 47 42 41 41 44 47
19 19 18 18 18 18 16 16 19 22 22 21 22 22 20 21 21 21 23 24 24 26 27 28 30 28 29 29 30 30 31 34 46 46 45 49 39 40 37 37 36 38 40
19 18 18 17 17 17 15 14 17 17 18 17 18 19 16 17 17 18 21 21 20 22 24 25 27 28 28 28 29 28 28 29 33 41 38 43 38 38 42 34 34 35 37

GFSMA_sfc_30mbdewp_132.txt.gz
Dewpoint
68 68 68 68 67 66 66 66 66 67 67 66 66 66 65 66 64 61 61 64 65 66 67 68 68 68 68 68 68 67 67 67 66 66 66 65 65 66 66 66 65 65 65
60 61 64 67 67 67 67 67 65 64 65 66 66 66 66 66 66 65 62 64 64 65 67 68 68 69 69 69 68 67 67 67 66 66 66 65 65 65 64 65 65 65 65
56 58 60 61 63 64 63 63 65 65 64 64 64 64 66 66 66 66 66 65 64 63 65 66 68 68 69 68 68 67 67 67 66 66 66 65 65 64 64 64 65 65 65
54 54 56 59 62 60 62 61 62 62 63 64 64 65 64 65 66 65 66 65 65 64 64 65 66 67 68 69 69 68 67 67 66 66 66 66 65 65 64 64 64 64 64
51 52 53 55 55 56 57 60 60 61 62 62 63 63 63 64 59 61 64 65 65 66 66 64 64 65 66 66 67 69 68 67 66 66 66 66 65 65 64 64 63 64 64
49 48 48 49 50 50 51 52 53 54 55 57 58 62 63 63 62 63 63 64 65 64 62 64 65 64 63 65 66 66 67 68 67 66 66 66 66 65 64 64 63 63 64
46 46 46 46 47 47 48 49 49 49 50 52 53 55 59 61 63 64 64 64 62 62 61 60 59 64 65 63 63 65 66 67 67 67 66 66 66 65 65 64 63 63 63
45 43 43 44 43 45 45 45 47 46 48 49 50 51 52 54 61 63 64 64 62 60 60 59 59 59 62 65 63 63 65 65 67 67 66 66 65 65 65 64 64 63 63
43 42 42 42 42 43 43 44 44 44 44 45 48 49 49 49 50 53 58 62 62 61 60 59 59 60 62 63 65 64 63 63 65 67 67 66 65 65 65 64 64 63 63
41 40 40 41 40 40 41 41 42 42 44 43 45 47 47 49 49 48 52 54 61 62 61 60 58 59 59 60 62 64 63 62 63 65 66 66 65 65 65 65 64 64 64
39 38 38 38 38 38 39 40 40 41 42 43 44 45 46 47 47 48 48 50 52 56 59 61 60 59 58 59 60 60 60 61 61 63 64 66 66 65 65 65 64 64 64
36 36 36 37 37 37 37 37 39 39 41 42 43 44 44 45 46 47 46 46 48 49 51 53 58 61 61 60 59 59 59 59 60 60 62 64 65 65 65 64 64 64 64
32 34 35 36 35 36 36 36 37 38 39 39 40 41 42 43 45 45 45 45 46 48 49 50 52 55 61 63 62 61 61 59 59 59 60 61 63 65 64 64 64 64 64
32 33 34 34 34 35 35 36 37 37 36 37 37 36 38 40 40 43 43 43 43 44 47 48 50 52 55 58 62 61 61 58 56 57 58 59 61 63 63 63 63 64 64
31 32 33 34 34 34 34 34 34 34 34 34 34 35 34 34 35 37 38 40 41 39 42 46 48 50 51 54 55 58 61 61 56 55 56 57 59 61 62 62 62 62 63
31 31 32 32 32 32 34 33 33 33 32 32 32 32 32 32 33 35 35 37 38 39 38 44 47 50 53 54 55 56 58 57 57 54 54 55 56 58 59 60 61 61 61
31 31 31 30 30 30 32 33 32 32 31 31 32 31 30 32 32 32 33 36 36 37 37 39 42 46 49 53 55 57 58 57 58 55 53 53 55 55 56 57 59 59 60
28 28 28 27 27 27 29 31 31 31 31 31 32 29 29 30 31 31 32 31 32 34 34 35 39 41 45 47 42 45 55 56 57 57 55 54 53 54 55 55 55 56 57
26 27 25 24 22 25 26 28 29 29 28 28 29 28 27 28 29 30 30 29 30 31 33 33 35 36 38 35 36 39 38 40 42 42 50 54 54 53 53 52 52 53 54
23 24 23 21 20 21 24 26 27 26 25 25 26 27 25 25 27 30 29 28 28 28 29 30 30 31 31 31 32 32 32 34 36 39 45 55 53 50 50 51 51 51 52
23 23 22 20 18 18 23 25 25 23 22 21 21 22 21 22 23 27 29 29 27 27 27 27 27 27 27 27 27 29 30 31 34 42 37 40 48 54 52 49 50 49 50
22 22 22 20 18 17 21 24 25 24 23 21 19 20 18 19 20 22 23 26 28 26 25 26 26 25 26 27 27 28 28 29 29 35 33 35 39 41 55 55 53 51 49
22 22 21 21 19 18 19 22 24 25 23 22 18 18 17 17 18 20 20 21 23 24 26 28 25 25 25 27 28 27 27 27 28 30 31 35 40 40 45 51 55 53 50
23 22 21 20 20 18 16 19 22 23 23 21 20 16 17 17 16 17 18 18 19 22 23 25 25 26 28 28 28 27 27 27 27 31 28 26 29 33 35 39 45 52 51
23 22 22 21 18 18 16 16 18 21 20 19 19 17 15 16 15 16 15 16 15 18 21 21 21 21 22 23 24 25 24 24 24 25 28 26 27 28 32 35 38 40 41
23 24 22 20 18 17 15 15 15 18 17 16 16 17 15 14 14 14 15 15 13 16 19 19 19 19 20 20 22 23 24 23 24 23 27 25 25 26 26 34 33 36 37

GFSMA_sfc_30mbdewp_135.txt.gz
Dewpoint
60 61 64 66 66 66 66 66 66 67 67 67 66 66 65 66 66 66 65 63 66 68 68 68 70 69 68 68 68 68 68 67 66 66 66 65 66 66 66 66 66 66 66
57 58 60 61 63 63 62 62 63 64 64 65 65 65 65 66 66 67 67 64 65 67 67 68 68 69 69 68 68 67 68 67 67 66 66 65 65 66 66 65 65 65 65
54 55 57 58 61 61 60 61 62 63 63 64 64 65 64 64 65 64 63 63 65 65 66 67 67 68 69 68 68 68 67 67 67 66 66 66 65 65 65 65 65 65 65
50 52 51 51 52 53 55 55 56 57 59 61 62 63 64 64 64 64 62 63 64 66 65 65 67 66 66 68 69 68 67 67 67 66 66 66 65 65 65 64 65 65 65
48 48 48 48 49 50 50 51 51 51 52 54 55 57 61 62 63 63 60 62 63 64 65 65 64 65 66 67 67 67 67 67 67 67 66 66 65 65 64 64 64 65 65
45 45 46 46 46 46 47 47 48 48 49 51 51 53 55 61 62 62 59 59 60 62 62 63 62 61 63 65 66 66 66 68 67 67 66 66 66 65 65 64 64 64 64
43 43 43 43 43 44 44 45 45 45 47 47 50 49 50 52 57 62 63 63 63 63 62 63 61 59 60 60 64 65 67 67 67 67 66 66 66 65 65 64 64 64 64
42 40 41 41 41 42 43 43 42 42 43 45 46 48 49 49 50 52 57 62 64 63 62 62 61 60 60 61 63 63 65 65 65 67 66 66 65 65 65 65 64 63 63
40 39 39 39 40 40 40 40 41 41 41 42 43 45 46 46 46 48 48 53 54 60 61 60 61 60 60 59 59 63 62 63 65 65 67 65 65 65 65 65 64 64 63
37 37 37 38 38 39 38 39 39 40 41 40 42 44 44 45 45 44 48 48 51 52 55 57 61 60 59 59 59 61 62 61 62 64 65 64 64 65 65 65 65 64 64
35 35 35 37 36 37 37 37 37 38 39 41 42 43 44 44 45 45 44 45 45 47 49 51 52 57 60 59 60 61 61 61 60 61 60 62 63 64 65 65 65 64 64
34 34 34 35 36 36 36 37 37 38 39 40 40 41 42 42 42 43 42 41 43 44 46 48 51 51 56 60 61 59 58 58 59 59 59 60 63 63 65 65 65 64 64
33 33 34 34 35 35 35 36 37 36 36 37 37 37 38 40 40 42 42 42 40 42 43 45 48 50 52 54 57 59 59 59 56 58 60 61 62 64 65 64 64 64 64
32 32 33 34 33 35 34 35 34 34 34 35 34 34 34 34 35 37 38 38 36 40 41 41 44 48 51 52 54 54 58 59 58 56 56 58 60 61 63 64 64 64 64
30 32 32 32 32 33 34 34 33 33 32 33 32 32 32 33 33 34 35 36 36 34 36 40 43 45 45 47 51 50 56 59 58 56 56 56 58 59 61 61 62 63 63
31 31 30 29 29 31 32 34 34 33 33 32 31 30 31 32 32 33 34 35 36 36 34 39 38 40 42 46 43 43 48 55 56 54 54 54 55 57 58 60 60 61 61
29 30 26 26 26 28 29 34 31 31 30 32 29 28 29 30 31 32 32 32 32 32 32 33 36 39 38 35 34 40 41 42 43 44 42 47 51 53 55 57 58 59 59
28 25 23 22 24 26 27 30 29 28 27 28 27 25 25 27 29 30 31 30 30 32 31 31 33 33 32 31 32 34 35 36 37 38 40 45 49 51 51 53 54 55 57
25 22 21 20 22 25 26 27 25 24 23 24 25 22 23 24 27 29 29 28 28 29 31 30 29 30 29 29 30 31 31 32 33 37 40 38 42 47 49 49 50 51 53
24 21 20 19 20 23 26 27 24 23 19 21 22 20 20 22 24 26 27 26 26 26 27 28 27 27 27 28 29 28 28 30 31 37 34 36 38 40 43 48 49 50 50
23 21 19 19 19 22 26 25 23 22 17 16 18 18 18 19 20 22 24 25 25 24 25 24 23 23 24 24 26 27 28 28 30 32 31 33 37 39 40 44 49 48 49
22 22 19 19 18 20 25 24 23 22 18 15 15 17 16 18 17 18 20 22 25 24 23 23 22 22 23 24 25 26 25 26 26 30 28 29 35 30 33 34 35 38 41
21 20 20 19 18 18 22 24 24 22 21 18 17 16 16 17 17 16 16 17 19 22 24 23 21 21 21 24 24 23 24 25 25 28 25 25 28 27 28 29 34 37 38
21 20 18 18 18 17 18 20 21 20 18 17 18 17 17 17 16 15 15 14 15 18 20 20 20 20 21 23 22 22 22 23 24 27 25 23 25 24 26 28 35 31 36
20 20 18 16 15 17 16 16 18 19 16 16 17 17 16 16 15 14 14 13 13 14 17 16 16 16 16 19 19 19 19 19 18 22 26 25 23 23 24 27 30 28 32
22 19 18 17 15 14 16 15 15 18 17 16 16 16 14 14 14 14 13 11 11 12 13 13 13 13 13 14 17 18 18 17 18 19 23 22 23 23 20 24 24 26 29